<?xml version='1.0' encoding='UTF-8'?><gpx version="1.1" creator="JPX - https://github.com/jenetics/jpx" xmlns="http://www.topografix.com/GPX/1/1"><trk><trkseg><trkpt lat="45.657761060770014" lon="9.882469953315006"><ele>559.8333333333334</ele><time>2026-03-28T13:54:13.001Z</time></trkpt><trkpt lat="45.65781415796576" lon="9.882528490271673"><ele>558.6666666666666</ele><time>2026-03-28T13:54:15.001Z</time></trkpt><trkpt lat="45.65786661116738" lon="9.882623604092132"><ele>557.5</ele><time>2026-03-28T13:54:17.001Z</time></trkpt><trkpt lat="45.65788132946358" lon="9.882721474882102"><ele>556.3333333333333</ele><time>2026-03-28T13:54:42Z</time></trkpt><trkpt lat="45.65778360284878" lon="9.882888554724623"><ele>555.1666666666666</ele><time>2026-03-28T13:54:44Z</time></trkpt><trkpt lat="45.65774376456961" lon="9.882970764084252"><ele>554.0</ele><time>2026-03-28T13:54:45Z</time></trkpt><trkpt lat="45.65772294325038" lon="9.88306357101044"><ele>558.1666666666666</ele><time>2026-03-28T13:54:46Z</time></trkpt><trkpt lat="45.657723135167394" lon="9.883160583170449"><ele>562.3333333333333</ele><time>2026-03-28T13:54:47Z</time></trkpt><trkpt lat="45.657741580395076" lon="9.883263473597365"><ele>566.5</ele><time>2026-03-28T13:54:48Z</time></trkpt><trkpt lat="45.65777712462732" lon="9.883379860776722"><ele>570.6666666666666</ele><time>2026-03-28T13:54:49Z</time></trkpt><trkpt lat="45.657811617013486" lon="9.883488196772667"><ele>574.8333333333334</ele><time>2026-03-28T13:54:50Z</time></trkpt><trkpt lat="45.65783242287001" lon="9.883587709568928"><ele>579.0</ele><time>2026-03-28T13:54:51Z</time></trkpt><trkpt lat="45.657860937363246" lon="9.88369326907217"><ele>579.0</ele><time>2026-03-28T13:54:52Z</time></trkpt><trkpt lat="45.65790798819987" lon="9.883870422822845"><ele>579.0</ele><time>2026-03-28T13:54:54Z</time></trkpt><trkpt lat="45.657957723551526" lon="9.88397340567752"><ele>579.0</ele><time>2026-03-28T13:54:56Z</time></trkpt><trkpt lat="45.65801521111464" lon="9.883931710480923"><ele>579.0</ele><time>2026-03-28T13:55:19.999Z</time></trkpt><trkpt lat="45.65794534149034" lon="9.883964546712257"><ele>579.0</ele><time>2026-03-28T13:55:27.999Z</time></trkpt><trkpt lat="45.6579027802836" lon="9.883885290084516"><ele>579.0</ele><time>2026-03-28T13:55:29.999Z</time></trkpt><trkpt lat="45.65787954804502" lon="9.883771611844407"><ele>579.0</ele><time>2026-03-28T13:55:31.999Z</time></trkpt><trkpt lat="45.657844347168776" lon="9.883637244081676"><ele>579.0</ele><time>2026-03-28T13:55:33.999Z</time></trkpt><trkpt lat="45.657805658076" lon="9.883509165646455"><ele>579.0</ele><time>2026-03-28T13:55:35.999Z</time></trkpt><trkpt lat="45.65778406141633" lon="9.88341336784043"><ele>579.0</ele><time>2026-03-28T13:55:36.999Z</time></trkpt><trkpt lat="45.6577575749488" lon="9.88331356940637"><ele>579.0</ele><time>2026-03-28T13:55:37.999Z</time></trkpt><trkpt lat="45.657728352599435" lon="9.883174330046518"><ele>579.0</ele><time>2026-03-28T13:55:39.999Z</time></trkpt><trkpt lat="45.65770889761933" lon="9.883064852444154"><ele>579.1666666666666</ele><time>2026-03-28T13:55:41.999Z</time></trkpt><trkpt lat="45.65770811764481" lon="9.882971960833705"><ele>579.3333333333334</ele><time>2026-03-28T13:55:44.999Z</time></trkpt><trkpt lat="45.65775488767212" lon="9.882870848463945"><ele>579.5</ele><time>2026-03-28T13:55:53.999Z</time></trkpt><trkpt lat="45.65779913300279" lon="9.882769883733465"><ele>579.6666666666667</ele><time>2026-03-28T13:55:55.999Z</time></trkpt><trkpt lat="45.657854779508405" lon="9.882678562669065"><ele>579.8333333333334</ele><time>2026-03-28T13:55:58Z</time></trkpt><trkpt lat="45.65791077384117" lon="9.882740315881177"><ele>580.0</ele><time>2026-03-28T13:56:01Z</time></trkpt><trkpt lat="45.65795455560744" lon="9.882841772152922"><ele>578.5</ele><time>2026-03-28T13:56:03Z</time></trkpt><trkpt lat="45.65798351869969" lon="9.882925589339246"><ele>577.0</ele><time>2026-03-28T13:56:04Z</time></trkpt><trkpt lat="45.65801965811152" lon="9.883004980860157"><ele>575.5</ele><time>2026-03-28T13:56:06Z</time></trkpt><trkpt lat="45.65810301325492" lon="9.883051031114363"><ele>574.0</ele><time>2026-03-28T13:56:08Z</time></trkpt><trkpt lat="45.6581682729917" lon="9.883099821441435"><ele>572.5</ele><time>2026-03-28T13:56:10Z</time></trkpt><trkpt lat="45.658260159430384" lon="9.88312358852647"><ele>571.0</ele><time>2026-03-28T13:56:13Z</time></trkpt><trkpt lat="45.65834564435875" lon="9.88312224495487"><ele>571.0</ele><time>2026-03-28T13:56:14Z</time></trkpt><trkpt lat="45.65843511287259" lon="9.883157256463827"><ele>571.0</ele><time>2026-03-28T13:56:15Z</time></trkpt><trkpt lat="45.658532720457245" lon="9.883210341785706"><ele>571.0</ele><time>2026-03-28T13:56:16Z</time></trkpt><trkpt lat="45.65859230548612" lon="9.883261259890979"><ele>571.0</ele><time>2026-03-28T13:56:17Z</time></trkpt><trkpt lat="45.65866556520502" lon="9.883334047452523"><ele>571.0</ele><time>2026-03-28T13:56:18Z</time></trkpt><trkpt lat="45.65873344314262" lon="9.883413442790374"><ele>571.0</ele><time>2026-03-28T13:56:19Z</time></trkpt><trkpt lat="45.658791750230435" lon="9.883475627205687"><ele>570.6666666666667</ele><time>2026-03-28T13:56:20Z</time></trkpt><trkpt lat="45.6588571776804" lon="9.883475244319829"><ele>570.3333333333334</ele><time>2026-03-28T13:56:21Z</time></trkpt><trkpt lat="45.65892570424595" lon="9.883460740680817"><ele>570.0</ele><time>2026-03-28T13:56:22Z</time></trkpt><trkpt lat="45.659000825959566" lon="9.883460773948713"><ele>569.6666666666666</ele><time>2026-03-28T13:56:23Z</time></trkpt><trkpt lat="45.65905000124162" lon="9.883518729075108"><ele>569.3333333333333</ele><time>2026-03-28T13:56:24Z</time></trkpt><trkpt lat="45.659155822669995" lon="9.883596002340168"><ele>569.0</ele><time>2026-03-28T13:56:26Z</time></trkpt><trkpt lat="45.6592777389562" lon="9.883680678425463"><ele>569.0</ele><time>2026-03-28T13:56:28Z</time></trkpt><trkpt lat="45.65933193031552" lon="9.883757142352746"><ele>569.0</ele><time>2026-03-28T13:56:29Z</time></trkpt><trkpt lat="45.65942879969686" lon="9.883852101368944"><ele>569.0</ele><time>2026-03-28T13:56:31Z</time></trkpt><trkpt lat="45.65952386574277" lon="9.88389376152465"><ele>569.0</ele><time>2026-03-28T13:56:33Z</time></trkpt><trkpt lat="45.659599899366405" lon="9.883947560539893"><ele>569.0</ele><time>2026-03-28T13:56:35Z</time></trkpt><trkpt lat="45.659648188969115" lon="9.883883817284572"><ele>569.0</ele><time>2026-03-28T13:56:58Z</time></trkpt><trkpt lat="45.659661628358265" lon="9.883790398905305"><ele>568.0000000000001</ele><time>2026-03-28T13:57:01Z</time></trkpt><trkpt lat="45.65972588121634" lon="9.883760715951702"><ele>567.0</ele><time>2026-03-28T13:57:03Z</time></trkpt><trkpt lat="45.659771780132104" lon="9.883697052700711"><ele>566.0</ele><time>2026-03-28T13:57:06Z</time></trkpt><trkpt lat="45.65975526360023" lon="9.883590781901097"><ele>565.0</ele><time>2026-03-28T13:57:09Z</time></trkpt><trkpt lat="45.65975715472369" lon="9.883487720680387"><ele>564.0</ele><time>2026-03-28T13:57:11.999Z</time></trkpt><trkpt lat="45.659746050421944" lon="9.883378559545116"><ele>563.0000000000001</ele><time>2026-03-28T13:57:15.999Z</time></trkpt><trkpt lat="45.65980304976176" lon="9.883284632022331"><ele>562.0</ele><time>2026-03-28T13:57:26.999Z</time></trkpt><trkpt lat="45.65981577765019" lon="9.883185170427142"><ele>557.0</ele><time>2026-03-28T13:57:28.999Z</time></trkpt><trkpt lat="45.659986539781755" lon="9.882993134441058"><ele>552.0</ele><time>2026-03-28T13:57:33.999Z</time></trkpt><trkpt lat="45.66003571378058" lon="9.882892153276496"><ele>547.0</ele><time>2026-03-28T13:57:35.999Z</time></trkpt><trkpt lat="45.66018237888849" lon="9.882839624323763"><ele>547.0</ele><time>2026-03-28T13:57:40.999Z</time></trkpt><trkpt lat="45.66025180586984" lon="9.882757475756243"><ele>547.0</ele><time>2026-03-28T13:57:43.999Z</time></trkpt><trkpt lat="45.66033128519282" lon="9.882702420529984"><ele>547.0</ele><time>2026-03-28T13:57:46.999Z</time></trkpt><trkpt lat="45.66039018460354" lon="9.882530522436772"><ele>547.0</ele><time>2026-03-28T13:58:21Z</time></trkpt><trkpt lat="45.66033805147481" lon="9.882473132193637"><ele>547.0</ele><time>2026-03-28T13:58:24Z</time></trkpt><trkpt lat="45.6602677498646" lon="9.88243888820799"><ele>544.4285714285714</ele><time>2026-03-28T13:58:27Z</time></trkpt><trkpt lat="45.66023140551607" lon="9.882359858689801"><ele>541.8571428571428</ele><time>2026-03-28T13:58:30Z</time></trkpt><trkpt lat="45.66015998509191" lon="9.88236222427674"><ele>539.2857142857142</ele><time>2026-03-28T13:58:35Z</time></trkpt><trkpt lat="45.660101216792434" lon="9.882314271139709"><ele>536.7142857142857</ele><time>2026-03-28T13:59:34.999Z</time></trkpt><trkpt lat="45.66003688956007" lon="9.88233587431468"><ele>534.1428571428571</ele><time>2026-03-28T13:59:40.999Z</time></trkpt><trkpt lat="45.65997099706863" lon="9.882330983040703"><ele>531.5714285714286</ele><time>2026-03-28T13:59:51.999Z</time></trkpt><trkpt lat="45.659919899651534" lon="9.882266345588873"><ele>529.0</ele><time>2026-03-28T13:59:55.999Z</time></trkpt><trkpt lat="45.65987041243313" lon="9.8821895046012"><ele>529.0</ele><time>2026-03-28T14:00:24Z</time></trkpt><trkpt lat="45.65981803474775" lon="9.882120078441698"><ele>529.0</ele><time>2026-03-28T14:00:29Z</time></trkpt><trkpt lat="45.65980325548421" lon="9.881999779081447"><ele>529.0</ele><time>2026-03-28T14:00:31Z</time></trkpt><trkpt lat="45.659767422236364" lon="9.881914869639667"><ele>529.0</ele><time>2026-03-28T14:01:20Z</time></trkpt><trkpt lat="45.65972546361144" lon="9.881822418572682"><ele>529.0</ele><time>2026-03-28T14:01:24Z</time></trkpt><trkpt lat="45.65965923803785" lon="9.881786204075995"><ele>529.0</ele><time>2026-03-28T14:05:20Z</time></trkpt><trkpt lat="45.65958793067724" lon="9.881745131211325"><ele>526.4285714285714</ele><time>2026-03-28T14:05:23Z</time></trkpt><trkpt lat="45.659540526634935" lon="9.881678442804729"><ele>523.8571428571429</ele><time>2026-03-28T14:05:27Z</time></trkpt><trkpt lat="45.659497067406534" lon="9.881591729011063"><ele>521.2857142857142</ele><time>2026-03-28T14:05:29Z</time></trkpt><trkpt lat="45.65942979276702" lon="9.88158135398584"><ele>518.7142857142858</ele><time>2026-03-28T14:05:32Z</time></trkpt><trkpt lat="45.65936144024462" lon="9.88151571601461"><ele>516.1428571428571</ele><time>2026-03-28T14:05:36Z</time></trkpt><trkpt lat="45.65929400631674" lon="9.881482420165362"><ele>513.5714285714286</ele><time>2026-03-28T14:05:40Z</time></trkpt><trkpt lat="45.65923463819718" lon="9.881441110347357"><ele>511.0</ele><time>2026-03-28T14:05:43Z</time></trkpt><trkpt lat="45.65917653981253" lon="9.881392543374325"><ele>511.00000000000006</ele><time>2026-03-28T14:05:48Z</time></trkpt><trkpt lat="45.65910254008401" lon="9.881355467621008"><ele>511.0</ele><time>2026-03-28T14:05:55Z</time></trkpt><trkpt lat="45.6590195449534" lon="9.881297822979494"><ele>511.0</ele><time>2026-03-28T14:05:57.999Z</time></trkpt><trkpt lat="45.65898727178716" lon="9.881215456663945"><ele>511.0</ele><time>2026-03-28T14:06:00.999Z</time></trkpt><trkpt lat="45.65891354863797" lon="9.881171100674148"><ele>511.00000000000006</ele><time>2026-03-28T14:06:01.999Z</time></trkpt><trkpt lat="45.65884542725823" lon="9.881169328732895"><ele>511.0</ele><time>2026-03-28T14:06:03.999Z</time></trkpt><trkpt lat="45.65877954101205" lon="9.88113319909941"><ele>511.0</ele><time>2026-03-28T14:06:07.999Z</time></trkpt><trkpt lat="45.65872474119815" lon="9.881088161174052"><ele>511.0</ele><time>2026-03-28T14:06:09.999Z</time></trkpt><trkpt lat="45.658669112325164" lon="9.881029873912995"><ele>511.0</ele><time>2026-03-28T14:06:12.999Z</time></trkpt><trkpt lat="45.65861648106024" lon="9.880943989631701"><ele>511.0</ele><time>2026-03-28T14:06:19.999Z</time></trkpt><trkpt lat="45.65854868367415" lon="9.880951352954206"><ele>511.0</ele><time>2026-03-28T14:06:22.999Z</time></trkpt><trkpt lat="45.65846790729474" lon="9.880871719865997"><ele>511.0</ele><time>2026-03-28T14:06:23.999Z</time></trkpt><trkpt lat="45.65840414564903" lon="9.880892943140132"><ele>511.0</ele><time>2026-03-28T14:06:25.999Z</time></trkpt><trkpt lat="45.658322799475066" lon="9.880859174706458"><ele>507.4</ele><time>2026-03-28T14:06:26.999Z</time></trkpt><trkpt lat="45.658247258992475" lon="9.880790539474646"><ele>503.8</ele><time>2026-03-28T14:06:30Z</time></trkpt><trkpt lat="45.65812810855734" lon="9.880721006400734"><ele>500.19999999999993</ele><time>2026-03-28T14:06:32Z</time></trkpt><trkpt lat="45.65806926377112" lon="9.880686331787071"><ele>496.59999999999997</ele><time>2026-03-28T14:06:33Z</time></trkpt><trkpt lat="45.6579800673992" lon="9.880667204729873"><ele>493.0</ele><time>2026-03-28T14:06:35Z</time></trkpt><trkpt lat="45.657909711713984" lon="9.880606540536938"><ele>493.0</ele><time>2026-03-28T14:06:37Z</time></trkpt><trkpt lat="45.65781642759622" lon="9.880540188266245"><ele>492.99999999999994</ele><time>2026-03-28T14:06:39Z</time></trkpt><trkpt lat="45.65771974516356" lon="9.880454709239478"><ele>492.99999999999994</ele><time>2026-03-28T14:06:40Z</time></trkpt><trkpt lat="45.657665774598044" lon="9.880395674348142"><ele>493.0</ele><time>2026-03-28T14:06:41Z</time></trkpt><trkpt lat="45.65759763442838" lon="9.880280324939786"><ele>493.0</ele><time>2026-03-28T14:06:43Z</time></trkpt><trkpt lat="45.65751940732035" lon="9.880249502452083"><ele>491.79999999999995</ele><time>2026-03-28T14:06:44Z</time></trkpt><trkpt lat="45.65746143741999" lon="9.8801894852444"><ele>490.59999999999997</ele><time>2026-03-28T14:06:45Z</time></trkpt><trkpt lat="45.65738479635974" lon="9.880096117317548"><ele>489.40000000000003</ele><time>2026-03-28T14:06:47Z</time></trkpt><trkpt lat="45.65735020090591" lon="9.880004495391177"><ele>488.20000000000005</ele><time>2026-03-28T14:06:48Z</time></trkpt><trkpt lat="45.65731288725737" lon="9.879879236078006"><ele>487.0</ele><time>2026-03-28T14:06:49Z</time></trkpt><trkpt lat="45.65728858455062" lon="9.87972448341184"><ele>487.00000000000006</ele><time>2026-03-28T14:06:50Z</time></trkpt><trkpt lat="45.657271197531884" lon="9.879592710193217"><ele>487.0</ele><time>2026-03-28T14:06:51Z</time></trkpt><trkpt lat="45.65726142216843" lon="9.879502288559848"><ele>487.0</ele><time>2026-03-28T14:06:53Z</time></trkpt><trkpt lat="45.65716906199444" lon="9.879479414801631"><ele>487.0</ele><time>2026-03-28T14:06:56Z</time></trkpt><trkpt lat="45.65711076202231" lon="9.879430131779669"><ele>487.00000000000006</ele><time>2026-03-28T14:06:58Z</time></trkpt><trkpt lat="45.65704773505439" lon="9.879385984785774"><ele>487.0</ele><time>2026-03-28T14:07:01Z</time></trkpt><trkpt lat="45.6569777553306" lon="9.879250109217093"><ele>484.6</ele><time>2026-03-28T14:07:29Z</time></trkpt><trkpt lat="45.65691719472311" lon="9.879182832824158"><ele>482.20000000000005</ele><time>2026-03-28T14:07:34Z</time></trkpt><trkpt lat="45.6568547203287" lon="9.87914927406502"><ele>479.8</ele><time>2026-03-28T14:07:39Z</time></trkpt><trkpt lat="45.65679952016673" lon="9.879048328201597"><ele>477.4</ele><time>2026-03-28T14:07:42Z</time></trkpt><trkpt lat="45.65671354760628" lon="9.878957625994685"><ele>475.0</ele><time>2026-03-28T14:07:44Z</time></trkpt><trkpt lat="45.65661572585016" lon="9.878835651297209"><ele>475.00000000000006</ele><time>2026-03-28T14:07:46Z</time></trkpt><trkpt lat="45.65658926771772" lon="9.878737546496643"><ele>475.0</ele><time>2026-03-28T14:07:49Z</time></trkpt><trkpt lat="45.65658933270244" lon="9.878625460905665"><ele>475.0</ele><time>2026-03-28T14:07:52Z</time></trkpt><trkpt lat="45.65662405646156" lon="9.878529605505518"><ele>475.0</ele><time>2026-03-28T14:07:55Z</time></trkpt><trkpt lat="45.65669291703209" lon="9.87842935432918"><ele>475.00000000000006</ele><time>2026-03-28T14:07:59Z</time></trkpt><trkpt lat="45.65676528492977" lon="9.878420158661621"><ele>475.0</ele><time>2026-03-28T14:08:01.999Z</time></trkpt><trkpt lat="45.65683638139968" lon="9.878432125266079"><ele>472.1666666666667</ele><time>2026-03-28T14:08:04.999Z</time></trkpt><trkpt lat="45.65688431502058" lon="9.878358492252715"><ele>469.33333333333337</ele><time>2026-03-28T14:08:06.999Z</time></trkpt><trkpt lat="45.65692064213906" lon="9.878271694956334"><ele>466.5</ele><time>2026-03-28T14:08:08.999Z</time></trkpt><trkpt lat="45.65698548731347" lon="9.878124925278378"><ele>463.66666666666663</ele><time>2026-03-28T14:08:12.999Z</time></trkpt><trkpt lat="45.65705119182833" lon="9.87808922200526"><ele>460.8333333333333</ele><time>2026-03-28T14:08:15.999Z</time></trkpt><trkpt lat="45.65711604788699" lon="9.877990648908696"><ele>458.0</ele><time>2026-03-28T14:08:18.999Z</time></trkpt><trkpt lat="45.65721057997847" lon="9.877964806033335"><ele>455.66666666666663</ele><time>2026-03-28T14:08:20.999Z</time></trkpt><trkpt lat="45.65727793804567" lon="9.877969969908431"><ele>453.3333333333333</ele><time>2026-03-28T14:08:22.999Z</time></trkpt><trkpt lat="45.65738969512616" lon="9.877975213974432"><ele>451.0</ele><time>2026-03-28T14:08:24.999Z</time></trkpt><trkpt lat="45.65747747008313" lon="9.87796101233981"><ele>448.66666666666663</ele><time>2026-03-28T14:08:26.999Z</time></trkpt><trkpt lat="45.65756191716089" lon="9.877971083110898"><ele>446.3333333333333</ele><time>2026-03-28T14:08:31.999Z</time></trkpt><trkpt lat="45.657567013572006" lon="9.877864803520161"><ele>444.0</ele><time>2026-03-28T14:08:35Z</time></trkpt><trkpt lat="45.65755145968365" lon="9.877752934784132"><ele>444.0</ele><time>2026-03-28T14:08:39Z</time></trkpt><trkpt lat="45.6575795534682" lon="9.877663233202277"><ele>444.0</ele><time>2026-03-28T14:08:43Z</time></trkpt><trkpt lat="45.6575795843948" lon="9.877537015201625"><ele>444.0</ele><time>2026-03-28T14:08:46Z</time></trkpt><trkpt lat="45.65757959762527" lon="9.877445243982187"><ele>444.0</ele><time>2026-03-28T14:08:49Z</time></trkpt><trkpt lat="45.65759766702229" lon="9.877315797863838"><ele>444.0</ele><time>2026-03-28T14:09:09Z</time></trkpt><trkpt lat="45.6576037619834" lon="9.87720314320827"><ele>444.0</ele><time>2026-03-28T14:09:12Z</time></trkpt><trkpt lat="45.657638087957885" lon="9.877109129612899"><ele>442.1666666666667</ele><time>2026-03-28T14:09:14Z</time></trkpt><trkpt lat="45.65768177907619" lon="9.87697075909679"><ele>440.33333333333337</ele><time>2026-03-28T14:09:16Z</time></trkpt><trkpt lat="45.65776634841806" lon="9.87688393907034"><ele>438.5</ele><time>2026-03-28T14:09:19Z</time></trkpt><trkpt lat="45.6578074732086" lon="9.87680223388372"><ele>436.6666666666667</ele><time>2026-03-28T14:09:21Z</time></trkpt><trkpt lat="45.657880117097186" lon="9.876771633882642"><ele>434.83333333333337</ele><time>2026-03-28T14:09:23Z</time></trkpt><trkpt lat="45.65794083739945" lon="9.876745493842792"><ele>433.0</ele><time>2026-03-28T14:09:25Z</time></trkpt><trkpt lat="45.6580033449624" lon="9.876695955445276"><ele>426.83333333333337</ele><time>2026-03-28T14:09:28Z</time></trkpt><trkpt lat="45.65806546000986" lon="9.87666140900934"><ele>420.6666666666667</ele><time>2026-03-28T14:09:41Z</time></trkpt><trkpt lat="45.658119312479855" lon="9.876609879056842"><ele>414.5</ele><time>2026-03-28T14:09:44Z</time></trkpt><trkpt lat="45.658201229174765" lon="9.876602203877642"><ele>408.33333333333337</ele><time>2026-03-28T14:09:49Z</time></trkpt><trkpt lat="45.65835106353383" lon="9.876540516314034"><ele>402.1666666666667</ele><time>2026-03-28T14:09:54Z</time></trkpt><trkpt lat="45.65842189168795" lon="9.876504599650232"><ele>396.0</ele><time>2026-03-28T14:09:57Z</time></trkpt><trkpt lat="45.65847415487321" lon="9.876391715814153"><ele>396.0</ele><time>2026-03-28T14:10:00Z</time></trkpt><trkpt lat="45.65856035725991" lon="9.876436168557234"><ele>396.0</ele><time>2026-03-28T14:10:03Z</time></trkpt><trkpt lat="45.658590030730124" lon="9.876527012779693"><ele>396.0</ele><time>2026-03-28T14:10:06Z</time></trkpt><trkpt lat="45.65864244361013" lon="9.876629702037665"><ele>396.0</ele><time>2026-03-28T14:10:09Z</time></trkpt><trkpt lat="45.658698712336744" lon="9.87678330317369"><ele>396.0</ele><time>2026-03-28T14:10:12Z</time></trkpt><trkpt lat="45.658729214444186" lon="9.876942054997977"><ele>392.8</ele><time>2026-03-28T14:10:13.999Z</time></trkpt><trkpt lat="45.65872942747516" lon="9.877037626997819"><ele>389.6</ele><time>2026-03-28T14:10:14.999Z</time></trkpt><trkpt lat="45.658738867391584" lon="9.877129625206962"><ele>386.4</ele><time>2026-03-28T14:10:15.999Z</time></trkpt><trkpt lat="45.658769896778814" lon="9.877292822512365"><ele>383.2</ele><time>2026-03-28T14:10:17.999Z</time></trkpt><trkpt lat="45.65886471282088" lon="9.877454102369988"><ele>380.0</ele><time>2026-03-28T14:10:19.999Z</time></trkpt><trkpt lat="45.658903785373916" lon="9.877554743477704"><ele>382.2857142857143</ele><time>2026-03-28T14:10:20.999Z</time></trkpt><trkpt lat="45.6589369752034" lon="9.87766586699024"><ele>384.57142857142856</ele><time>2026-03-28T14:10:21.999Z</time></trkpt><trkpt lat="45.65895788356742" lon="9.877763714960961"><ele>386.8571428571429</ele><time>2026-03-28T14:10:22.999Z</time></trkpt><trkpt lat="45.65898267834176" lon="9.877848327596782"><ele>389.1428571428571</ele><time>2026-03-28T14:10:23.999Z</time></trkpt><trkpt lat="45.659024686934224" lon="9.87793785653555"><ele>391.4285714285714</ele><time>2026-03-28T14:10:24.999Z</time></trkpt><trkpt lat="45.65907641709651" lon="9.878004872495595"><ele>393.7142857142857</ele><time>2026-03-28T14:10:25.999Z</time></trkpt><trkpt lat="45.65915165529478" lon="9.878053365397209"><ele>396.0</ele><time>2026-03-28T14:10:26.999Z</time></trkpt><trkpt lat="45.659240332806" lon="9.87808109541818"><ele>396.0</ele><time>2026-03-28T14:10:27.999Z</time></trkpt><trkpt lat="45.65932203298748" lon="9.878119398792773"><ele>396.0</ele><time>2026-03-28T14:10:28.999Z</time></trkpt><trkpt lat="45.65940619801447" lon="9.87814813391056"><ele>396.0</ele><time>2026-03-28T14:10:29.999Z</time></trkpt><trkpt lat="45.6594813256364" lon="9.878148328737979"><ele>396.0</ele><time>2026-03-28T14:10:30.999Z</time></trkpt><trkpt lat="45.65956357471912" lon="9.878114318225492"><ele>396.0</ele><time>2026-03-28T14:10:31.999Z</time></trkpt><trkpt lat="45.659690270534014" lon="9.87809943075755"><ele>398.0</ele><time>2026-03-28T14:10:33.999Z</time></trkpt><trkpt lat="45.65979250527041" lon="9.878133770060924"><ele>400.0</ele><time>2026-03-28T14:10:35.999Z</time></trkpt><trkpt lat="45.65986721559503" lon="9.878241443745859"><ele>402.0</ele><time>2026-03-28T14:10:37.999Z</time></trkpt><trkpt lat="45.65992528276996" lon="9.878291875416688"><ele>404.0</ele><time>2026-03-28T14:10:38.999Z</time></trkpt><trkpt lat="45.65996387307999" lon="9.878425807404879"><ele>406.0</ele><time>2026-03-28T14:10:41Z</time></trkpt><trkpt lat="45.660027433271054" lon="9.878608618041918"><ele>406.0</ele><time>2026-03-28T14:10:43Z</time></trkpt><trkpt lat="45.66012292675631" lon="9.878651441119839"><ele>406.0</ele><time>2026-03-28T14:10:45Z</time></trkpt><trkpt lat="45.66024609358111" lon="9.878629933077114"><ele>406.0</ele><time>2026-03-28T14:10:47Z</time></trkpt><trkpt lat="45.660349986813536" lon="9.878628200279922"><ele>406.0</ele><time>2026-03-28T14:10:48Z</time></trkpt><trkpt lat="45.66044621424591" lon="9.878622189545828"><ele>406.0</ele><time>2026-03-28T14:10:49Z</time></trkpt><trkpt lat="45.66051480923263" lon="9.87864219158467"><ele>408.33333333333337</ele><time>2026-03-28T14:10:50Z</time></trkpt><trkpt lat="45.66062435945849" lon="9.878556378602912"><ele>410.6666666666667</ele><time>2026-03-28T14:10:52Z</time></trkpt><trkpt lat="45.66068758885303" lon="9.878453805911724"><ele>413.0</ele><time>2026-03-28T14:10:53Z</time></trkpt><trkpt lat="45.660706746901596" lon="9.878360558847845"><ele>415.33333333333337</ele><time>2026-03-28T14:10:54Z</time></trkpt><trkpt lat="45.66071556799767" lon="9.8782622942063"><ele>417.6666666666667</ele><time>2026-03-28T14:10:55Z</time></trkpt><trkpt lat="45.660731301206646" lon="9.878144866550002"><ele>420.0</ele><time>2026-03-28T14:10:56Z</time></trkpt><trkpt lat="45.660765216704476" lon="9.878025041328678"><ele>414.2</ele><time>2026-03-28T14:10:57Z</time></trkpt><trkpt lat="45.66081209170124" lon="9.877888345121628"><ele>408.4</ele><time>2026-03-28T14:10:58Z</time></trkpt><trkpt lat="45.66085762356856" lon="9.877770846713931"><ele>402.6</ele><time>2026-03-28T14:10:59Z</time></trkpt><trkpt lat="45.66090926970351" lon="9.877623881011424"><ele>396.8</ele><time>2026-03-28T14:11:00Z</time></trkpt><trkpt lat="45.660957081229725" lon="9.877525656255802"><ele>391.0</ele><time>2026-03-28T14:11:01Z</time></trkpt><trkpt lat="45.66099768737231" lon="9.877450619956866"><ele>393.8</ele><time>2026-03-28T14:11:02Z</time></trkpt><trkpt lat="45.6610886553747" lon="9.87740425522343"><ele>396.6</ele><time>2026-03-28T14:11:04Z</time></trkpt><trkpt lat="45.66116352675817" lon="9.877385575441773"><ele>399.4</ele><time>2026-03-28T14:11:05Z</time></trkpt><trkpt lat="45.66128671697552" lon="9.877324811329272"><ele>402.2</ele><time>2026-03-28T14:11:07Z</time></trkpt><trkpt lat="45.661348835518595" lon="9.877229412519746"><ele>405.0</ele><time>2026-03-28T14:11:08Z</time></trkpt><trkpt lat="45.661403758816846" lon="9.877153202267701"><ele>404.99999999999994</ele><time>2026-03-28T14:11:09Z</time></trkpt><trkpt lat="45.66146272591082" lon="9.877093135356573"><ele>405.0</ele><time>2026-03-28T14:11:10Z</time></trkpt><trkpt lat="45.661495978719394" lon="9.87698532582599"><ele>405.0</ele><time>2026-03-28T14:11:11Z</time></trkpt><trkpt lat="45.66151095193548" lon="9.87687313077692"><ele>405.0</ele><time>2026-03-28T14:11:12Z</time></trkpt><trkpt lat="45.66150182728943" lon="9.87676878398667"><ele>405.0</ele><time>2026-03-28T14:11:13Z</time></trkpt><trkpt lat="45.66148282823358" lon="9.87667611672947"><ele>404.99999999999994</ele><time>2026-03-28T14:11:14Z</time></trkpt><trkpt lat="45.66147225023864" lon="9.87657456011482"><ele>405.0</ele><time>2026-03-28T14:11:15Z</time></trkpt><trkpt lat="45.661475470618846" lon="9.876397534161043"><ele>400.2</ele><time>2026-03-28T14:11:17Z</time></trkpt><trkpt lat="45.66148934493926" lon="9.876309231311577"><ele>395.4</ele><time>2026-03-28T14:11:18Z</time></trkpt><trkpt lat="45.66156661924273" lon="9.8761789013943"><ele>390.6</ele><time>2026-03-28T14:11:20Z</time></trkpt><trkpt lat="45.66165229418451" lon="9.876075714423616"><ele>385.8</ele><time>2026-03-28T14:11:22Z</time></trkpt><trkpt lat="45.66172786617723" lon="9.87602419970457"><ele>381.0</ele><time>2026-03-28T14:11:24Z</time></trkpt><trkpt lat="45.6618157852167" lon="9.875965424389783"><ele>384.6</ele><time>2026-03-28T14:11:25Z</time></trkpt><trkpt lat="45.661889697955665" lon="9.875793058166433"><ele>388.20000000000005</ele><time>2026-03-28T14:11:26Z</time></trkpt><trkpt lat="45.66193906232559" lon="9.875708394364416"><ele>391.79999999999995</ele><time>2026-03-28T14:11:27Z</time></trkpt><trkpt lat="45.66195704099352" lon="9.87553600453886"><ele>395.4</ele><time>2026-03-28T14:11:28Z</time></trkpt><trkpt lat="45.662022573779765" lon="9.875440509702981"><ele>399.0</ele><time>2026-03-28T14:11:29Z</time></trkpt><trkpt lat="45.66210652282511" lon="9.875418796205256"><ele>399.0</ele><time>2026-03-28T14:11:30Z</time></trkpt><trkpt lat="45.662186351614835" lon="9.875357729930354"><ele>399.0</ele><time>2026-03-28T14:11:31Z</time></trkpt><trkpt lat="45.66226157624316" lon="9.875323266244424"><ele>399.0</ele><time>2026-03-28T14:11:32Z</time></trkpt><trkpt lat="45.66237992358374" lon="9.875286377713827"><ele>399.0</ele><time>2026-03-28T14:11:34Z</time></trkpt><trkpt lat="45.662473311436635" lon="9.875193450390121"><ele>399.0</ele><time>2026-03-28T14:11:36Z</time></trkpt><trkpt lat="45.662531141856654" lon="9.875121684992545"><ele>398.0</ele><time>2026-03-28T14:11:38Z</time></trkpt><trkpt lat="45.66259352964854" lon="9.875075126369392"><ele>397.0</ele><time>2026-03-28T14:11:41Z</time></trkpt><trkpt lat="45.662654433582766" lon="9.875040715484472"><ele>396.0</ele><time>2026-03-28T14:11:42Z</time></trkpt><trkpt lat="45.662750212733734" lon="9.875030517102921"><ele>395.0</ele><time>2026-03-28T14:11:43Z</time></trkpt><trkpt lat="45.66285099317102" lon="9.874994457933344"><ele>394.0</ele><time>2026-03-28T14:11:45Z</time></trkpt><trkpt lat="45.66289890982035" lon="9.87492445170389"><ele>393.0</ele><time>2026-03-28T14:11:46Z</time></trkpt><trkpt lat="45.66297007302051" lon="9.874883539073243"><ele>393.0</ele><time>2026-03-28T14:11:47Z</time></trkpt><trkpt lat="45.6630885906735" lon="9.87488979152169"><ele>393.0</ele><time>2026-03-28T14:11:49Z</time></trkpt><trkpt lat="45.66314778575135" lon="9.874852341923171"><ele>393.0</ele><time>2026-03-28T14:11:50Z</time></trkpt><trkpt lat="45.66321840952067" lon="9.874765781744859"><ele>393.0</ele><time>2026-03-28T14:11:51Z</time></trkpt><trkpt lat="45.66328311871026" lon="9.874678992111315"><ele>393.0</ele><time>2026-03-28T14:11:52Z</time></trkpt><trkpt lat="45.66334253779528" lon="9.874629659246432"><ele>393.0</ele><time>2026-03-28T14:11:53Z</time></trkpt><trkpt lat="45.66344167502808" lon="9.874643334188173"><ele>393.0</ele><time>2026-03-28T14:11:55Z</time></trkpt><trkpt lat="45.663558263642024" lon="9.874677805742067"><ele>393.0</ele><time>2026-03-28T14:11:57Z</time></trkpt><trkpt lat="45.66362532150598" lon="9.874721620956311"><ele>393.0</ele><time>2026-03-28T14:11:58Z</time></trkpt><trkpt lat="45.66369024296583" lon="9.874770621807333"><ele>393.0</ele><time>2026-03-28T14:11:59Z</time></trkpt><trkpt lat="45.663786263038546" lon="9.874867417047964"><ele>393.0</ele><time>2026-03-28T14:12:01Z</time></trkpt><trkpt lat="45.66385367729507" lon="9.874824018622162"><ele>395.3333333333333</ele><time>2026-03-28T14:12:04Z</time></trkpt><trkpt lat="45.66393730411784" lon="9.874776167152044"><ele>397.66666666666663</ele><time>2026-03-28T14:12:06Z</time></trkpt><trkpt lat="45.664023274752644" lon="9.874668565063532"><ele>400.0</ele><time>2026-03-28T14:12:08Z</time></trkpt><trkpt lat="45.66409753157774" lon="9.874617216086646"><ele>402.3333333333333</ele><time>2026-03-28T14:12:10Z</time></trkpt><trkpt lat="45.66415466841505" lon="9.874578197173394"><ele>404.66666666666663</ele><time>2026-03-28T14:12:13Z</time></trkpt><trkpt lat="45.664247489524534" lon="9.874542519195122"><ele>407.0</ele><time>2026-03-28T14:13:14Z</time></trkpt><trkpt lat="45.66431256845073" lon="9.874472194652208"><ele>406.99999999999994</ele><time>2026-03-28T14:13:19Z</time></trkpt><trkpt lat="45.66433310342628" lon="9.874386900155253"><ele>407.0</ele><time>2026-03-28T14:13:22Z</time></trkpt><trkpt lat="45.66437780269597" lon="9.874318532829967"><ele>407.0</ele><time>2026-03-28T14:13:27Z</time></trkpt><trkpt lat="45.664350772572675" lon="9.874425592113774"><ele>407.0</ele><time>2026-03-28T14:14:13Z</time></trkpt><trkpt lat="45.66430184334148" lon="9.874512787591428"><ele>406.99999999999994</ele><time>2026-03-28T14:14:17Z</time></trkpt><trkpt lat="45.66423695034154" lon="9.874561356148806"><ele>407.0</ele><time>2026-03-28T14:14:23Z</time></trkpt><trkpt lat="45.6643268357602" lon="9.874435991501985"><ele>407.00000000000006</ele><time>2026-03-28T14:14:40Z</time></trkpt><trkpt lat="45.66435493661319" lon="9.874354561817487"><ele>407.0</ele><time>2026-03-28T14:14:42Z</time></trkpt><trkpt lat="45.66441414179498" lon="9.874308592000109"><ele>407.0</ele><time>2026-03-28T14:14:45Z</time></trkpt><trkpt lat="45.6644581813485" lon="9.874373869291011"><ele>407.0</ele><time>2026-03-28T14:15:01Z</time></trkpt><trkpt lat="45.66452069065941" lon="9.87438488006441"><ele>407.0</ele><time>2026-03-28T14:15:20Z</time></trkpt><trkpt lat="45.66458083181797" lon="9.874420610456259"><ele>407.00000000000006</ele><time>2026-03-28T14:15:25Z</time></trkpt><trkpt lat="45.6646824862619" lon="9.874355077032458"><ele>407.0</ele><time>2026-03-28T14:19:00Z</time></trkpt><trkpt lat="45.664750820562986" lon="9.87438755325994"><ele>409.8333333333333</ele><time>2026-03-28T14:19:52Z</time></trkpt><trkpt lat="45.66480860742053" lon="9.874429079215194"><ele>412.66666666666663</ele><time>2026-03-28T14:19:57Z</time></trkpt><trkpt lat="45.66491303136151" lon="9.874478083456307"><ele>415.5</ele><time>2026-03-28T14:20:05Z</time></trkpt><trkpt lat="45.66497515299897" lon="9.8744449185122"><ele>418.33333333333337</ele><time>2026-03-28T14:20:13Z</time></trkpt><trkpt lat="45.66504268695577" lon="9.87443912237464"><ele>421.1666666666667</ele><time>2026-03-28T14:20:15Z</time></trkpt><trkpt lat="45.66512059806284" lon="9.87440330332164"><ele>424.0</ele><time>2026-03-28T14:20:20Z</time></trkpt><trkpt lat="45.665174679136165" lon="9.874349440046466"><ele>424.00000000000006</ele><time>2026-03-28T14:20:23Z</time></trkpt><trkpt lat="45.66524130461951" lon="9.874326659248334"><ele>424.0</ele><time>2026-03-28T14:20:26Z</time></trkpt><trkpt lat="45.66538375010888" lon="9.874267388730994"><ele>424.0</ele><time>2026-03-28T14:20:31Z</time></trkpt><trkpt lat="45.66546217166185" lon="9.874243812348084"><ele>424.0</ele><time>2026-03-28T14:20:34Z</time></trkpt><trkpt lat="45.66554051651952" lon="9.874214078681842"><ele>424.00000000000006</ele><time>2026-03-28T14:20:36Z</time></trkpt><trkpt lat="45.66560957076753" lon="9.87418983581682"><ele>424.0</ele><time>2026-03-28T14:20:39Z</time></trkpt><trkpt lat="45.66567330302725" lon="9.874162901891223"><ele>422.83333333333337</ele><time>2026-03-28T14:20:41Z</time></trkpt><trkpt lat="45.66579173344695" lon="9.874101104659728"><ele>421.6666666666667</ele><time>2026-03-28T14:20:46Z</time></trkpt><trkpt lat="45.66586567985806" lon="9.874070802448594"><ele>420.5</ele><time>2026-03-28T14:20:48Z</time></trkpt><trkpt lat="45.665925911526905" lon="9.874028143104514"><ele>419.33333333333337</ele><time>2026-03-28T14:20:50.999Z</time></trkpt><trkpt lat="45.66600392032459" lon="9.874055591307352"><ele>418.1666666666667</ele><time>2026-03-28T14:20:55.999Z</time></trkpt><trkpt lat="45.66609174441993" lon="9.874057890046576"><ele>417.0</ele><time>2026-03-28T14:21:11Z</time></trkpt><trkpt lat="45.66619012434678" lon="9.874062530856289"><ele>417.0</ele><time>2026-03-28T14:21:22Z</time></trkpt><trkpt lat="45.66629200966514" lon="9.874122515978978"><ele>417.0</ele><time>2026-03-28T14:25:49Z</time></trkpt><trkpt lat="45.66639810761686" lon="9.874251386331634"><ele>417.0</ele><time>2026-03-28T14:27:40Z</time></trkpt><trkpt lat="45.666468393365776" lon="9.874308676598103"><ele>417.0</ele><time>2026-03-28T14:27:43Z</time></trkpt><trkpt lat="45.666556530128695" lon="9.874345047853135"><ele>417.0</ele><time>2026-03-28T14:27:46Z</time></trkpt><trkpt lat="45.666621646690324" lon="9.874371862831433"><ele>421.20000000000005</ele><time>2026-03-28T14:27:49Z</time></trkpt><trkpt lat="45.66672998697668" lon="9.874413636650027"><ele>425.4</ele><time>2026-03-28T14:27:52Z</time></trkpt><trkpt lat="45.66680396602529" lon="9.874431208808565"><ele>429.59999999999997</ele><time>2026-03-28T14:27:53Z</time></trkpt><trkpt lat="45.66686981448108" lon="9.874462411021346"><ele>433.79999999999995</ele><time>2026-03-28T14:27:55Z</time></trkpt><trkpt lat="45.666933168619174" lon="9.874489990388646"><ele>438.0</ele><time>2026-03-28T14:27:57Z</time></trkpt><trkpt lat="45.66707123979096" lon="9.87455931496491"><ele>438.0</ele><time>2026-03-28T14:28:19Z</time></trkpt><trkpt lat="45.66715087062827" lon="9.874576387443073"><ele>438.0</ele><time>2026-03-28T14:29:34Z</time></trkpt><trkpt lat="45.66723050353709" lon="9.874579072952487"><ele>438.0</ele><time>2026-03-28T14:29:57Z</time></trkpt><trkpt lat="45.66733112716458" lon="9.874591723623547"><ele>438.0</ele><time>2026-03-28T14:30:14Z</time></trkpt><trkpt lat="45.667383256257025" lon="9.87465798366815"><ele>438.0</ele><time>2026-03-28T14:33:34Z</time></trkpt><trkpt lat="45.667400171658265" lon="9.874746509493882"><ele>438.0</ele><time>2026-03-28T14:33:37Z</time></trkpt><trkpt lat="45.66748792736909" lon="9.874948781064246"><ele>438.0</ele><time>2026-03-28T14:33:49Z</time></trkpt><trkpt lat="45.66753005498968" lon="9.875038666142684"><ele>438.0</ele><time>2026-03-28T14:33:52Z</time></trkpt><trkpt lat="45.667581019432355" lon="9.875131435867791"><ele>438.0</ele><time>2026-03-28T14:33:54Z</time></trkpt><trkpt lat="45.6676215834279" lon="9.87523177022669"><ele>438.0</ele><time>2026-03-28T14:33:59Z</time></trkpt><trkpt lat="45.66761944407502" lon="9.875330925601592"><ele>438.0</ele><time>2026-03-28T14:34:01Z</time></trkpt><trkpt lat="45.667646084640126" lon="9.87541923169457"><ele>438.0</ele><time>2026-03-28T14:34:03Z</time></trkpt><trkpt lat="45.667691038843465" lon="9.875515097064794"><ele>439.42857142857144</ele><time>2026-03-28T14:34:13Z</time></trkpt><trkpt lat="45.66770291315435" lon="9.87560447526371"><ele>440.85714285714283</ele><time>2026-03-28T14:34:15Z</time></trkpt><trkpt lat="45.66773859063361" lon="9.875710468762568"><ele>442.2857142857143</ele><time>2026-03-28T14:34:19Z</time></trkpt><trkpt lat="45.667760168127224" lon="9.87581769206917"><ele>443.7142857142857</ele><time>2026-03-28T14:34:22Z</time></trkpt><trkpt lat="45.667738548466545" lon="9.875726805665163"><ele>445.1428571428571</ele><time>2026-03-28T14:35:12Z</time></trkpt><trkpt lat="45.66771600691892" lon="9.875637820458284"><ele>446.57142857142856</ele><time>2026-03-28T14:35:15Z</time></trkpt><trkpt lat="45.667667819192026" lon="9.875526989785882"><ele>448.0</ele><time>2026-03-28T14:35:19Z</time></trkpt><trkpt lat="45.66763634099772" lon="9.875427157152156"><ele>448.00000000000006</ele><time>2026-03-28T14:35:21Z</time></trkpt><trkpt lat="45.667598333940425" lon="9.87529606145782"><ele>448.0</ele><time>2026-03-28T14:35:24Z</time></trkpt><trkpt lat="45.66759654153412" lon="9.875198990294457"><ele>448.0</ele><time>2026-03-28T14:35:27Z</time></trkpt><trkpt lat="45.66754308340639" lon="9.875114436794888"><ele>448.0</ele><time>2026-03-28T14:35:31Z</time></trkpt><trkpt lat="45.66750317092536" lon="9.875022333356016"><ele>448.00000000000006</ele><time>2026-03-28T14:35:34Z</time></trkpt><trkpt lat="45.66745971565917" lon="9.874956874733355"><ele>448.0</ele><time>2026-03-28T14:35:36Z</time></trkpt><trkpt lat="45.667437081015635" lon="9.87485347373154"><ele>446.57142857142856</ele><time>2026-03-28T14:35:40Z</time></trkpt><trkpt lat="45.66738936685606" lon="9.874760282033439"><ele>445.1428571428571</ele><time>2026-03-28T14:35:44Z</time></trkpt><trkpt lat="45.66737954532323" lon="9.874669061432297"><ele>443.7142857142857</ele><time>2026-03-28T14:35:48Z</time></trkpt><trkpt lat="45.66733124615616" lon="9.874609098001773"><ele>442.2857142857143</ele><time>2026-03-28T14:35:51Z</time></trkpt><trkpt lat="45.667332610872066" lon="9.87451060374013"><ele>440.85714285714283</ele><time>2026-03-28T14:36:04Z</time></trkpt><trkpt lat="45.6673953179438" lon="9.874559502225557"><ele>439.42857142857144</ele><time>2026-03-28T14:37:50Z</time></trkpt><trkpt lat="45.66740881530274" lon="9.87465916783316"><ele>438.0</ele><time>2026-03-28T14:37:53Z</time></trkpt><trkpt lat="45.6674252996601" lon="9.874756124345158"><ele>438.0</ele><time>2026-03-28T14:37:56Z</time></trkpt><trkpt lat="45.66747683700116" lon="9.874815083357083"><ele>438.0</ele><time>2026-03-28T14:38:01.999Z</time></trkpt><trkpt lat="45.667528149750495" lon="9.874886409682944"><ele>438.0</ele><time>2026-03-28T14:38:05.999Z</time></trkpt><trkpt lat="45.667544013876345" lon="9.875000515302919"><ele>438.0</ele><time>2026-03-28T14:38:08.999Z</time></trkpt><trkpt lat="45.66757509049659" lon="9.875079867786365"><ele>438.0</ele><time>2026-03-28T14:38:11.999Z</time></trkpt><trkpt lat="45.66762616064849" lon="9.875152310209764"><ele>438.0</ele><time>2026-03-28T14:38:16Z</time></trkpt><trkpt lat="45.6676362393374" lon="9.875263653879925"><ele>438.0</ele><time>2026-03-28T14:38:20Z</time></trkpt><trkpt lat="45.66762919512456" lon="9.875360811841238"><ele>439.6666666666667</ele><time>2026-03-28T14:50:10Z</time></trkpt><trkpt lat="45.66765556754626" lon="9.8754551058216"><ele>441.33333333333337</ele><time>2026-03-28T14:50:12Z</time></trkpt><trkpt lat="45.667690013648325" lon="9.875564767597062"><ele>443.0</ele><time>2026-03-28T14:50:15Z</time></trkpt><trkpt lat="45.66769809073717" lon="9.875655697309362"><ele>444.6666666666667</ele><time>2026-03-28T14:50:17Z</time></trkpt><trkpt lat="45.66774277199417" lon="9.875758254753059"><ele>446.33333333333337</ele><time>2026-03-28T14:50:20Z</time></trkpt><trkpt lat="45.66778239237923" lon="9.875887613798888"><ele>448.0</ele><time>2026-03-28T14:50:23Z</time></trkpt><trkpt lat="45.66782347292963" lon="9.876016187080609"><ele>450.42857142857144</ele><time>2026-03-28T14:50:26Z</time></trkpt><trkpt lat="45.667865793536166" lon="9.87609532181915"><ele>452.8571428571429</ele><time>2026-03-28T14:50:28Z</time></trkpt><trkpt lat="45.66790223430811" lon="9.876195084151878"><ele>455.2857142857143</ele><time>2026-03-28T14:50:31Z</time></trkpt><trkpt lat="45.66795438866121" lon="9.876253802265893"><ele>457.7142857142857</ele><time>2026-03-28T14:50:33.999Z</time></trkpt><trkpt lat="45.66800998939169" lon="9.87620874944504"><ele>460.14285714285717</ele><time>2026-03-28T14:51:42Z</time></trkpt><trkpt lat="45.66806598663435" lon="9.876139282492684"><ele>462.57142857142856</ele><time>2026-03-28T14:51:56Z</time></trkpt><trkpt lat="45.66815592876978" lon="9.876098791440798"><ele>465.0</ele><time>2026-03-28T14:52:12Z</time></trkpt><trkpt lat="45.66824324552467" lon="9.876068549088412"><ele>465.0</ele><time>2026-03-28T14:55:17Z</time></trkpt><trkpt lat="45.66817574271275" lon="9.876134492040817"><ele>465.0</ele><time>2026-03-28T14:56:39Z</time></trkpt><trkpt lat="45.66811281291544" lon="9.87614621799649"><ele>465.0</ele><time>2026-03-28T14:56:46Z</time></trkpt><trkpt lat="45.66804800801919" lon="9.876190382396837"><ele>465.0</ele><time>2026-03-28T14:56:54Z</time></trkpt><trkpt lat="45.66798683631902" lon="9.87623892431297"><ele>465.0</ele><time>2026-03-28T14:57:03Z</time></trkpt><trkpt lat="45.66805923037274" lon="9.87614476483762"><ele>465.0</ele><time>2026-03-28T14:57:50Z</time></trkpt><trkpt lat="45.668117070940056" lon="9.876101481046396"><ele>465.0</ele><time>2026-03-28T14:57:53Z</time></trkpt><trkpt lat="45.66817995557266" lon="9.87606340858536"><ele>465.0</ele><time>2026-03-28T14:57:59Z</time></trkpt><trkpt lat="45.66826736003088" lon="9.876069262718737"><ele>465.0</ele><time>2026-03-28T14:58:25Z</time></trkpt><trkpt lat="45.66831574136488" lon="9.876010648314976"><ele>465.0</ele><time>2026-03-28T15:01:08Z</time></trkpt><trkpt lat="45.668274705205896" lon="9.875929796346407"><ele>465.0</ele><time>2026-03-28T15:03:47Z</time></trkpt><trkpt lat="45.668248013042884" lon="9.875777377964798"><ele>465.0</ele><time>2026-03-28T15:03:49Z</time></trkpt><trkpt lat="45.66823864992536" lon="9.87568685049628"><ele>465.0</ele><time>2026-03-28T15:03:50Z</time></trkpt><trkpt lat="45.66821399694575" lon="9.875513868951488"><ele>465.0</ele><time>2026-03-28T15:03:52Z</time></trkpt><trkpt lat="45.66819831695823" lon="9.875426085459505"><ele>465.0</ele><time>2026-03-28T15:03:53Z</time></trkpt><trkpt lat="45.66821845979478" lon="9.875243714849647"><ele>465.0</ele><time>2026-03-28T15:03:55Z</time></trkpt><trkpt lat="45.66824905565979" lon="9.875151598980551"><ele>465.0</ele><time>2026-03-28T15:03:56Z</time></trkpt><trkpt lat="45.6682982040559" lon="9.875073524890956"><ele>464.5</ele><time>2026-03-28T15:03:57Z</time></trkpt><trkpt lat="45.668366080036854" lon="9.875015130582828"><ele>464.0</ele><time>2026-03-28T15:03:58Z</time></trkpt><trkpt lat="45.668439276452396" lon="9.874946933802148"><ele>463.5</ele><time>2026-03-28T15:03:59Z</time></trkpt><trkpt lat="45.66850293431035" lon="9.874890523950254"><ele>463.0</ele><time>2026-03-28T15:04:00Z</time></trkpt><trkpt lat="45.668546590011644" lon="9.874788137204776"><ele>462.5</ele><time>2026-03-28T15:04:01Z</time></trkpt><trkpt lat="45.668560415889004" lon="9.87466360121322"><ele>462.0</ele><time>2026-03-28T15:04:02Z</time></trkpt><trkpt lat="45.668559565518464" lon="9.87454680248184"><ele>462.0</ele><time>2026-03-28T15:04:03Z</time></trkpt><trkpt lat="45.66855383525673" lon="9.874446624944868"><ele>462.0</ele><time>2026-03-28T15:04:04Z</time></trkpt><trkpt lat="45.668544946143236" lon="9.87435731797861"><ele>462.0</ele><time>2026-03-28T15:04:05Z</time></trkpt><trkpt lat="45.66852184528325" lon="9.874270106074077"><ele>462.0</ele><time>2026-03-28T15:04:06Z</time></trkpt><trkpt lat="45.66846490019036" lon="9.874139758023409"><ele>462.0</ele><time>2026-03-28T15:04:08Z</time></trkpt><trkpt lat="45.66842239619946" lon="9.874064440525018"><ele>462.0</ele><time>2026-03-28T15:04:09Z</time></trkpt><trkpt lat="45.668388083165205" lon="9.873986540373577"><ele>462.0</ele><time>2026-03-28T15:04:10Z</time></trkpt><trkpt lat="45.66831308780797" lon="9.8738722469032"><ele>461.8</ele><time>2026-03-28T15:04:12Z</time></trkpt><trkpt lat="45.66825659752765" lon="9.873708943007077"><ele>461.6</ele><time>2026-03-28T15:04:14Z</time></trkpt><trkpt lat="45.66821872199323" lon="9.873636779187825"><ele>461.40000000000003</ele><time>2026-03-28T15:04:15Z</time></trkpt><trkpt lat="45.66814314134678" lon="9.873518048819546"><ele>461.20000000000005</ele><time>2026-03-28T15:04:17Z</time></trkpt><trkpt lat="45.66806149406987" lon="9.873387480223894"><ele>461.0</ele><time>2026-03-28T15:04:19Z</time></trkpt><trkpt lat="45.66801326956636" lon="9.873255447787853"><ele>460.99999999999994</ele><time>2026-03-28T15:04:21Z</time></trkpt><trkpt lat="45.66803301508638" lon="9.873107163993707"><ele>461.0</ele><time>2026-03-28T15:04:23Z</time></trkpt><trkpt lat="45.668041597386534" lon="9.873013000993707"><ele>461.0</ele><time>2026-03-28T15:04:24Z</time></trkpt><trkpt lat="45.66805248425949" lon="9.87285636912865"><ele>461.0</ele><time>2026-03-28T15:04:26Z</time></trkpt><trkpt lat="45.66804709010572" lon="9.872764268785138"><ele>460.99999999999994</ele><time>2026-03-28T15:04:27Z</time></trkpt><trkpt lat="45.66800905739713" lon="9.87268199372431"><ele>461.0</ele><time>2026-03-28T15:04:28Z</time></trkpt><trkpt lat="45.667952284885665" lon="9.872571173030634"><ele>461.66666666666663</ele><time>2026-03-28T15:04:30Z</time></trkpt><trkpt lat="45.66793037405964" lon="9.87241671922935"><ele>462.3333333333333</ele><time>2026-03-28T15:04:32Z</time></trkpt><trkpt lat="45.667933564299744" lon="9.87232156440658"><ele>463.0</ele><time>2026-03-28T15:04:33Z</time></trkpt><trkpt lat="45.66793645699095" lon="9.87222997983792"><ele>463.66666666666663</ele><time>2026-03-28T15:04:34Z</time></trkpt><trkpt lat="45.667925582076215" lon="9.872115714608785"><ele>464.3333333333333</ele><time>2026-03-28T15:04:35Z</time></trkpt><trkpt lat="45.66790125318713" lon="9.871997055153637"><ele>465.0</ele><time>2026-03-28T15:04:36Z</time></trkpt><trkpt lat="45.667880755069476" lon="9.871877355280372"><ele>465.0</ele><time>2026-03-28T15:04:37Z</time></trkpt><trkpt lat="45.66785157271251" lon="9.871773658539457"><ele>465.0</ele><time>2026-03-28T15:04:38Z</time></trkpt><trkpt lat="45.66783028886535" lon="9.871681355032283"><ele>465.0</ele><time>2026-03-28T15:04:39Z</time></trkpt><trkpt lat="45.66779911095801" lon="9.871575984631638"><ele>465.0</ele><time>2026-03-28T15:04:40Z</time></trkpt><trkpt lat="45.667775352000476" lon="9.871490675211227"><ele>465.0</ele><time>2026-03-28T15:04:41Z</time></trkpt><trkpt lat="45.667733206441056" lon="9.871398597676553"><ele>465.0</ele><time>2026-03-28T15:04:42Z</time></trkpt><trkpt lat="45.66763316468295" lon="9.871279800503117"><ele>464.0</ele><time>2026-03-28T15:04:44Z</time></trkpt><trkpt lat="45.667571700366814" lon="9.871249458316413"><ele>463.0</ele><time>2026-03-28T15:04:45Z</time></trkpt><trkpt lat="45.6675050018201" lon="9.871219497455499"><ele>462.0</ele><time>2026-03-28T15:04:46Z</time></trkpt><trkpt lat="45.66743159463904" lon="9.871196539034164"><ele>461.0</ele><time>2026-03-28T15:04:47Z</time></trkpt><trkpt lat="45.66733327520658" lon="9.871153797702025"><ele>460.0</ele><time>2026-03-28T15:04:49Z</time></trkpt><trkpt lat="45.66725691266822" lon="9.871190314196568"><ele>459.0</ele><time>2026-03-28T15:04:50Z</time></trkpt><trkpt lat="45.66717982398739" lon="9.871186730676865"><ele>459.0</ele><time>2026-03-28T15:04:51Z</time></trkpt><trkpt lat="45.66711131210573" lon="9.871232300589151"><ele>459.0</ele><time>2026-03-28T15:04:52Z</time></trkpt><trkpt lat="45.66696353509206" lon="9.871231355295558"><ele>459.0</ele><time>2026-03-28T15:04:54Z</time></trkpt><trkpt lat="45.66689043240613" lon="9.871211807981911"><ele>459.0</ele><time>2026-03-28T15:04:55Z</time></trkpt><trkpt lat="45.666787526797044" lon="9.87111383165414"><ele>459.0</ele><time>2026-03-28T15:04:57Z</time></trkpt><trkpt lat="45.666717567030766" lon="9.871034863110898"><ele>458.28571428571433</ele><time>2026-03-28T15:04:59Z</time></trkpt><trkpt lat="45.66670821485186" lon="9.870929628625213"><ele>457.57142857142856</ele><time>2026-03-28T15:05:01Z</time></trkpt><trkpt lat="45.66671839867444" lon="9.870837463416313"><ele>456.8571428571429</ele><time>2026-03-28T15:05:04Z</time></trkpt><trkpt lat="45.66673660197956" lon="9.870744349201265"><ele>456.14285714285717</ele><time>2026-03-28T15:05:06Z</time></trkpt><trkpt lat="45.66674062245824" lon="9.87062655144018"><ele>455.42857142857144</ele><time>2026-03-28T15:05:09Z</time></trkpt><trkpt lat="45.66674451012633" lon="9.870498051025752"><ele>454.7142857142857</ele><time>2026-03-28T15:05:12Z</time></trkpt><trkpt lat="45.66673923897304" lon="9.870407175105422"><ele>454.0</ele><time>2026-03-28T15:05:14Z</time></trkpt><trkpt lat="45.66673709076971" lon="9.870306521844531"><ele>454.00000000000006</ele><time>2026-03-28T15:05:17Z</time></trkpt><trkpt lat="45.666758396955196" lon="9.87018610000411"><ele>454.0</ele><time>2026-03-28T15:05:20Z</time></trkpt><trkpt lat="45.66677221643075" lon="9.870096361594213"><ele>454.0</ele><time>2026-03-28T15:05:22Z</time></trkpt><trkpt lat="45.66677750770238" lon="9.870003863205111"><ele>454.0</ele><time>2026-03-28T15:05:24Z</time></trkpt><trkpt lat="45.666808322855324" lon="9.86988169207617"><ele>454.00000000000006</ele><time>2026-03-28T15:05:26Z</time></trkpt><trkpt lat="45.66676852995946" lon="9.869759605724113"><ele>454.0</ele><time>2026-03-28T15:05:28Z</time></trkpt><trkpt lat="45.66675759166454" lon="9.869660318315251"><ele>454.1666666666667</ele><time>2026-03-28T15:05:31Z</time></trkpt><trkpt lat="45.66675297438907" lon="9.869563636706545"><ele>454.33333333333337</ele><time>2026-03-28T15:05:34Z</time></trkpt><trkpt lat="45.66672709602847" lon="9.869475265776869"><ele>454.5</ele><time>2026-03-28T15:05:37Z</time></trkpt><trkpt lat="45.666692666148926" lon="9.869353844994754"><ele>454.66666666666663</ele><time>2026-03-28T15:05:40Z</time></trkpt><trkpt lat="45.66670652061643" lon="9.869225844659244"><ele>454.8333333333333</ele><time>2026-03-28T15:05:43Z</time></trkpt><trkpt lat="45.66669541405139" lon="9.869128515445604"><ele>455.0</ele><time>2026-03-28T15:05:45Z</time></trkpt><trkpt lat="45.66662699817384" lon="9.869073703041428"><ele>455.0</ele><time>2026-03-28T15:05:47Z</time></trkpt><trkpt lat="45.666555341090366" lon="9.869041289798984"><ele>455.0</ele><time>2026-03-28T15:05:50Z</time></trkpt><trkpt lat="45.66648621174254" lon="9.86906194251284"><ele>455.0</ele><time>2026-03-28T15:05:52Z</time></trkpt><trkpt lat="45.666403483435985" lon="9.869089399438177"><ele>455.0</ele><time>2026-03-28T15:05:54Z</time></trkpt><trkpt lat="45.666324602086625" lon="9.869052561707488"><ele>455.0</ele><time>2026-03-28T15:05:56Z</time></trkpt><trkpt lat="45.66610150437715" lon="9.869014905941121"><ele>453.6</ele><time>2026-03-28T15:05:58Z</time></trkpt><trkpt lat="45.6659916815298" lon="9.86898623258223"><ele>452.2</ele><time>2026-03-28T15:06:00Z</time></trkpt><trkpt lat="45.66591829701861" lon="9.868918436544856"><ele>450.79999999999995</ele><time>2026-03-28T15:06:02Z</time></trkpt><trkpt lat="45.66584597201673" lon="9.868922891278462"><ele>449.4</ele><time>2026-03-28T15:06:04Z</time></trkpt><trkpt lat="45.66576010868728" lon="9.86900739741007"><ele>448.0</ele><time>2026-03-28T15:06:06Z</time></trkpt><trkpt lat="45.66569715555451" lon="9.869076809062912"><ele>448.0</ele><time>2026-03-28T15:06:08Z</time></trkpt><trkpt lat="45.66562423881979" lon="9.869140253991477"><ele>447.99999999999994</ele><time>2026-03-28T15:06:11Z</time></trkpt><trkpt lat="45.665531605822714" lon="9.869148595381155"><ele>447.99999999999994</ele><time>2026-03-28T15:06:14Z</time></trkpt><trkpt lat="45.66545265297705" lon="9.869150083510647"><ele>448.0</ele><time>2026-03-28T15:06:16Z</time></trkpt><trkpt lat="45.665320022130636" lon="9.869194671247428"><ele>448.0</ele><time>2026-03-28T15:06:18Z</time></trkpt><trkpt lat="45.66523420068345" lon="9.869216232870054"><ele>446.6666666666667</ele><time>2026-03-28T15:06:21Z</time></trkpt><trkpt lat="45.66516863426544" lon="9.86921012872277"><ele>445.33333333333337</ele><time>2026-03-28T15:06:29Z</time></trkpt><trkpt lat="45.66507894115453" lon="9.869170164673987"><ele>444.0</ele><time>2026-03-28T15:06:32Z</time></trkpt><trkpt lat="45.6649929178638" lon="9.86909868277912"><ele>442.66666666666663</ele><time>2026-03-28T15:06:36Z</time></trkpt><trkpt lat="45.66493528097713" lon="9.86903390801416"><ele>441.3333333333333</ele><time>2026-03-28T15:06:39Z</time></trkpt><trkpt lat="45.664869095941675" lon="9.868946088041165"><ele>440.0</ele><time>2026-03-28T15:06:42Z</time></trkpt><trkpt lat="45.664821165141866" lon="9.868883358460446"><ele>439.99999999999994</ele><time>2026-03-28T15:06:44Z</time></trkpt><trkpt lat="45.66475025979749" lon="9.868805630052268"><ele>440.0</ele><time>2026-03-28T15:06:46Z</time></trkpt><trkpt lat="45.664694256317446" lon="9.868743729350271"><ele>440.0</ele><time>2026-03-28T15:06:48Z</time></trkpt><trkpt lat="45.66464236975245" lon="9.86863765323488"><ele>440.0</ele><time>2026-03-28T15:06:51Z</time></trkpt><trkpt lat="45.66458441087072" lon="9.868566598265655"><ele>439.99999999999994</ele><time>2026-03-28T15:06:53Z</time></trkpt><trkpt lat="45.66451049506368" lon="9.868537034561669"><ele>440.0</ele><time>2026-03-28T15:06:56Z</time></trkpt><trkpt lat="45.66446061411588" lon="9.868479751124871"><ele>441.16666666666663</ele><time>2026-03-28T15:06:58Z</time></trkpt><trkpt lat="45.664387881516824" lon="9.868400706949949"><ele>442.3333333333333</ele><time>2026-03-28T15:07:00Z</time></trkpt><trkpt lat="45.66431307014944" lon="9.868298784505681"><ele>443.5</ele><time>2026-03-28T15:07:04Z</time></trkpt><trkpt lat="45.66426793860714" lon="9.868227389745217"><ele>444.66666666666663</ele><time>2026-03-28T15:07:06Z</time></trkpt><trkpt lat="45.66419953243403" lon="9.86811955451276"><ele>445.8333333333333</ele><time>2026-03-28T15:07:09Z</time></trkpt><trkpt lat="45.664144444395795" lon="9.868048594407403"><ele>447.0</ele><time>2026-03-28T15:07:11Z</time></trkpt><trkpt lat="45.66405909651263" lon="9.868022699547025"><ele>447.0</ele><time>2026-03-28T15:07:14Z</time></trkpt><trkpt lat="45.66401683967376" lon="9.867951105467107"><ele>447.0</ele><time>2026-03-28T15:07:16Z</time></trkpt><trkpt lat="45.66396765941343" lon="9.867893500351926"><ele>447.0</ele><time>2026-03-28T15:07:18Z</time></trkpt><trkpt lat="45.6638702361961" lon="9.867870108663235"><ele>447.0</ele><time>2026-03-28T15:07:22Z</time></trkpt><trkpt lat="45.66377569887603" lon="9.867844137157194"><ele>447.0</ele><time>2026-03-28T15:07:25Z</time></trkpt><trkpt lat="45.66370544032595" lon="9.867829993609488"><ele>447.0</ele><time>2026-03-28T15:07:27Z</time></trkpt><trkpt lat="45.66361283811559" lon="9.867811868322338"><ele>448.8333333333333</ele><time>2026-03-28T15:07:30Z</time></trkpt><trkpt lat="45.66356287718395" lon="9.867750528733566"><ele>450.66666666666663</ele><time>2026-03-28T15:07:33Z</time></trkpt><trkpt lat="45.66347907851576" lon="9.867703872639568"><ele>452.5</ele><time>2026-03-28T15:07:36Z</time></trkpt><trkpt lat="45.66339003981731" lon="9.867622951702979"><ele>454.3333333333333</ele><time>2026-03-28T15:07:38Z</time></trkpt><trkpt lat="45.66329849542334" lon="9.867595315618525"><ele>456.16666666666663</ele><time>2026-03-28T15:07:40Z</time></trkpt><trkpt lat="45.66322918755383" lon="9.867542797354993"><ele>458.0</ele><time>2026-03-28T15:07:42Z</time></trkpt><trkpt lat="45.66314389954069" lon="9.86751859838937"><ele>458.0</ele><time>2026-03-28T15:07:44Z</time></trkpt><trkpt lat="45.66306157736801" lon="9.867486188167744"><ele>457.99999999999994</ele><time>2026-03-28T15:07:46Z</time></trkpt><trkpt lat="45.66298646006216" lon="9.867388165403481"><ele>457.99999999999994</ele><time>2026-03-28T15:07:48Z</time></trkpt><trkpt lat="45.6629092376122" lon="9.867345505854862"><ele>458.0</ele><time>2026-03-28T15:07:50Z</time></trkpt><trkpt lat="45.66285901519071" lon="9.867265304162702"><ele>458.0</ele><time>2026-03-28T15:07:52Z</time></trkpt><trkpt lat="45.66277288793693" lon="9.867168688885329"><ele>456.3333333333333</ele><time>2026-03-28T15:07:54Z</time></trkpt><trkpt lat="45.66270036588764" lon="9.867157140709443"><ele>454.66666666666663</ele><time>2026-03-28T15:07:55Z</time></trkpt><trkpt lat="45.662629646862186" lon="9.867079679475284"><ele>453.0</ele><time>2026-03-28T15:07:57Z</time></trkpt><trkpt lat="45.662604480903596" lon="9.866980434346823"><ele>451.33333333333337</ele><time>2026-03-28T15:08:00Z</time></trkpt><trkpt lat="45.66256637981233" lon="9.866862367857763"><ele>449.6666666666667</ele><time>2026-03-28T15:08:52Z</time></trkpt><trkpt lat="45.66264791371677" lon="9.866824335744152"><ele>448.0</ele><time>2026-03-28T15:08:56Z</time></trkpt><trkpt lat="45.662765179628565" lon="9.866786700892593"><ele>451.4</ele><time>2026-03-28T15:09:00Z</time></trkpt><trkpt lat="45.662908276283616" lon="9.866761374216322"><ele>454.79999999999995</ele><time>2026-03-28T15:09:03Z</time></trkpt><trkpt lat="45.662991484305344" lon="9.866717946675939"><ele>458.2</ele><time>2026-03-28T15:09:06Z</time></trkpt><trkpt lat="45.66307176439481" lon="9.866705031657697"><ele>461.6</ele><time>2026-03-28T15:09:08Z</time></trkpt><trkpt lat="45.66314472851906" lon="9.866630447806871"><ele>465.0</ele><time>2026-03-28T15:09:12Z</time></trkpt><trkpt lat="45.66320109271758" lon="9.866582108599099"><ele>465.0</ele><time>2026-03-28T15:11:15Z</time></trkpt><trkpt lat="45.66327399146455" lon="9.866602490949614"><ele>465.0</ele><time>2026-03-28T15:11:17Z</time></trkpt><trkpt lat="45.6633567123971" lon="9.86664590195238"><ele>465.0</ele><time>2026-03-28T15:11:19Z</time></trkpt><trkpt lat="45.663438381262985" lon="9.866657983003176"><ele>465.0</ele><time>2026-03-28T15:11:21Z</time></trkpt><trkpt lat="45.66353806547637" lon="9.866660954691485"><ele>465.0</ele><time>2026-03-28T15:11:24Z</time></trkpt><trkpt lat="45.66362483238805" lon="9.866646591953293"><ele>465.0</ele><time>2026-03-28T15:11:27Z</time></trkpt><trkpt lat="45.66371553391296" lon="9.866647114916217"><ele>469.1666666666667</ele><time>2026-03-28T15:11:29Z</time></trkpt><trkpt lat="45.663803913656416" lon="9.866681323551855"><ele>473.33333333333337</ele><time>2026-03-28T15:11:31Z</time></trkpt><trkpt lat="45.66387707609774" lon="9.866658419737496"><ele>477.5</ele><time>2026-03-28T15:18:56Z</time></trkpt><trkpt lat="45.663935424504835" lon="9.866621132163836"><ele>481.6666666666667</ele><time>2026-03-28T15:18:59Z</time></trkpt><trkpt lat="45.664005894758475" lon="9.866640660168542"><ele>485.83333333333337</ele><time>2026-03-28T15:19:02Z</time></trkpt><trkpt lat="45.66409262299475" lon="9.86662672429183"><ele>490.0</ele><time>2026-03-28T15:19:04Z</time></trkpt><trkpt lat="45.66415517667699" lon="9.866638831688395"><ele>490.0</ele><time>2026-03-28T15:19:30Z</time></trkpt><trkpt lat="45.66422355031521" lon="9.86667579836791"><ele>490.0</ele><time>2026-03-28T15:23:06Z</time></trkpt><trkpt lat="45.664281942574334" lon="9.866622524828305"><ele>490.0</ele><time>2026-03-28T15:24:27Z</time></trkpt><trkpt lat="45.66434982704878" lon="9.866603798889003"><ele>490.0</ele><time>2026-03-28T15:25:01Z</time></trkpt><trkpt lat="45.66428656283001" lon="9.866673117799271"><ele>490.0</ele><time>2026-03-28T15:28:07Z</time></trkpt><trkpt lat="45.66422307889404" lon="9.866672655814138"><ele>490.0</ele><time>2026-03-28T15:28:11Z</time></trkpt><trkpt lat="45.66415664432053" lon="9.86667553246183"><ele>490.0</ele><time>2026-03-28T15:28:17Z</time></trkpt><trkpt lat="45.6642189248169" lon="9.86662343335949"><ele>490.00000000000006</ele><time>2026-03-28T15:29:03Z</time></trkpt><trkpt lat="45.66427880970224" lon="9.86665636568933"><ele>490.0</ele><time>2026-03-28T15:29:06Z</time></trkpt><trkpt lat="45.664336981344114" lon="9.866612975126221"><ele>490.0</ele><time>2026-03-28T15:29:09Z</time></trkpt><trkpt lat="45.66439633306255" lon="9.866655375358853"><ele>490.0</ele><time>2026-03-28T15:29:13Z</time></trkpt><trkpt lat="45.66448223668914" lon="9.86666331158716"><ele>490.00000000000006</ele><time>2026-03-28T15:29:16Z</time></trkpt><trkpt lat="45.66456289066854" lon="9.866690162519006"><ele>490.0</ele><time>2026-03-28T15:29:18Z</time></trkpt><trkpt lat="45.66464868752778" lon="9.866719932829831"><ele>493.83333333333337</ele><time>2026-03-28T15:29:21Z</time></trkpt><trkpt lat="45.66470323146523" lon="9.866674588713023"><ele>497.6666666666667</ele><time>2026-03-28T15:29:28Z</time></trkpt><trkpt lat="45.66475939123903" lon="9.866734890182292"><ele>501.5</ele><time>2026-03-28T15:31:40Z</time></trkpt><trkpt lat="45.66487331896948" lon="9.86671943323529"><ele>505.33333333333337</ele><time>2026-03-28T15:32:26Z</time></trkpt><trkpt lat="45.66493867561495" lon="9.866679932462153"><ele>509.1666666666667</ele><time>2026-03-28T15:32:29Z</time></trkpt><trkpt lat="45.6649975963917" lon="9.866627817280834"><ele>513.0</ele><time>2026-03-28T15:32:31Z</time></trkpt><trkpt lat="45.66504809299993" lon="9.8665605237825"><ele>513.0</ele><time>2026-03-28T15:32:33Z</time></trkpt><trkpt lat="45.66511904743243" lon="9.866475859744758"><ele>513.0</ele><time>2026-03-28T15:32:35Z</time></trkpt><trkpt lat="45.665181572091406" lon="9.866413932365969"><ele>513.0</ele><time>2026-03-28T15:32:37Z</time></trkpt><trkpt lat="45.66520198153495" lon="9.866268642443963"><ele>513.0</ele><time>2026-03-28T15:33:06Z</time></trkpt><trkpt lat="45.66522834597798" lon="9.866177480287156"><ele>513.0</ele><time>2026-03-28T15:33:08Z</time></trkpt><trkpt lat="45.66525247871159" lon="9.866082887185007"><ele>513.0</ele><time>2026-03-28T15:33:10Z</time></trkpt><trkpt lat="45.66529818426867" lon="9.86597638477167"><ele>516.0</ele><time>2026-03-28T15:33:13Z</time></trkpt><trkpt lat="45.665347526808176" lon="9.865903961784205"><ele>519.0</ele><time>2026-03-28T15:33:15Z</time></trkpt><trkpt lat="45.665377454355784" lon="9.86579116550256"><ele>522.0</ele><time>2026-03-28T15:33:18Z</time></trkpt><trkpt lat="45.665413858745985" lon="9.865712002849632"><ele>525.0</ele><time>2026-03-28T15:33:21Z</time></trkpt><trkpt lat="45.66548491991433" lon="9.86566276611637"><ele>528.0</ele><time>2026-03-28T15:33:30Z</time></trkpt><trkpt lat="45.665548215076555" lon="9.865600667442664"><ele>531.0</ele><time>2026-03-28T15:33:35Z</time></trkpt><trkpt lat="45.66562520612181" lon="9.865544682194036"><ele>531.0</ele><time>2026-03-28T15:33:39Z</time></trkpt><trkpt lat="45.66570948661263" lon="9.86550882986395"><ele>531.0</ele><time>2026-03-28T15:33:42Z</time></trkpt><trkpt lat="45.66578986505798" lon="9.865475655304337"><ele>531.0</ele><time>2026-03-28T15:33:46Z</time></trkpt><trkpt lat="45.66585700178098" lon="9.865402987600605"><ele>531.0</ele><time>2026-03-28T15:33:48Z</time></trkpt><trkpt lat="45.66594358225304" lon="9.865308738262675"><ele>531.0</ele><time>2026-03-28T15:33:50Z</time></trkpt><trkpt lat="45.66600900381415" lon="9.86519399327499"><ele>530.8333333333334</ele><time>2026-03-28T15:33:52Z</time></trkpt><trkpt lat="45.66602918799884" lon="9.865107196211895"><ele>530.6666666666666</ele><time>2026-03-28T15:33:53Z</time></trkpt><trkpt lat="45.66605103040476" lon="9.864998038675413"><ele>530.5</ele><time>2026-03-28T15:33:55Z</time></trkpt><trkpt lat="45.66607230365965" lon="9.864870050697512"><ele>530.3333333333333</ele><time>2026-03-28T15:33:58Z</time></trkpt><trkpt lat="45.66604559033318" lon="9.864765318648448"><ele>530.1666666666666</ele><time>2026-03-28T15:34:01Z</time></trkpt><trkpt lat="45.666017122027796" lon="9.864643147100335"><ele>530.0</ele><time>2026-03-28T15:34:05Z</time></trkpt><trkpt lat="45.66600478068399" lon="9.864538749709364"><ele>530.0</ele><time>2026-03-28T15:34:09Z</time></trkpt><trkpt lat="45.66596909614207" lon="9.864432213089891"><ele>530.0</ele><time>2026-03-28T15:34:12Z</time></trkpt><trkpt lat="45.665929421289796" lon="9.864316202618218"><ele>530.0</ele><time>2026-03-28T15:34:15Z</time></trkpt><trkpt lat="45.66590981682481" lon="9.864110836956343"><ele>530.0</ele><time>2026-03-28T15:34:18Z</time></trkpt><trkpt lat="45.66587836133041" lon="9.863988244015005"><ele>530.0</ele><time>2026-03-28T15:34:19Z</time></trkpt><trkpt lat="45.66587278186693" lon="9.863876011226242"><ele>528.3333333333333</ele><time>2026-03-28T15:34:20Z</time></trkpt><trkpt lat="45.66588868898915" lon="9.863784583381555"><ele>526.6666666666666</ele><time>2026-03-28T15:34:21Z</time></trkpt><trkpt lat="45.665944114244155" lon="9.863629062761822"><ele>525.0</ele><time>2026-03-28T15:34:23Z</time></trkpt><trkpt lat="45.66591142295952" lon="9.863530077453051"><ele>523.3333333333334</ele><time>2026-03-28T15:34:24Z</time></trkpt><trkpt lat="45.66591123699475" lon="9.863435602627007"><ele>521.6666666666667</ele><time>2026-03-28T15:34:26Z</time></trkpt><trkpt lat="45.6659309947027" lon="9.86334350936589"><ele>520.0</ele><time>2026-03-28T15:34:28Z</time></trkpt><trkpt lat="45.665942120756505" lon="9.863229166591884"><ele>520.0</ele><time>2026-03-28T15:34:30Z</time></trkpt><trkpt lat="45.66597397629844" lon="9.863145032535137"><ele>520.0</ele><time>2026-03-28T15:34:31Z</time></trkpt><trkpt lat="45.66592042260361" lon="9.863021083064726"><ele>520.0</ele><time>2026-03-28T15:34:32Z</time></trkpt><trkpt lat="45.66590403596149" lon="9.862915703485104"><ele>520.0</ele><time>2026-03-28T15:34:34Z</time></trkpt><trkpt lat="45.66589344022836" lon="9.862743046637537"><ele>520.0</ele><time>2026-03-28T15:34:36Z</time></trkpt><trkpt lat="45.66587359226386" lon="9.862596099860763"><ele>520.2</ele><time>2026-03-28T15:34:37Z</time></trkpt><trkpt lat="45.66584828528263" lon="9.862490770414565"><ele>520.4</ele><time>2026-03-28T15:34:38Z</time></trkpt><trkpt lat="45.66582737401812" lon="9.862375518073241"><ele>520.6</ele><time>2026-03-28T15:34:39Z</time></trkpt><trkpt lat="45.66578443953189" lon="9.862200711717831"><ele>520.8</ele><time>2026-03-28T15:34:41Z</time></trkpt><trkpt lat="45.665764604514074" lon="9.862095767804396"><ele>521.0</ele><time>2026-03-28T15:34:42Z</time></trkpt><trkpt lat="45.66566948502518" lon="9.862001729664327"><ele>521.0</ele><time>2026-03-28T15:34:44Z</time></trkpt><trkpt lat="45.66562596754439" lon="9.8618705889528"><ele>521.0</ele><time>2026-03-28T15:34:46Z</time></trkpt><trkpt lat="45.66563063047839" lon="9.861715767846423"><ele>521.0</ele><time>2026-03-28T15:34:48Z</time></trkpt><trkpt lat="45.665648583144474" lon="9.861575251128711"><ele>521.0</ele><time>2026-03-28T15:34:50Z</time></trkpt><trkpt lat="45.665675759047446" lon="9.861446337538327"><ele>521.0</ele><time>2026-03-28T15:34:53Z</time></trkpt><trkpt lat="45.66565570175276" lon="9.861342787186713"><ele>520.6</ele><time>2026-03-28T15:34:55Z</time></trkpt><trkpt lat="45.66567166694635" lon="9.861124711175924"><ele>520.2</ele><time>2026-03-28T15:34:57Z</time></trkpt><trkpt lat="45.66566145774617" lon="9.861000179427164"><ele>519.8</ele><time>2026-03-28T15:34:58Z</time></trkpt><trkpt lat="45.665655567369996" lon="9.860894097934505"><ele>519.4</ele><time>2026-03-28T15:34:59Z</time></trkpt><trkpt lat="45.66564948814916" lon="9.860798120600773"><ele>519.0</ele><time>2026-03-28T15:35:00Z</time></trkpt><trkpt lat="45.66566104037479" lon="9.860617753698737"><ele>518.8</ele><time>2026-03-28T15:35:02Z</time></trkpt><trkpt lat="45.66568284989104" lon="9.86045013355683"><ele>518.5999999999999</ele><time>2026-03-28T15:35:04Z</time></trkpt><trkpt lat="45.66568228942746" lon="9.86032610395357"><ele>518.4</ele><time>2026-03-28T15:35:05Z</time></trkpt><trkpt lat="45.66569286769719" lon="9.860219191834489"><ele>518.1999999999999</ele><time>2026-03-28T15:35:06Z</time></trkpt><trkpt lat="45.665721532147586" lon="9.860044496931344"><ele>518.0</ele><time>2026-03-28T15:35:08Z</time></trkpt><trkpt lat="45.665715832957694" lon="9.859876496779966"><ele>517.6666666666666</ele><time>2026-03-28T15:35:10Z</time></trkpt><trkpt lat="45.66567368107151" lon="9.859746376808983"><ele>517.3333333333333</ele><time>2026-03-28T15:35:12Z</time></trkpt><trkpt lat="45.66565162416591" lon="9.859612849682808"><ele>517.0</ele><time>2026-03-28T15:35:14Z</time></trkpt><trkpt lat="45.665673124884485" lon="9.859453870349023"><ele>516.6666666666666</ele><time>2026-03-28T15:35:16Z</time></trkpt><trkpt lat="45.665703640450474" lon="9.859374931636234"><ele>516.3333333333334</ele><time>2026-03-28T15:35:17Z</time></trkpt><trkpt lat="45.66571912171691" lon="9.859270430466525"><ele>516.0</ele><time>2026-03-28T15:35:18Z</time></trkpt><trkpt lat="45.66573743515014" lon="9.85912363052203"><ele>517.0</ele><time>2026-03-28T15:35:21Z</time></trkpt><trkpt lat="45.66576361867033" lon="9.85896590132036"><ele>518.0</ele><time>2026-03-28T15:35:23Z</time></trkpt><trkpt lat="45.66578563980194" lon="9.858826110744364"><ele>519.0</ele><time>2026-03-28T15:35:25Z</time></trkpt><trkpt lat="45.66580075068009" lon="9.858660295449939"><ele>520.0</ele><time>2026-03-28T15:35:27Z</time></trkpt><trkpt lat="45.66582497467422" lon="9.858488026644842"><ele>519.0</ele><time>2026-03-28T15:35:29Z</time></trkpt><trkpt lat="45.665837397971856" lon="9.858347552784387"><ele>518.0</ele><time>2026-03-28T15:35:31Z</time></trkpt><trkpt lat="45.66586667703146" lon="9.85817268008587"><ele>517.0</ele><time>2026-03-28T15:35:33Z</time></trkpt><trkpt lat="45.6658756201193" lon="9.858081016072646"><ele>516.0</ele><time>2026-03-28T15:35:34Z</time></trkpt><trkpt lat="45.66590228244721" lon="9.857965097337713"><ele>515.0</ele><time>2026-03-28T15:35:36Z</time></trkpt><trkpt lat="45.665896489763895" lon="9.857813629915363"><ele>515.0</ele><time>2026-03-28T15:36:42Z</time></trkpt><trkpt lat="45.6659594728487" lon="9.857860545439866"><ele>515.0</ele><time>2026-03-28T15:36:50Z</time></trkpt><trkpt lat="45.66600496788728" lon="9.85795216390098"><ele>515.0</ele><time>2026-03-28T15:37:05Z</time></trkpt><trkpt lat="45.66607238542697" lon="9.858022023433115"><ele>515.0</ele><time>2026-03-28T15:37:10Z</time></trkpt><trkpt lat="45.66613357285975" lon="9.858117645722158"><ele>515.0</ele><time>2026-03-28T15:37:13Z</time></trkpt><trkpt lat="45.666195825808074" lon="9.858204357408557"><ele>515.0</ele><time>2026-03-28T15:37:15Z</time></trkpt><trkpt lat="45.666242439858294" lon="9.8582839590946"><ele>511.0</ele><time>2026-03-28T15:37:17Z</time></trkpt><trkpt lat="45.66628600228969" lon="9.858397407464055"><ele>507.0</ele><time>2026-03-28T15:37:19Z</time></trkpt><trkpt lat="45.66634997633362" lon="9.858494888097075"><ele>503.0</ele><time>2026-03-28T15:37:21Z</time></trkpt><trkpt lat="45.66640795158842" lon="9.85863383729942"><ele>499.0</ele><time>2026-03-28T15:37:23Z</time></trkpt><trkpt lat="45.66644994265222" lon="9.858731407541603"><ele>495.0</ele><time>2026-03-28T15:37:25Z</time></trkpt><trkpt lat="45.666503216714226" lon="9.85883057973343"><ele>495.0</ele><time>2026-03-28T15:37:27Z</time></trkpt><trkpt lat="45.66662555266981" lon="9.858916073032342"><ele>495.0</ele><time>2026-03-28T15:37:31Z</time></trkpt><trkpt lat="45.666687756443835" lon="9.858965724043438"><ele>495.0</ele><time>2026-03-28T15:37:32Z</time></trkpt><trkpt lat="45.666755304943116" lon="9.858967643629857"><ele>495.0</ele><time>2026-03-28T15:37:35Z</time></trkpt><trkpt lat="45.66682735730944" lon="9.85909560981811"><ele>495.0</ele><time>2026-03-28T15:37:37Z</time></trkpt><trkpt lat="45.66688299799455" lon="9.859224793281692"><ele>489.6666666666667</ele><time>2026-03-28T15:37:39Z</time></trkpt><trkpt lat="45.66700211478651" lon="9.85931972075744"><ele>484.33333333333337</ele><time>2026-03-28T15:37:41Z</time></trkpt><trkpt lat="45.6670651902594" lon="9.859334991373856"><ele>479.0</ele><time>2026-03-28T15:37:42Z</time></trkpt><trkpt lat="45.66717048383017" lon="9.859358022537045"><ele>473.6666666666667</ele><time>2026-03-28T15:37:44Z</time></trkpt><trkpt lat="45.667236141376215" lon="9.859361035099463"><ele>468.33333333333337</ele><time>2026-03-28T15:37:46Z</time></trkpt><trkpt lat="45.66729939193617" lon="9.85936778167903"><ele>463.0</ele><time>2026-03-28T15:37:48Z</time></trkpt><trkpt lat="45.66735843803694" lon="9.859323236251797"><ele>463.00000000000006</ele><time>2026-03-28T15:37:51Z</time></trkpt><trkpt lat="45.66744350646373" lon="9.85932338064271"><ele>463.0</ele><time>2026-03-28T15:37:55Z</time></trkpt><trkpt lat="45.667522412039006" lon="9.859351169759917"><ele>463.0</ele><time>2026-03-28T15:37:58Z</time></trkpt><trkpt lat="45.66758669632509" lon="9.85934455046982"><ele>463.0</ele><time>2026-03-28T15:38:01Z</time></trkpt><trkpt lat="45.66767590772459" lon="9.859321466120612"><ele>463.00000000000006</ele><time>2026-03-28T15:38:05Z</time></trkpt><trkpt lat="45.66774169542464" lon="9.859342323668653"><ele>463.0</ele><time>2026-03-28T15:38:08Z</time></trkpt><trkpt lat="45.66780113421162" lon="9.859374110047865"><ele>459.1666666666667</ele><time>2026-03-28T15:38:10Z</time></trkpt><trkpt lat="45.66784958353988" lon="9.859432400666186"><ele>455.33333333333337</ele><time>2026-03-28T15:38:13Z</time></trkpt><trkpt lat="45.667951356695006" lon="9.859454142426863"><ele>451.5</ele><time>2026-03-28T15:38:26Z</time></trkpt><trkpt lat="45.66803098270444" lon="9.859511543614317"><ele>447.66666666666663</ele><time>2026-03-28T15:38:30Z</time></trkpt><trkpt lat="45.668101604176" lon="9.859616965994697"><ele>443.8333333333333</ele><time>2026-03-28T15:38:33Z</time></trkpt><trkpt lat="45.66813529153507" lon="9.859693964449109"><ele>440.0</ele><time>2026-03-28T15:38:35Z</time></trkpt><trkpt lat="45.66816735367441" lon="9.859772319947862"><ele>440.0</ele><time>2026-03-28T15:38:36Z</time></trkpt><trkpt lat="45.66821499161327" lon="9.859919797768516"><ele>440.0</ele><time>2026-03-28T15:38:38Z</time></trkpt><trkpt lat="45.6682765138589" lon="9.859987181074331"><ele>440.0</ele><time>2026-03-28T15:38:40Z</time></trkpt><trkpt lat="45.668343267920065" lon="9.860007848636577"><ele>440.0</ele><time>2026-03-28T15:38:43Z</time></trkpt><trkpt lat="45.668400018760714" lon="9.859933489019353"><ele>440.0</ele><time>2026-03-28T15:38:47Z</time></trkpt><trkpt lat="45.66842319382655" lon="9.859746856439166"><ele>439.99999999999994</ele><time>2026-03-28T15:38:50Z</time></trkpt><trkpt lat="45.66843197433184" lon="9.859626005940669"><ele>440.0</ele><time>2026-03-28T15:38:52Z</time></trkpt><trkpt lat="45.66846605572813" lon="9.859526334303691"><ele>440.0</ele><time>2026-03-28T15:38:54Z</time></trkpt><trkpt lat="45.66849807452745" lon="9.859445647759808"><ele>440.0</ele><time>2026-03-28T15:38:56Z</time></trkpt><trkpt lat="45.6685420098555" lon="9.859354111774215"><ele>439.99999999999994</ele><time>2026-03-28T15:38:58Z</time></trkpt><trkpt lat="45.668549223476425" lon="9.859223649799686"><ele>440.0</ele><time>2026-03-28T15:39:00Z</time></trkpt><trkpt lat="45.668514094227795" lon="9.859100974866246"><ele>440.3333333333333</ele><time>2026-03-28T15:39:02Z</time></trkpt><trkpt lat="45.66849306465158" lon="9.858960581164135"><ele>440.66666666666663</ele><time>2026-03-28T15:39:05Z</time></trkpt><trkpt lat="45.66850502217937" lon="9.858837683867813"><ele>441.0</ele><time>2026-03-28T15:39:07Z</time></trkpt><trkpt lat="45.66850138890216" lon="9.85873227571266"><ele>441.33333333333337</ele><time>2026-03-28T15:39:10Z</time></trkpt><trkpt lat="45.66847840006794" lon="9.858608536463292"><ele>441.6666666666667</ele><time>2026-03-28T15:39:13Z</time></trkpt><trkpt lat="45.66849668855626" lon="9.858519565605226"><ele>442.0</ele><time>2026-03-28T15:39:15Z</time></trkpt><trkpt lat="45.66857545661118" lon="9.858437071210346"><ele>437.50000000000006</ele><time>2026-03-28T15:39:17Z</time></trkpt><trkpt lat="45.668656181602024" lon="9.858347080662243"><ele>433.0</ele><time>2026-03-28T15:39:18Z</time></trkpt><trkpt lat="45.668714959703586" lon="9.858230206059403"><ele>428.5</ele><time>2026-03-28T15:39:20Z</time></trkpt><trkpt lat="45.66878404828901" lon="9.858179887109548"><ele>424.0</ele><time>2026-03-28T15:39:21Z</time></trkpt><trkpt lat="45.668841295223906" lon="9.858118916473046"><ele>419.50000000000006</ele><time>2026-03-28T15:39:22Z</time></trkpt><trkpt lat="45.66888918985245" lon="9.85802506456705"><ele>415.0</ele><time>2026-03-28T15:39:23Z</time></trkpt><trkpt lat="45.668924997959294" lon="9.857946961236436"><ele>415.00000000000006</ele><time>2026-03-28T15:39:24Z</time></trkpt><trkpt lat="45.66897695523311" lon="9.857779915404508"><ele>415.0</ele><time>2026-03-28T15:39:26Z</time></trkpt><trkpt lat="45.669018855827744" lon="9.857695722189744"><ele>415.0</ele><time>2026-03-28T15:39:27Z</time></trkpt><trkpt lat="45.66903513003736" lon="9.857589488950447"><ele>415.0</ele><time>2026-03-28T15:39:28Z</time></trkpt><trkpt lat="45.66905420040778" lon="9.857481431293854"><ele>415.00000000000006</ele><time>2026-03-28T15:39:29Z</time></trkpt><trkpt lat="45.669059601941214" lon="9.857372684570304"><ele>415.0</ele><time>2026-03-28T15:39:30Z</time></trkpt><trkpt lat="45.669050274052026" lon="9.85724436629804"><ele>416.6666666666667</ele><time>2026-03-28T15:39:31Z</time></trkpt><trkpt lat="45.66910196709638" lon="9.857180721365324"><ele>418.33333333333337</ele><time>2026-03-28T15:39:32Z</time></trkpt><trkpt lat="45.66907887922635" lon="9.857081597170238"><ele>420.0</ele><time>2026-03-28T15:39:33Z</time></trkpt><trkpt lat="45.66908158256244" lon="9.856896151131595"><ele>421.66666666666663</ele><time>2026-03-28T15:39:35Z</time></trkpt><trkpt lat="45.66909917196254" lon="9.856808856332277"><ele>423.3333333333333</ele><time>2026-03-28T15:39:36Z</time></trkpt><trkpt lat="45.66917055442856" lon="9.856704291816753"><ele>425.0</ele><time>2026-03-28T15:39:37Z</time></trkpt><trkpt lat="45.66922833246324" lon="9.856630672576067"><ele>425.8</ele><time>2026-03-28T15:39:38Z</time></trkpt><trkpt lat="45.66929103456529" lon="9.856525897028414"><ele>426.6</ele><time>2026-03-28T15:39:39Z</time></trkpt><trkpt lat="45.66936532015094" lon="9.856455242761514"><ele>427.4</ele><time>2026-03-28T15:39:40Z</time></trkpt><trkpt lat="45.669452235110995" lon="9.85635028156134"><ele>428.2</ele><time>2026-03-28T15:39:41Z</time></trkpt><trkpt lat="45.66953573518995" lon="9.856311587018437"><ele>429.0</ele><time>2026-03-28T15:39:43Z</time></trkpt><trkpt lat="45.669589796452755" lon="9.856222027011372"><ele>427.1666666666667</ele><time>2026-03-28T15:39:45Z</time></trkpt><trkpt lat="45.66965102149602" lon="9.856129674854177"><ele>425.33333333333337</ele><time>2026-03-28T15:39:48Z</time></trkpt><trkpt lat="45.66970934076721" lon="9.856069754126104"><ele>423.5</ele><time>2026-03-28T15:40:18Z</time></trkpt><trkpt lat="45.66977094964716" lon="9.85597597869797"><ele>421.6666666666667</ele><time>2026-03-28T15:40:20Z</time></trkpt><trkpt lat="45.6698522441937" lon="9.855923423016604"><ele>419.83333333333337</ele><time>2026-03-28T15:40:22Z</time></trkpt><trkpt lat="45.66987881140215" lon="9.85584005150022"><ele>418.0</ele><time>2026-03-28T15:43:02Z</time></trkpt><trkpt lat="45.66984258971282" lon="9.855925392734601"><ele>415.0</ele><time>2026-03-28T15:43:05.998Z</time></trkpt><trkpt lat="45.66979280439342" lon="9.855993064138696"><ele>412.0</ele><time>2026-03-28T15:43:07.998Z</time></trkpt><trkpt lat="45.66969298112201" lon="9.8560762926534"><ele>409.0</ele><time>2026-03-28T15:43:09.998Z</time></trkpt><trkpt lat="45.66962211423697" lon="9.856235079619351"><ele>406.0</ele><time>2026-03-28T15:43:11.999Z</time></trkpt><trkpt lat="45.669558910125346" lon="9.856317754247328"><ele>403.0</ele><time>2026-03-28T15:43:12.999Z</time></trkpt><trkpt lat="45.66947835176612" lon="9.856404753936792"><ele>408.5</ele><time>2026-03-28T15:43:13.999Z</time></trkpt><trkpt lat="45.66937074195465" lon="9.856509547161506"><ele>414.0</ele><time>2026-03-28T15:43:15.999Z</time></trkpt><trkpt lat="45.66932178915186" lon="9.856566981115796"><ele>419.5</ele><time>2026-03-28T15:43:16.999Z</time></trkpt><trkpt lat="45.66926032827787" lon="9.856677890198117"><ele>425.0</ele><time>2026-03-28T15:43:18.999Z</time></trkpt><trkpt lat="45.66912016591006" lon="9.856787460322264"><ele>424.99999999999994</ele><time>2026-03-28T15:48:37.001Z</time></trkpt><trkpt lat="45.669062953029886" lon="9.856907018719445"><ele>425.0</ele><time>2026-03-28T15:48:38.001Z</time></trkpt><trkpt lat="45.66903696550255" lon="9.857035614167431"><ele>425.0</ele><time>2026-03-28T15:48:39.001Z</time></trkpt><trkpt lat="45.669045792178004" lon="9.857151923717554"><ele>425.0</ele><time>2026-03-28T15:48:40.001Z</time></trkpt><trkpt lat="45.669049453150635" lon="9.857260765915985"><ele>424.99999999999994</ele><time>2026-03-28T15:48:41.001Z</time></trkpt><trkpt lat="45.66905701666235" lon="9.857386277600783"><ele>425.0</ele><time>2026-03-28T15:48:42.001Z</time></trkpt><trkpt lat="45.669068181336335" lon="9.857512320967139"><ele>423.0</ele><time>2026-03-28T15:48:43.001Z</time></trkpt><trkpt lat="45.66903170931183" lon="9.857659822803628"><ele>421.0</ele><time>2026-03-28T15:48:45.001Z</time></trkpt><trkpt lat="45.66898765401458" lon="9.857829811713001"><ele>419.0</ele><time>2026-03-28T15:48:47.001Z</time></trkpt><trkpt lat="45.668948621447065" lon="9.857969223134498"><ele>417.0</ele><time>2026-03-28T15:48:49.001Z</time></trkpt><trkpt lat="45.66887763026691" lon="9.858083282456217"><ele>415.0</ele><time>2026-03-28T15:48:51.001Z</time></trkpt><trkpt lat="45.668794983337015" lon="9.858202362402066"><ele>415.0</ele><time>2026-03-28T15:48:53.001Z</time></trkpt><trkpt lat="45.66871307387217" lon="9.858301390424952"><ele>415.0</ele><time>2026-03-28T15:48:55.001Z</time></trkpt><trkpt lat="45.66860847950841" lon="9.858392759947918"><ele>415.0</ele><time>2026-03-28T15:48:57.001Z</time></trkpt><trkpt lat="45.66851462177483" lon="9.858477225287018"><ele>415.0</ele><time>2026-03-28T15:48:59.001Z</time></trkpt><trkpt lat="45.668487810370976" lon="9.858563619294252"><ele>415.0</ele><time>2026-03-28T15:49:01.001Z</time></trkpt><trkpt lat="45.66844953087579" lon="9.858639794688532"><ele>420.0</ele><time>2026-03-28T15:49:03.001Z</time></trkpt><trkpt lat="45.66845767946372" lon="9.858762841511213"><ele>425.0</ele><time>2026-03-28T15:49:06.001Z</time></trkpt><trkpt lat="45.66848766435499" lon="9.85891587888839"><ele>430.0</ele><time>2026-03-28T15:49:08.001Z</time></trkpt><trkpt lat="45.66850821336736" lon="9.85905450641233"><ele>435.0</ele><time>2026-03-28T15:49:10.001Z</time></trkpt><trkpt lat="45.66852649617936" lon="9.859202789840662"><ele>440.0</ele><time>2026-03-28T15:49:12.001Z</time></trkpt><trkpt lat="45.66854310518957" lon="9.85931977036885"><ele>440.0</ele><time>2026-03-28T15:49:14.001Z</time></trkpt><trkpt lat="45.66857080799365" lon="9.859412002744877"><ele>440.0</ele><time>2026-03-28T15:49:15.001Z</time></trkpt><trkpt lat="45.66849152327563" lon="9.859490328301662"><ele>440.0</ele><time>2026-03-28T15:49:19.001Z</time></trkpt><trkpt lat="45.668433737822916" lon="9.859607806036493"><ele>440.0</ele><time>2026-03-28T15:49:22.001Z</time></trkpt><trkpt lat="45.668446114031255" lon="9.859763253081228"><ele>440.0</ele><time>2026-03-28T15:49:24.001Z</time></trkpt><trkpt lat="45.66840718634732" lon="9.859903798858229"><ele>439.99999999999994</ele><time>2026-03-28T15:49:25.001Z</time></trkpt><trkpt lat="45.66835589065744" lon="9.860013111806948"><ele>440.0</ele><time>2026-03-28T15:49:26.001Z</time></trkpt><trkpt lat="45.66832263234714" lon="9.8601040078616"><ele>440.0</ele><time>2026-03-28T15:49:27.001Z</time></trkpt><trkpt lat="45.66827532524448" lon="9.860212070008107"><ele>440.0</ele><time>2026-03-28T15:49:30.001Z</time></trkpt><trkpt lat="45.66819680025025" lon="9.860301693181947"><ele>439.99999999999994</ele><time>2026-03-28T15:49:33.001Z</time></trkpt><trkpt lat="45.6681394826338" lon="9.860369525300296"><ele>440.0</ele><time>2026-03-28T15:49:35.001Z</time></trkpt><trkpt lat="45.668072073764264" lon="9.860485604585264"><ele>438.8333333333333</ele><time>2026-03-28T15:49:37.001Z</time></trkpt><trkpt lat="45.66804123937536" lon="9.860573939697504"><ele>437.66666666666663</ele><time>2026-03-28T15:49:39.001Z</time></trkpt><trkpt lat="45.66806467236952" lon="9.860708662962475"><ele>436.5</ele><time>2026-03-28T15:49:43.001Z</time></trkpt><trkpt lat="45.668077510678266" lon="9.860859969063284"><ele>435.33333333333337</ele><time>2026-03-28T15:49:45.001Z</time></trkpt><trkpt lat="45.66805420850938" lon="9.860962963394636"><ele>434.1666666666667</ele><time>2026-03-28T15:49:46.001Z</time></trkpt><trkpt lat="45.66803319291318" lon="9.86106490242833"><ele>433.0</ele><time>2026-03-28T15:49:47.001Z</time></trkpt><trkpt lat="45.6679956287955" lon="9.86124687271619"><ele>433.00000000000006</ele><time>2026-03-28T15:49:49.001Z</time></trkpt><trkpt lat="45.66799060242753" lon="9.861341461562224"><ele>433.0</ele><time>2026-03-28T15:49:50.001Z</time></trkpt><trkpt lat="45.66796779094814" lon="9.861466395450805"><ele>433.0</ele><time>2026-03-28T15:49:52.001Z</time></trkpt><trkpt lat="45.66793150998201" lon="9.861548172762003"><ele>433.0</ele><time>2026-03-28T15:49:53.001Z</time></trkpt><trkpt lat="45.66789669601557" lon="9.861623372272135"><ele>433.00000000000006</ele><time>2026-03-28T15:49:54.001Z</time></trkpt><trkpt lat="45.66785565874278" lon="9.86169935619811"><ele>433.0</ele><time>2026-03-28T15:49:56.001Z</time></trkpt><trkpt lat="45.66787793943669" lon="9.86187356127944"><ele>433.33333333333337</ele><time>2026-03-28T15:49:58.001Z</time></trkpt><trkpt lat="45.66795253232988" lon="9.861989667902087"><ele>433.6666666666667</ele><time>2026-03-28T15:50:00.001Z</time></trkpt><trkpt lat="45.66797744602944" lon="9.862099413728812"><ele>434.0</ele><time>2026-03-28T15:50:02.001Z</time></trkpt><trkpt lat="45.66800016233134" lon="9.862210325229915"><ele>434.33333333333337</ele><time>2026-03-28T15:50:04.001Z</time></trkpt><trkpt lat="45.66802013293828" lon="9.862331105389767"><ele>434.6666666666667</ele><time>2026-03-28T15:50:06.001Z</time></trkpt><trkpt lat="45.668023896267954" lon="9.862452367442542"><ele>435.0</ele><time>2026-03-28T15:50:08.001Z</time></trkpt><trkpt lat="45.6680372689426" lon="9.862549429974719"><ele>435.1666666666667</ele><time>2026-03-28T15:50:10.001Z</time></trkpt><trkpt lat="45.66801222436929" lon="9.862644262936785"><ele>435.33333333333337</ele><time>2026-03-28T15:50:13.001Z</time></trkpt><trkpt lat="45.66801113406026" lon="9.862774867647337"><ele>435.5</ele><time>2026-03-28T15:50:16.001Z</time></trkpt><trkpt lat="45.66803038498376" lon="9.862881210193946"><ele>435.6666666666667</ele><time>2026-03-28T15:50:19.001Z</time></trkpt><trkpt lat="45.66802963486181" lon="9.863026271411723"><ele>435.83333333333337</ele><time>2026-03-28T15:50:21.001Z</time></trkpt><trkpt lat="45.66799791552756" lon="9.863111786311235"><ele>436.0</ele><time>2026-03-28T15:50:22.001Z</time></trkpt><trkpt lat="45.66799234065625" lon="9.863260984184691"><ele>436.00000000000006</ele><time>2026-03-28T15:50:24.001Z</time></trkpt><trkpt lat="45.66799021451344" lon="9.86336347761701"><ele>436.0</ele><time>2026-03-28T15:50:26.001Z</time></trkpt><trkpt lat="45.66800773679235" lon="9.863464590513233"><ele>436.0</ele><time>2026-03-28T15:50:28.001Z</time></trkpt><trkpt lat="45.66801496746577" lon="9.863568940294416"><ele>436.0</ele><time>2026-03-28T15:50:31.001Z</time></trkpt><trkpt lat="45.66803998884885" lon="9.863680299922045"><ele>436.00000000000006</ele><time>2026-03-28T15:50:34.001Z</time></trkpt><trkpt lat="45.668066036302406" lon="9.863784315414975"><ele>436.0</ele><time>2026-03-28T15:50:37.001Z</time></trkpt><trkpt lat="45.6680843370718" lon="9.863917455383566"><ele>436.83333333333337</ele><time>2026-03-28T15:50:39.001Z</time></trkpt><trkpt lat="45.66812740222366" lon="9.864026513221756"><ele>437.6666666666667</ele><time>2026-03-28T15:50:41.001Z</time></trkpt><trkpt lat="45.66812498081653" lon="9.864120352423724"><ele>438.5</ele><time>2026-03-28T15:50:44.001Z</time></trkpt><trkpt lat="45.6681219417109" lon="9.864231608014574"><ele>439.33333333333337</ele><time>2026-03-28T15:50:46.001Z</time></trkpt><trkpt lat="45.668198764460925" lon="9.864275555601758"><ele>440.1666666666667</ele><time>2026-03-28T15:50:49.001Z</time></trkpt><trkpt lat="45.66822918341711" lon="9.86439601417314"><ele>441.0</ele><time>2026-03-28T15:50:51.001Z</time></trkpt><trkpt lat="45.668259275628635" lon="9.86449246521815"><ele>444.0</ele><time>2026-03-28T15:50:55.001Z</time></trkpt><trkpt lat="45.66828094758896" lon="9.864589279198471"><ele>447.0</ele><time>2026-03-28T15:50:58.001Z</time></trkpt><trkpt lat="45.66834760302353" lon="9.864663242404582"><ele>450.0</ele><time>2026-03-28T15:51:01.001Z</time></trkpt><trkpt lat="45.668408073264295" lon="9.86474276022318"><ele>453.0</ele><time>2026-03-28T15:51:05.001Z</time></trkpt><trkpt lat="45.66847629494872" lon="9.864805940231303"><ele>456.0</ele><time>2026-03-28T15:51:08.001Z</time></trkpt><trkpt lat="45.6685239408133" lon="9.86491267329812"><ele>459.0</ele><time>2026-03-28T15:51:10.001Z</time></trkpt><trkpt lat="45.66858274634376" lon="9.865021401349779"><ele>455.6</ele><time>2026-03-28T15:51:12.001Z</time></trkpt><trkpt lat="45.66867664887628" lon="9.865124233730576"><ele>452.2</ele><time>2026-03-28T15:51:13.001Z</time></trkpt><trkpt lat="45.66875762711737" lon="9.865210741353689"><ele>448.80000000000007</ele><time>2026-03-28T15:51:14.001Z</time></trkpt><trkpt lat="45.668799131255156" lon="9.865326631522933"><ele>445.40000000000003</ele><time>2026-03-28T15:51:15.001Z</time></trkpt><trkpt lat="45.668840271287834" lon="9.865426809885877"><ele>442.0</ele><time>2026-03-28T15:51:16.001Z</time></trkpt><trkpt lat="45.66888315253952" lon="9.865506689496643"><ele>442.0</ele><time>2026-03-28T15:51:17.001Z</time></trkpt><trkpt lat="45.66892478817415" lon="9.865645032373145"><ele>442.00000000000006</ele><time>2026-03-28T15:51:19.001Z</time></trkpt><trkpt lat="45.66903328870152" lon="9.86569464030442"><ele>442.00000000000006</ele><time>2026-03-28T15:52:07Z</time></trkpt><trkpt lat="45.66901224785786" lon="9.865839243615868"><ele>442.0</ele><time>2026-03-28T15:52:15Z</time></trkpt><trkpt lat="45.66900169503714" lon="9.86592934474126"><ele>442.0</ele><time>2026-03-28T15:52:17Z</time></trkpt><trkpt lat="45.66894216838757" lon="9.865986374048294"><ele>444.1666666666667</ele><time>2026-03-28T15:52:18Z</time></trkpt><trkpt lat="45.66886071290099" lon="9.86614663168726"><ele>446.33333333333337</ele><time>2026-03-28T15:52:20Z</time></trkpt><trkpt lat="45.66881626969688" lon="9.866211822685973"><ele>448.5</ele><time>2026-03-28T15:52:21Z</time></trkpt><trkpt lat="45.668754623583695" lon="9.866245425348044"><ele>450.66666666666663</ele><time>2026-03-28T15:52:22Z</time></trkpt><trkpt lat="45.66868628249664" lon="9.866311378093272"><ele>452.8333333333333</ele><time>2026-03-28T15:52:23Z</time></trkpt><trkpt lat="45.66862143810359" lon="9.866383836372806"><ele>455.0</ele><time>2026-03-28T15:52:24Z</time></trkpt><trkpt lat="45.66856232559501" lon="9.866434694610783"><ele>454.99999999999994</ele><time>2026-03-28T15:52:25Z</time></trkpt><trkpt lat="45.66849679413079" lon="9.866462954061603"><ele>455.0</ele><time>2026-03-28T15:52:26Z</time></trkpt><trkpt lat="45.66843424008514" lon="9.866499490321292"><ele>455.0</ele><time>2026-03-28T15:52:27Z</time></trkpt><trkpt lat="45.66832148958426" lon="9.866542670999417"><ele>455.0</ele><time>2026-03-28T15:52:29Z</time></trkpt><trkpt lat="45.668234460600104" lon="9.86659099579969"><ele>454.99999999999994</ele><time>2026-03-28T15:52:31Z</time></trkpt><trkpt lat="45.66816555619354" lon="9.866629587937183"><ele>455.0</ele><time>2026-03-28T15:52:33Z</time></trkpt><trkpt lat="45.66808193662221" lon="9.866685312325465"><ele>457.2</ele><time>2026-03-28T15:52:35Z</time></trkpt><trkpt lat="45.668004299964196" lon="9.866795703952326"><ele>459.4</ele><time>2026-03-28T15:52:37Z</time></trkpt><trkpt lat="45.667932270878474" lon="9.866865170432723"><ele>461.6</ele><time>2026-03-28T15:52:38Z</time></trkpt><trkpt lat="45.66784724853641" lon="9.8669505375463"><ele>463.8</ele><time>2026-03-28T15:52:40Z</time></trkpt><trkpt lat="45.667794393868355" lon="9.86703885959698"><ele>466.0</ele><time>2026-03-28T15:52:42Z</time></trkpt><trkpt lat="45.66775551892164" lon="9.867143888976557"><ele>466.00000000000006</ele><time>2026-03-28T15:52:46Z</time></trkpt><trkpt lat="45.66769138430879" lon="9.867220077701086"><ele>466.0</ele><time>2026-03-28T15:52:49Z</time></trkpt><trkpt lat="45.66768333124664" lon="9.867370682985872"><ele>466.0</ele><time>2026-03-28T15:52:51Z</time></trkpt><trkpt lat="45.66767346201592" lon="9.867524119696258"><ele>466.0</ele><time>2026-03-28T15:52:54Z</time></trkpt><trkpt lat="45.66769439682125" lon="9.867626186997162"><ele>466.00000000000006</ele><time>2026-03-28T15:52:55Z</time></trkpt><trkpt lat="45.667697451090255" lon="9.867736811984777"><ele>466.0</ele><time>2026-03-28T15:52:56Z</time></trkpt><trkpt lat="45.667679863172836" lon="9.867840491617475"><ele>465.33333333333337</ele><time>2026-03-28T15:52:57Z</time></trkpt><trkpt lat="45.667652855543054" lon="9.867955495054888"><ele>464.6666666666667</ele><time>2026-03-28T15:52:58Z</time></trkpt><trkpt lat="45.66763866608292" lon="9.868047186571994"><ele>464.0</ele><time>2026-03-28T15:52:59Z</time></trkpt><trkpt lat="45.667621216765546" lon="9.868142554855865"><ele>463.33333333333337</ele><time>2026-03-28T15:53:00Z</time></trkpt><trkpt lat="45.66758096403492" lon="9.868285299050756"><ele>462.6666666666667</ele><time>2026-03-28T15:53:02Z</time></trkpt><trkpt lat="45.667517824542735" lon="9.868368792729305"><ele>462.0</ele><time>2026-03-28T15:53:04Z</time></trkpt><trkpt lat="45.66743856105676" lon="9.868441835343978"><ele>461.8</ele><time>2026-03-28T15:53:06Z</time></trkpt><trkpt lat="45.667417769019835" lon="9.868548624400168"><ele>461.6</ele><time>2026-03-28T15:53:07Z</time></trkpt><trkpt lat="45.667416867438305" lon="9.868674342591477"><ele>461.40000000000003</ele><time>2026-03-28T15:53:10Z</time></trkpt><trkpt lat="45.667424279155675" lon="9.86887229681209"><ele>461.20000000000005</ele><time>2026-03-28T15:53:12Z</time></trkpt><trkpt lat="45.66747427583038" lon="9.868962654152867"><ele>461.0</ele><time>2026-03-28T15:53:13Z</time></trkpt><trkpt lat="45.667517051461786" lon="9.869048332147091"><ele>460.99999999999994</ele><time>2026-03-28T15:53:14Z</time></trkpt><trkpt lat="45.66754726785883" lon="9.869144980546231"><ele>461.0</ele><time>2026-03-28T15:53:15Z</time></trkpt><trkpt lat="45.667601569305226" lon="9.869243015909662"><ele>461.0</ele><time>2026-03-28T15:53:16Z</time></trkpt><trkpt lat="45.66763927232634" lon="9.869325226126438"><ele>461.0</ele><time>2026-03-28T15:53:17Z</time></trkpt><trkpt lat="45.667713048185334" lon="9.869462348324388"><ele>460.99999999999994</ele><time>2026-03-28T15:53:19Z</time></trkpt><trkpt lat="45.667755891179816" lon="9.869532277179228"><ele>461.0</ele><time>2026-03-28T15:53:20Z</time></trkpt><trkpt lat="45.66784740066012" lon="9.86965200718535"><ele>459.99999999999994</ele><time>2026-03-28T15:53:22Z</time></trkpt><trkpt lat="45.66789321791867" lon="9.869742717707668"><ele>459.0</ele><time>2026-03-28T15:53:23Z</time></trkpt><trkpt lat="45.66793944651147" lon="9.86985692451727"><ele>458.0</ele><time>2026-03-28T15:53:24Z</time></trkpt><trkpt lat="45.66800703134111" lon="9.86996236326376"><ele>457.0</ele><time>2026-03-28T15:53:25Z</time></trkpt><trkpt lat="45.668057876288955" lon="9.870063890088176"><ele>455.99999999999994</ele><time>2026-03-28T15:53:26Z</time></trkpt><trkpt lat="45.66810438518235" lon="9.870150305293684"><ele>455.0</ele><time>2026-03-28T15:53:27Z</time></trkpt><trkpt lat="45.66812640601867" lon="9.870247296757201"><ele>454.99999999999994</ele><time>2026-03-28T15:53:28Z</time></trkpt><trkpt lat="45.668127322616215" lon="9.870363901104396"><ele>455.0</ele><time>2026-03-28T15:53:29Z</time></trkpt><trkpt lat="45.6681167410526" lon="9.87047629400538"><ele>455.0</ele><time>2026-03-28T15:53:30Z</time></trkpt><trkpt lat="45.66810199336999" lon="9.870585829203865"><ele>455.0</ele><time>2026-03-28T15:53:31Z</time></trkpt><trkpt lat="45.668074602144486" lon="9.87068775825491"><ele>454.99999999999994</ele><time>2026-03-28T15:53:32Z</time></trkpt><trkpt lat="45.66805150689399" lon="9.870805365208028"><ele>455.0</ele><time>2026-03-28T15:53:33Z</time></trkpt><trkpt lat="45.667995919487986" lon="9.870927478181631"><ele>455.8</ele><time>2026-03-28T15:53:34.001Z</time></trkpt><trkpt lat="45.66793490955785" lon="9.87105739005197"><ele>456.6</ele><time>2026-03-28T15:53:35.001Z</time></trkpt><trkpt lat="45.66787935760251" lon="9.871205277871178"><ele>457.4</ele><time>2026-03-28T15:53:36.001Z</time></trkpt><trkpt lat="45.66783300258604" lon="9.871307418231876"><ele>458.2</ele><time>2026-03-28T15:53:37.001Z</time></trkpt><trkpt lat="45.667771019536566" lon="9.87143458047552"><ele>459.0</ele><time>2026-03-28T15:53:39.001Z</time></trkpt><trkpt lat="45.66781617927926" lon="9.871612564091413"><ele>459.0</ele><time>2026-03-28T15:53:41.001Z</time></trkpt><trkpt lat="45.66785223241663" lon="9.871736404429004"><ele>459.0</ele><time>2026-03-28T15:53:42.001Z</time></trkpt><trkpt lat="45.667897564757" lon="9.871886892580015"><ele>459.0</ele><time>2026-03-28T15:53:43.001Z</time></trkpt><trkpt lat="45.66793613080935" lon="9.872031237900405"><ele>459.0</ele><time>2026-03-28T15:53:44.001Z</time></trkpt><trkpt lat="45.66795351418576" lon="9.872169713347391"><ele>459.0</ele><time>2026-03-28T15:53:45Z</time></trkpt><trkpt lat="45.667963411539056" lon="9.872283772410157"><ele>459.4</ele><time>2026-03-28T15:53:46Z</time></trkpt><trkpt lat="45.66796754179406" lon="9.872403176834604"><ele>459.79999999999995</ele><time>2026-03-28T15:53:47Z</time></trkpt><trkpt lat="45.66796641950772" lon="9.872517062182588"><ele>460.20000000000005</ele><time>2026-03-28T15:53:48Z</time></trkpt><trkpt lat="45.66800958041387" lon="9.872667978602472"><ele>460.6</ele><time>2026-03-28T15:53:50Z</time></trkpt><trkpt lat="45.66803782099764" lon="9.872750177560262"><ele>461.0</ele><time>2026-03-28T15:53:51Z</time></trkpt><trkpt lat="45.668044075870384" lon="9.872933977152515"><ele>461.0</ele><time>2026-03-28T15:53:53Z</time></trkpt><trkpt lat="45.66802041303534" lon="9.873073268452737"><ele>461.0</ele><time>2026-03-28T15:53:54Z</time></trkpt><trkpt lat="45.668015601366605" lon="9.87319949066229"><ele>461.0</ele><time>2026-03-28T15:53:55Z</time></trkpt><trkpt lat="45.668033655722105" lon="9.873309103725271"><ele>461.0</ele><time>2026-03-28T15:53:56Z</time></trkpt><trkpt lat="45.66812766065691" lon="9.873462715342573"><ele>461.0</ele><time>2026-03-28T15:53:58Z</time></trkpt><trkpt lat="45.66820202865534" lon="9.873568779428346"><ele>460.75</ele><time>2026-03-28T15:53:59Z</time></trkpt><trkpt lat="45.66828789512711" lon="9.873675771362697"><ele>460.5</ele><time>2026-03-28T15:54:00Z</time></trkpt><trkpt lat="45.66833939831236" lon="9.873819826012314"><ele>460.25</ele><time>2026-03-28T15:54:01Z</time></trkpt><trkpt lat="45.668407485378715" lon="9.873953455929419"><ele>460.0</ele><time>2026-03-28T15:54:02Z</time></trkpt><trkpt lat="45.668466323644125" lon="9.874088309766549"><ele>460.0</ele><time>2026-03-28T15:54:03Z</time></trkpt><trkpt lat="45.66852002258591" lon="9.87422694186932"><ele>460.0</ele><time>2026-03-28T15:54:04Z</time></trkpt><trkpt lat="45.668564727384506" lon="9.874361608221374"><ele>460.0</ele><time>2026-03-28T15:54:05Z</time></trkpt><trkpt lat="45.668602003212236" lon="9.874481163481999"><ele>460.0</ele><time>2026-03-28T15:54:06Z</time></trkpt><trkpt lat="45.66859944923089" lon="9.874594796050333"><ele>460.0</ele><time>2026-03-28T15:54:07Z</time></trkpt><trkpt lat="45.668569651906985" lon="9.874725463434032"><ele>460.4</ele><time>2026-03-28T15:54:08Z</time></trkpt><trkpt lat="45.668528604859965" lon="9.874857719308615"><ele>460.8</ele><time>2026-03-28T15:54:09Z</time></trkpt><trkpt lat="45.66846494897137" lon="9.874970923846154"><ele>461.20000000000005</ele><time>2026-03-28T15:54:10Z</time></trkpt><trkpt lat="45.668371964628754" lon="9.875054885925325"><ele>461.6</ele><time>2026-03-28T15:54:11Z</time></trkpt><trkpt lat="45.668278966086035" lon="9.875127160613237"><ele>462.0</ele><time>2026-03-28T15:54:12Z</time></trkpt><trkpt lat="45.66821507086901" lon="9.875189664801262"><ele>462.6</ele><time>2026-03-28T15:54:13Z</time></trkpt><trkpt lat="45.668178060647605" lon="9.875304448634202"><ele>463.20000000000005</ele><time>2026-03-28T15:54:14Z</time></trkpt><trkpt lat="45.66815345536154" lon="9.875429084201524"><ele>463.8</ele><time>2026-03-28T15:54:15Z</time></trkpt><trkpt lat="45.66815278630141" lon="9.875559451938557"><ele>464.4</ele><time>2026-03-28T15:54:16Z</time></trkpt><trkpt lat="45.66819847024255" lon="9.875718890511179"><ele>465.0</ele><time>2026-03-28T15:54:17Z</time></trkpt><trkpt lat="45.66824261812682" lon="9.87587748327454"><ele>465.0</ele><time>2026-03-28T15:54:18Z</time></trkpt><trkpt lat="45.66828401936867" lon="9.876040679010213"><ele>465.0</ele><time>2026-03-28T15:54:19Z</time></trkpt><trkpt lat="45.66833831351556" lon="9.876176522894662"><ele>465.0</ele><time>2026-03-28T15:54:20Z</time></trkpt><trkpt lat="45.66837137859797" lon="9.8762995537262"><ele>465.0</ele><time>2026-03-28T15:54:21Z</time></trkpt><trkpt lat="45.66838804342441" lon="9.876417165399154"><ele>465.0</ele><time>2026-03-28T15:54:22Z</time></trkpt><trkpt lat="45.668413747773805" lon="9.87651120782092"><ele>465.0</ele><time>2026-03-28T15:54:23Z</time></trkpt><trkpt lat="45.668415401328716" lon="9.876629812707646"><ele>465.0</ele><time>2026-03-28T15:54:24Z</time></trkpt><trkpt lat="45.668411340433295" lon="9.876771893907634"><ele>465.0</ele><time>2026-03-28T15:54:25Z</time></trkpt><trkpt lat="45.668379735632975" lon="9.876920970490461"><ele>465.0</ele><time>2026-03-28T15:54:26Z</time></trkpt><trkpt lat="45.668339181605226" lon="9.877068343166371"><ele>465.0</ele><time>2026-03-28T15:54:27Z</time></trkpt><trkpt lat="45.66830471285957" lon="9.877229374669817"><ele>467.2</ele><time>2026-03-28T15:54:28Z</time></trkpt><trkpt lat="45.66825888069693" lon="9.877371734265344"><ele>469.4</ele><time>2026-03-28T15:54:29Z</time></trkpt><trkpt lat="45.66820850956604" lon="9.877497836887205"><ele>471.6</ele><time>2026-03-28T15:54:30Z</time></trkpt><trkpt lat="45.66815560467032" lon="9.87762834785587"><ele>473.8</ele><time>2026-03-28T15:54:31Z</time></trkpt><trkpt lat="45.66808498624524" lon="9.877692882335955"><ele>476.0</ele><time>2026-03-28T15:54:32Z</time></trkpt><trkpt lat="45.66793735007299" lon="9.877702935489165"><ele>478.20000000000005</ele><time>2026-03-28T15:54:34Z</time></trkpt><trkpt lat="45.66783364530745" lon="9.877650812781118"><ele>480.40000000000003</ele><time>2026-03-28T15:54:35Z</time></trkpt><trkpt lat="45.66773689812521" lon="9.87762628742679"><ele>482.6</ele><time>2026-03-28T15:54:36Z</time></trkpt><trkpt lat="45.66765209837783" lon="9.877597822959856"><ele>484.8</ele><time>2026-03-28T15:54:37Z</time></trkpt><trkpt lat="45.667553659580264" lon="9.877483678430552"><ele>487.0</ele><time>2026-03-28T15:54:39Z</time></trkpt><trkpt lat="45.667475985811265" lon="9.877477013895074"><ele>487.00000000000006</ele><time>2026-03-28T15:54:40Z</time></trkpt><trkpt lat="45.66738786978054" lon="9.877488346244016"><ele>487.0</ele><time>2026-03-28T15:54:41Z</time></trkpt><trkpt lat="45.66731435576036" lon="9.877482566697347"><ele>487.0</ele><time>2026-03-28T15:54:42Z</time></trkpt><trkpt lat="45.667244008347616" lon="9.87753892303343"><ele>487.0</ele><time>2026-03-28T15:54:43Z</time></trkpt><trkpt lat="45.667155625947714" lon="9.877527215246559"><ele>487.00000000000006</ele><time>2026-03-28T15:54:44Z</time></trkpt><trkpt lat="45.667093481390125" lon="9.877455547520997"><ele>487.0</ele><time>2026-03-28T15:54:45Z</time></trkpt><trkpt lat="45.66702472659418" lon="9.87737001368006"><ele>487.0</ele><time>2026-03-28T15:54:46Z</time></trkpt><trkpt lat="45.66694960891759" lon="9.877258455629333"><ele>487.00000000000006</ele><time>2026-03-28T15:54:47Z</time></trkpt><trkpt lat="45.666863606582005" lon="9.87718494759363"><ele>487.00000000000006</ele><time>2026-03-28T15:54:48Z</time></trkpt><trkpt lat="45.666771986861235" lon="9.877114528176826"><ele>487.0</ele><time>2026-03-28T15:54:49Z</time></trkpt><trkpt lat="45.666690178215525" lon="9.87704651787005"><ele>487.0</ele><time>2026-03-28T15:54:50Z</time></trkpt><trkpt lat="45.66663038623654" lon="9.876960324335647"><ele>492.20000000000005</ele><time>2026-03-28T15:54:51Z</time></trkpt><trkpt lat="45.6665113862879" lon="9.876922429735307"><ele>497.40000000000003</ele><time>2026-03-28T15:54:53Z</time></trkpt><trkpt lat="45.66638300405079" lon="9.876955307696715"><ele>502.59999999999997</ele><time>2026-03-28T15:54:55Z</time></trkpt><trkpt lat="45.66631823369007" lon="9.877003995557308"><ele>507.79999999999995</ele><time>2026-03-28T15:54:56Z</time></trkpt><trkpt lat="45.66623634849666" lon="9.877057155638951"><ele>513.0</ele><time>2026-03-28T15:54:57Z</time></trkpt><trkpt lat="45.66614056740156" lon="9.877112109444724"><ele>513.4</ele><time>2026-03-28T15:54:58Z</time></trkpt><trkpt lat="45.666023862672596" lon="9.877202200512613"><ele>513.8</ele><time>2026-03-28T15:54:59Z</time></trkpt><trkpt lat="45.665940357944" lon="9.877263553945205"><ele>514.2</ele><time>2026-03-28T15:55:00Z</time></trkpt><trkpt lat="45.6658543024587" lon="9.877353652433023"><ele>514.6</ele><time>2026-03-28T15:55:01Z</time></trkpt><trkpt lat="45.665774941819855" lon="9.877448598139503"><ele>515.0</ele><time>2026-03-28T15:55:02Z</time></trkpt><trkpt lat="45.665686679794064" lon="9.877517923860704"><ele>515.0</ele><time>2026-03-28T15:55:03Z</time></trkpt><trkpt lat="45.665584822492484" lon="9.87759551444158"><ele>515.0</ele><time>2026-03-28T15:55:04Z</time></trkpt><trkpt lat="45.665490668045486" lon="9.877655042685404"><ele>515.0</ele><time>2026-03-28T15:55:05Z</time></trkpt><trkpt lat="45.66538851593453" lon="9.877718848840498"><ele>515.0</ele><time>2026-03-28T15:55:06Z</time></trkpt><trkpt lat="45.665293019605876" lon="9.877777962543611"><ele>515.0</ele><time>2026-03-28T15:55:07Z</time></trkpt><trkpt lat="45.665184863085294" lon="9.877824897993683"><ele>518.2</ele><time>2026-03-28T15:55:08Z</time></trkpt><trkpt lat="45.665118478668475" lon="9.877898707608542"><ele>521.4</ele><time>2026-03-28T15:55:09Z</time></trkpt><trkpt lat="45.66503190945244" lon="9.87799968824488"><ele>524.6</ele><time>2026-03-28T15:55:10Z</time></trkpt><trkpt lat="45.66495658777262" lon="9.878108028347855"><ele>527.8</ele><time>2026-03-28T15:55:11Z</time></trkpt><trkpt lat="45.66487114974097" lon="9.878201100299709"><ele>531.0</ele><time>2026-03-28T15:55:12Z</time></trkpt><trkpt lat="45.66478055763534" lon="9.878267016913766"><ele>531.0</ele><time>2026-03-28T15:55:13Z</time></trkpt><trkpt lat="45.66467492316783" lon="9.878336767640159"><ele>531.0</ele><time>2026-03-28T15:55:14Z</time></trkpt><trkpt lat="45.66456211021783" lon="9.878417988519335"><ele>531.0</ele><time>2026-03-28T15:55:15Z</time></trkpt><trkpt lat="45.66445435668295" lon="9.878470768437994"><ele>531.0</ele><time>2026-03-28T15:55:16Z</time></trkpt><trkpt lat="45.664329536444455" lon="9.878544935427966"><ele>534.25</ele><time>2026-03-28T15:55:17Z</time></trkpt><trkpt lat="45.66421890329982" lon="9.878601555647645"><ele>537.5</ele><time>2026-03-28T15:55:18Z</time></trkpt><trkpt lat="45.66408391278733" lon="9.878620398300106"><ele>540.75</ele><time>2026-03-28T15:55:20Z</time></trkpt><trkpt lat="45.66399977409929" lon="9.878669714111455"><ele>544.0</ele><time>2026-03-28T15:55:21Z</time></trkpt><trkpt lat="45.66389650539152" lon="9.878731729796714"><ele>544.0</ele><time>2026-03-28T15:55:22Z</time></trkpt><trkpt lat="45.66383721067566" lon="9.878820077658402"><ele>544.0</ele><time>2026-03-28T15:55:23Z</time></trkpt><trkpt lat="45.66380311157576" lon="9.878920687610792"><ele>544.0</ele><time>2026-03-28T15:55:24Z</time></trkpt><trkpt lat="45.663785318543596" lon="9.879051666049902"><ele>544.0</ele><time>2026-03-28T15:55:25Z</time></trkpt><trkpt lat="45.66376286863776" lon="9.879215891942021"><ele>544.0</ele><time>2026-03-28T15:55:26Z</time></trkpt><trkpt lat="45.663725696735774" lon="9.879371286240993"><ele>544.8</ele><time>2026-03-28T15:55:27Z</time></trkpt><trkpt lat="45.663659153539925" lon="9.879467875734244"><ele>545.5999999999999</ele><time>2026-03-28T15:55:28Z</time></trkpt><trkpt lat="45.663568667030276" lon="9.879540537666273"><ele>546.4</ele><time>2026-03-28T15:55:29Z</time></trkpt><trkpt lat="45.66346280163769" lon="9.879591593649474"><ele>547.1999999999999</ele><time>2026-03-28T15:55:30Z</time></trkpt><trkpt lat="45.663371332773316" lon="9.879695418979201"><ele>548.0</ele><time>2026-03-28T15:55:31Z</time></trkpt><trkpt lat="45.663272789270934" lon="9.879766787988583"><ele>548.0</ele><time>2026-03-28T15:55:32Z</time></trkpt><trkpt lat="45.66317916161245" lon="9.879851252251068"><ele>548.0</ele><time>2026-03-28T15:55:33Z</time></trkpt><trkpt lat="45.66309600087893" lon="9.879961324010976"><ele>548.0</ele><time>2026-03-28T15:55:34Z</time></trkpt><trkpt lat="45.66301174471738" lon="9.880069188921407"><ele>548.0</ele><time>2026-03-28T15:55:35Z</time></trkpt><trkpt lat="45.662924010663744" lon="9.880177576481442"><ele>550.4</ele><time>2026-03-28T15:55:36Z</time></trkpt><trkpt lat="45.66287043961021" lon="9.880335413873963"><ele>552.8</ele><time>2026-03-28T15:55:37Z</time></trkpt><trkpt lat="45.66281148492592" lon="9.880470455592807"><ele>555.2</ele><time>2026-03-28T15:55:38Z</time></trkpt><trkpt lat="45.662775029816004" lon="9.880586915718391"><ele>557.6</ele><time>2026-03-28T15:55:39Z</time></trkpt><trkpt lat="45.66274573681074" lon="9.880737204216318"><ele>560.0</ele><time>2026-03-28T15:55:40Z</time></trkpt><trkpt lat="45.662724668866154" lon="9.880868069315543"><ele>561.6</ele><time>2026-03-28T15:55:41Z</time></trkpt><trkpt lat="45.66272546182885" lon="9.881014085016647"><ele>563.2</ele><time>2026-03-28T15:55:42Z</time></trkpt><trkpt lat="45.6627595019947" lon="9.881169211609707"><ele>564.8</ele><time>2026-03-28T15:55:43Z</time></trkpt><trkpt lat="45.66278370256135" lon="9.881305525560414"><ele>566.4</ele><time>2026-03-28T15:55:44Z</time></trkpt><trkpt lat="45.66278660599688" lon="9.881429896622265"><ele>568.0</ele><time>2026-03-28T15:55:45Z</time></trkpt><trkpt lat="45.66276177301602" lon="9.88156577940093"><ele>566.1999999999999</ele><time>2026-03-28T15:55:46Z</time></trkpt><trkpt lat="45.6627227578083" lon="9.881663610433794"><ele>564.4</ele><time>2026-03-28T15:55:47Z</time></trkpt><trkpt lat="45.662649515527306" lon="9.881776980532162"><ele>562.5999999999999</ele><time>2026-03-28T15:55:48Z</time></trkpt><trkpt lat="45.66258505869537" lon="9.88192999701709"><ele>560.8</ele><time>2026-03-28T15:55:49Z</time></trkpt><trkpt lat="45.6625123438025" lon="9.882060413404655"><ele>559.0</ele><time>2026-03-28T15:55:50Z</time></trkpt><trkpt lat="45.66245954753084" lon="9.882177565922262"><ele>559.0</ele><time>2026-03-28T15:55:51Z</time></trkpt><trkpt lat="45.662361601098326" lon="9.882269157472921"><ele>559.0</ele><time>2026-03-28T15:55:52Z</time></trkpt><trkpt lat="45.662280420492124" lon="9.882365173885779"><ele>559.0</ele><time>2026-03-28T15:55:53Z</time></trkpt><trkpt lat="45.6622049785109" lon="9.882488144686318"><ele>559.0</ele><time>2026-03-28T15:55:54Z</time></trkpt><trkpt lat="45.662118480004004" lon="9.882594057767179"><ele>559.2</ele><time>2026-03-28T15:55:55Z</time></trkpt><trkpt lat="45.662034546309236" lon="9.882694206776781"><ele>559.4</ele><time>2026-03-28T15:55:56Z</time></trkpt><trkpt lat="45.66195452059656" lon="9.882779211886715"><ele>559.6</ele><time>2026-03-28T15:55:57Z</time></trkpt><trkpt lat="45.66187083377473" lon="9.882855058913458"><ele>559.8</ele><time>2026-03-28T15:55:58Z</time></trkpt><trkpt lat="45.661800446203266" lon="9.882900574110009"><ele>560.0</ele><time>2026-03-28T15:55:59Z</time></trkpt><trkpt lat="45.661741645574125" lon="9.882972589523916"><ele>560.0</ele><time>2026-03-28T15:56:00Z</time></trkpt><trkpt lat="45.66169108226301" lon="9.883104445242381"><ele>560.0</ele><time>2026-03-28T15:56:01Z</time></trkpt><trkpt lat="45.661624906324754" lon="9.883240639186797"><ele>560.0</ele><time>2026-03-28T15:56:02Z</time></trkpt><trkpt lat="45.66157624299613" lon="9.883383040118169"><ele>560.0</ele><time>2026-03-28T15:56:03Z</time></trkpt><trkpt lat="45.66151509879076" lon="9.883488994101647"><ele>560.0</ele><time>2026-03-28T15:56:04Z</time></trkpt><trkpt lat="45.66147740211379" lon="9.883631032271039"><ele>560.6</ele><time>2026-03-28T15:56:05Z</time></trkpt><trkpt lat="45.66141056072777" lon="9.883777175550383"><ele>561.2</ele><time>2026-03-28T15:56:06Z</time></trkpt><trkpt lat="45.66132022113348" lon="9.883848978207588"><ele>561.8</ele><time>2026-03-28T15:56:07Z</time></trkpt><trkpt lat="45.6612425634336" lon="9.883958842307798"><ele>562.4</ele><time>2026-03-28T15:56:08Z</time></trkpt><trkpt lat="45.66116363850343" lon="9.884022661592553"><ele>563.0</ele><time>2026-03-28T15:56:09Z</time></trkpt><trkpt lat="45.66106375011233" lon="9.884062893205007"><ele>563.5</ele><time>2026-03-28T15:56:10Z</time></trkpt><trkpt lat="45.66097031897823" lon="9.88411407040693"><ele>564.0</ele><time>2026-03-28T15:56:11Z</time></trkpt><trkpt lat="45.660853465244415" lon="9.884153370419556"><ele>564.5</ele><time>2026-03-28T15:56:12Z</time></trkpt><trkpt lat="45.66073466112157" lon="9.884194952340831"><ele>565.0</ele><time>2026-03-28T15:56:13Z</time></trkpt><trkpt lat="45.660624803835084" lon="9.884235635498479"><ele>565.1666666666667</ele><time>2026-03-28T15:56:14Z</time></trkpt><trkpt lat="45.6605249827251" lon="9.884278892563941"><ele>565.3333333333334</ele><time>2026-03-28T15:56:15Z</time></trkpt><trkpt lat="45.6604545252352" lon="9.884329078354853"><ele>565.5</ele><time>2026-03-28T15:56:16Z</time></trkpt><trkpt lat="45.660396653739454" lon="9.884383177004187"><ele>565.6666666666666</ele><time>2026-03-28T15:56:17Z</time></trkpt><trkpt lat="45.660343113951086" lon="9.884436944760335"><ele>565.8333333333333</ele><time>2026-03-28T15:56:18Z</time></trkpt><trkpt lat="45.66027358639599" lon="9.884454038314182"><ele>566.0</ele><time>2026-03-28T15:56:20Z</time></trkpt><trkpt lat="45.66024891419453" lon="9.884365896600535"><ele>565.2</ele><time>2026-03-28T15:56:22Z</time></trkpt><trkpt lat="45.6601071748054" lon="9.88425083255772"><ele>564.4000000000001</ele><time>2026-03-28T15:56:53Z</time></trkpt><trkpt lat="45.66004318383149" lon="9.884204400126452"><ele>563.6</ele><time>2026-03-28T15:56:54Z</time></trkpt><trkpt lat="45.659960047481476" lon="9.884129730294102"><ele>562.8000000000001</ele><time>2026-03-28T15:56:55Z</time></trkpt><trkpt lat="45.659854544265876" lon="9.884087633351722"><ele>562.0</ele><time>2026-03-28T15:56:56Z</time></trkpt><trkpt lat="45.65972794861464" lon="9.884025537913983"><ele>562.0</ele><time>2026-03-28T15:56:57Z</time></trkpt><trkpt lat="45.65961292371691" lon="9.883981977483364"><ele>562.0</ele><time>2026-03-28T15:56:58Z</time></trkpt><trkpt lat="45.65951597116761" lon="9.883876784520133"><ele>562.0</ele><time>2026-03-28T15:56:59Z</time></trkpt><trkpt lat="45.65939424534336" lon="9.88381269322287"><ele>562.0</ele><time>2026-03-28T15:57:00Z</time></trkpt><trkpt lat="45.65928250102151" lon="9.883738807730023"><ele>563.4</ele><time>2026-03-28T15:57:01Z</time></trkpt><trkpt lat="45.65918420153904" lon="9.883669265966724"><ele>564.8000000000001</ele><time>2026-03-28T15:57:02Z</time></trkpt><trkpt lat="45.659095934193395" lon="9.883578767612802"><ele>566.2</ele><time>2026-03-28T15:57:03Z</time></trkpt><trkpt lat="45.659038500920566" lon="9.883541341139752"><ele>567.6</ele><time>2026-03-28T15:57:04Z</time></trkpt><trkpt lat="45.65894655395382" lon="9.883496711523568"><ele>569.0</ele><time>2026-03-28T15:57:05Z</time></trkpt><trkpt lat="45.65886650043186" lon="9.883446963855926"><ele>569.0</ele><time>2026-03-28T15:57:06Z</time></trkpt><trkpt lat="45.65875978889828" lon="9.883437314362496"><ele>569.0</ele><time>2026-03-28T15:57:07Z</time></trkpt><trkpt lat="45.65868175047267" lon="9.8834391136326"><ele>569.0</ele><time>2026-03-28T15:57:08Z</time></trkpt><trkpt lat="45.65858391791188" lon="9.883314103539073"><ele>569.0</ele><time>2026-03-28T15:57:10Z</time></trkpt><trkpt lat="45.658492604318475" lon="9.883244504409877"><ele>569.0</ele><time>2026-03-28T15:57:11Z</time></trkpt><trkpt lat="45.65839565484934" lon="9.883178403511552"><ele>569.4</ele><time>2026-03-28T15:57:12Z</time></trkpt><trkpt lat="45.65829310358921" lon="9.883125079857203"><ele>569.8</ele><time>2026-03-28T15:57:13Z</time></trkpt><trkpt lat="45.65820768820838" lon="9.88308490211466"><ele>570.2</ele><time>2026-03-28T15:57:14Z</time></trkpt><trkpt lat="45.65809840315719" lon="9.883067674173537"><ele>570.6</ele><time>2026-03-28T15:57:15Z</time></trkpt><trkpt lat="45.65800026250045" lon="9.883010570168214"><ele>571.0</ele><time>2026-03-28T15:57:16Z</time></trkpt><trkpt lat="45.65792526572364" lon="9.882943660041708"><ele>571.0</ele><time>2026-03-28T15:57:17Z</time></trkpt><trkpt lat="45.657893901392484" lon="9.882821309549064"><ele>571.0</ele><time>2026-03-28T15:57:18Z</time></trkpt><trkpt lat="45.657868024726504" lon="9.882704134771615"><ele>571.0</ele><time>2026-03-28T15:57:19Z</time></trkpt><trkpt lat="45.65782624618056" lon="9.882620995546842"><ele>571.0</ele><time>2026-03-28T15:57:20Z</time></trkpt><trkpt lat="45.657753676436656" lon="9.882541215369006"><ele>571.0</ele><time>2026-03-28T15:57:21Z</time></trkpt><trkpt lat="45.65770221468126" lon="9.882452031288503"><ele>571.0</ele><time>2026-03-28T15:57:23Z</time></trkpt><trkpt lat="45.65761449137426" lon="9.88246375174758"><ele>569.3333333333334</ele><time>2026-03-28T15:57:26Z</time></trkpt><trkpt lat="45.65755107174429" lon="9.88248727555123"><ele>567.6666666666667</ele><time>2026-03-28T15:57:27Z</time></trkpt><trkpt lat="45.6574704126507" lon="9.882533351534262"><ele>566.0</ele><time>2026-03-28T15:57:29Z</time></trkpt><trkpt lat="45.65739289274347" lon="9.88252037470719"><ele>564.3333333333334</ele><time>2026-03-28T15:57:31Z</time></trkpt><trkpt lat="45.65730604726186" lon="9.882515476323292"><ele>562.6666666666666</ele><time>2026-03-28T15:57:38Z</time></trkpt><trkpt lat="45.65724575962659" lon="9.882544378453945"><ele>561.0</ele><time>2026-03-28T15:57:43Z</time></trkpt><trkpt lat="45.65716831246575" lon="9.882557951360527"><ele>561.1666666666666</ele><time>2026-03-28T15:57:48Z</time></trkpt><trkpt lat="45.65711101175973" lon="9.882607596064474"><ele>561.3333333333334</ele><time>2026-03-28T15:57:50Z</time></trkpt><trkpt lat="45.65701066883691" lon="9.882662132827862"><ele>561.5</ele><time>2026-03-28T15:57:52Z</time></trkpt><trkpt lat="45.65694515154187" lon="9.88271457254139"><ele>561.6666666666667</ele><time>2026-03-28T15:57:53Z</time></trkpt><trkpt lat="45.65688547392159" lon="9.88277312102831"><ele>561.8333333333334</ele><time>2026-03-28T15:57:54Z</time></trkpt><trkpt lat="45.65681653076795" lon="9.882851617040192"><ele>562.0</ele><time>2026-03-28T15:57:55Z</time></trkpt><trkpt lat="45.65673855963896" lon="9.882919977791788"><ele>562.0</ele><time>2026-03-28T15:57:56Z</time></trkpt><trkpt lat="45.656678458401565" lon="9.882974957035046"><ele>562.0</ele><time>2026-03-28T15:57:57Z</time></trkpt><trkpt lat="45.656605318783605" lon="9.883037365359788"><ele>562.0</ele><time>2026-03-28T15:57:58Z</time></trkpt><trkpt lat="45.65654424978874" lon="9.883097518201291"><ele>562.0</ele><time>2026-03-28T15:57:59Z</time></trkpt><trkpt lat="45.656537669366955" lon="9.883193400939811"><ele>562.0</ele><time>2026-03-28T15:58:04Z</time></trkpt><trkpt lat="45.65661263026623" lon="9.883147567419337"><ele>562.0</ele><time>2026-03-28T15:58:08Z</time></trkpt><trkpt lat="45.6566646484593" lon="9.883071248483086"><ele>562.0</ele><time>2026-03-28T15:58:12Z</time></trkpt><trkpt lat="45.65674184491082" lon="9.883027805254901"><ele>562.0</ele><time>2026-03-28T15:58:15Z</time></trkpt><trkpt lat="45.65675276049667" lon="9.88315621967495"><ele>562.0</ele><time>2026-03-28T15:58:18Z</time></trkpt><trkpt lat="45.656707969861145" lon="9.883243098424714"><ele>562.0</ele><time>2026-03-28T15:58:20Z</time></trkpt><trkpt lat="45.65671010667259" lon="9.883342520944012"><ele>562.0</ele><time>2026-03-28T15:58:23Z</time></trkpt><trkpt lat="45.65670625039385" lon="9.883451056013643"><ele>562.0</ele><time>2026-03-28T15:58:25Z</time></trkpt><trkpt lat="45.65670295751076" lon="9.883604253742224"><ele>564.2</ele><time>2026-03-28T15:58:28Z</time></trkpt><trkpt lat="45.65673034750501" lon="9.883747329739133"><ele>566.4000000000001</ele><time>2026-03-28T15:58:31Z</time></trkpt><trkpt lat="45.656722166874665" lon="9.883900422941563"><ele>568.5999999999999</ele><time>2026-03-28T15:58:32Z</time></trkpt><trkpt lat="45.6567265246229" lon="9.884013163914503"><ele>570.8</ele><time>2026-03-28T15:58:33Z</time></trkpt><trkpt lat="45.656787518253815" lon="9.884142791304294"><ele>573.0</ele><time>2026-03-28T15:58:34Z</time></trkpt><trkpt lat="45.65683735199212" lon="9.884230037576192"><ele>573.0</ele><time>2026-03-28T15:58:35Z</time></trkpt><trkpt lat="45.65681447193449" lon="9.884342659715008"><ele>573.0</ele><time>2026-03-28T15:58:37Z</time></trkpt><trkpt lat="45.65677366472825" lon="9.884423666937879"><ele>573.0</ele><time>2026-03-28T15:58:38Z</time></trkpt><trkpt lat="45.65668552954288" lon="9.884572655455354"><ele>573.0</ele><time>2026-03-28T15:58:40Z</time></trkpt><trkpt lat="45.65667564243786" lon="9.8846754941216"><ele>573.0</ele><time>2026-03-28T15:58:42Z</time></trkpt><trkpt lat="45.6565560879732" lon="9.885000265594421"><ele>571.1999999999999</ele><time>2026-03-28T15:58:44Z</time></trkpt><trkpt lat="45.65651178027782" lon="9.885102094286804"><ele>569.4</ele><time>2026-03-28T15:58:45Z</time></trkpt><trkpt lat="45.65656914115025" lon="9.88522188460323"><ele>567.5999999999999</ele><time>2026-03-28T15:58:46Z</time></trkpt><trkpt lat="45.65650351780001" lon="9.885357436120357"><ele>565.8</ele><time>2026-03-28T15:58:48Z</time></trkpt><trkpt lat="45.65646450802807" lon="9.885459771985238"><ele>564.0</ele><time>2026-03-28T15:58:54Z</time></trkpt><trkpt lat="45.6563863987773" lon="9.885557314179739"><ele>564.0</ele><time>2026-03-28T15:58:55Z</time></trkpt><trkpt lat="45.656326199083644" lon="9.885668546983819"><ele>564.0</ele><time>2026-03-28T15:58:57Z</time></trkpt><trkpt lat="45.656255941640744" lon="9.885800537754676"><ele>564.0</ele><time>2026-03-28T15:58:59Z</time></trkpt><trkpt lat="45.65616081055139" lon="9.88589414789176"><ele>564.0</ele><time>2026-03-28T15:59:01Z</time></trkpt><trkpt lat="45.656109191742395" lon="9.885954220212952"><ele>564.0</ele><time>2026-03-28T15:59:03Z</time></trkpt><trkpt lat="45.656032587684614" lon="9.886064151404469"><ele>562.6</ele><time>2026-03-28T15:59:05Z</time></trkpt><trkpt lat="45.65595233105408" lon="9.886209623204303"><ele>561.2</ele><time>2026-03-28T15:59:07Z</time></trkpt><trkpt lat="45.655893569373355" lon="9.886304435969928"><ele>559.8000000000001</ele><time>2026-03-28T15:59:08Z</time></trkpt><trkpt lat="45.65584773018303" lon="9.886391179366207"><ele>558.4</ele><time>2026-03-28T15:59:09Z</time></trkpt><trkpt lat="45.6557929775616" lon="9.88651609794268"><ele>557.0</ele><time>2026-03-28T15:59:11Z</time></trkpt><trkpt lat="45.655773949961976" lon="9.886617638982885"><ele>557.0</ele><time>2026-03-28T15:59:12Z</time></trkpt><trkpt lat="45.655764584369116" lon="9.886723634183575"><ele>557.0</ele><time>2026-03-28T15:59:13Z</time></trkpt><trkpt lat="45.655718207777284" lon="9.886843090846689"><ele>557.0</ele><time>2026-03-28T15:59:14Z</time></trkpt><trkpt lat="45.65566483793432" lon="9.886985121819468"><ele>557.0</ele><time>2026-03-28T15:59:15Z</time></trkpt><trkpt lat="45.65562647362415" lon="9.887078696156484"><ele>557.0</ele><time>2026-03-28T15:59:16Z</time></trkpt><trkpt lat="45.65556265119328" lon="9.887141434111026"><ele>557.0</ele><time>2026-03-28T15:59:17Z</time></trkpt><trkpt lat="45.655498066750276" lon="9.887188632237043"><ele>555.8333333333333</ele><time>2026-03-28T15:59:18Z</time></trkpt><trkpt lat="45.655494059007324" lon="9.887297426816799"><ele>554.6666666666666</ele><time>2026-03-28T15:59:19Z</time></trkpt><trkpt lat="45.65547020722608" lon="9.88741019130209"><ele>553.5</ele><time>2026-03-28T15:59:20Z</time></trkpt><trkpt lat="45.65543818960757" lon="9.887499981851171"><ele>552.3333333333334</ele><time>2026-03-28T15:59:21Z</time></trkpt><trkpt lat="45.65540599615837" lon="9.887671921483117"><ele>551.1666666666667</ele><time>2026-03-28T15:59:23Z</time></trkpt><trkpt lat="45.65538301185228" lon="9.887756870158782"><ele>550.0</ele><time>2026-03-28T15:59:24Z</time></trkpt><trkpt lat="45.6553018943836" lon="9.887879590658331"><ele>548.6</ele><time>2026-03-28T15:59:26Z</time></trkpt><trkpt lat="45.65521949216707" lon="9.888003730595385"><ele>547.2</ele><time>2026-03-28T15:59:28Z</time></trkpt><trkpt lat="45.65516378411886" lon="9.888147771649637"><ele>545.8</ele><time>2026-03-28T15:59:30Z</time></trkpt><trkpt lat="45.655106409058114" lon="9.888243282293704"><ele>544.4</ele><time>2026-03-28T15:59:32Z</time></trkpt><trkpt lat="45.655044166903316" lon="9.888269985002811"><ele>543.0</ele><time>2026-03-28T15:59:34Z</time></trkpt><trkpt lat="45.655012631959416" lon="9.888366794418674"><ele>542.2857142857143</ele><time>2026-03-28T15:59:38Z</time></trkpt><trkpt lat="45.65498060287282" lon="9.888485283654791"><ele>541.5714285714286</ele><time>2026-03-28T15:59:41Z</time></trkpt><trkpt lat="45.65492002626858" lon="9.888531514086841"><ele>540.8571428571429</ele><time>2026-03-28T15:59:44Z</time></trkpt><trkpt lat="45.65488317255006" lon="9.888607725596437"><ele>540.1428571428571</ele><time>2026-03-28T15:59:46Z</time></trkpt><trkpt lat="45.65486673982531" lon="9.888711268297026"><ele>539.4285714285714</ele><time>2026-03-28T15:59:48Z</time></trkpt><trkpt lat="45.65485077195743" lon="9.888816759275388"><ele>538.7142857142858</ele><time>2026-03-28T15:59:50Z</time></trkpt><trkpt lat="45.65482586901145" lon="9.888920864387156"><ele>538.0</ele><time>2026-03-28T15:59:52Z</time></trkpt><trkpt lat="45.654714581014055" lon="9.889336752847349"><ele>537.6</ele><time>2026-03-28T15:59:54Z</time></trkpt><trkpt lat="45.65473777248504" lon="9.889500094821438"><ele>537.1999999999999</ele><time>2026-03-28T15:59:56Z</time></trkpt><trkpt lat="45.65478596957645" lon="9.889562080906"><ele>536.8</ele><time>2026-03-28T15:59:57Z</time></trkpt><trkpt lat="45.654878120991015" lon="9.889652070288577"><ele>536.4</ele><time>2026-03-28T15:59:59Z</time></trkpt><trkpt lat="45.65492750619573" lon="9.88979661482055"><ele>536.0</ele><time>2026-03-28T16:00:01Z</time></trkpt><trkpt lat="45.654985434881624" lon="9.889904400546015"><ele>536.0</ele><time>2026-03-28T16:00:03Z</time></trkpt><trkpt lat="45.65511696771263" lon="9.889950059794318"><ele>536.0</ele><time>2026-03-28T16:00:05Z</time></trkpt><trkpt lat="45.65519320874289" lon="9.889938717818584"><ele>536.0</ele><time>2026-03-28T16:00:06Z</time></trkpt><trkpt lat="45.65526495223758" lon="9.889926472446739"><ele>536.0</ele><time>2026-03-28T16:00:07Z</time></trkpt><trkpt lat="45.65533130530144" lon="9.889904891433435"><ele>536.0</ele><time>2026-03-28T16:00:08Z</time></trkpt><trkpt lat="45.65540635395703" lon="9.889894799549142"><ele>536.0</ele><time>2026-03-28T16:00:09Z</time></trkpt><trkpt lat="45.655482017563045" lon="9.88988433034149"><ele>532.2</ele><time>2026-03-28T16:00:10Z</time></trkpt><trkpt lat="45.65557223020231" lon="9.8898324123199"><ele>528.4000000000001</ele><time>2026-03-28T16:00:11Z</time></trkpt><trkpt lat="45.65561943262922" lon="9.889730093523399"><ele>524.6</ele><time>2026-03-28T16:00:12Z</time></trkpt><trkpt lat="45.65573310174475" lon="9.889808576418734"><ele>520.8000000000001</ele><time>2026-03-28T16:00:14Z</time></trkpt><trkpt lat="45.65579646097257" lon="9.889845945462579"><ele>517.0</ele><time>2026-03-28T16:00:17Z</time></trkpt><trkpt lat="45.65583343691866" lon="9.889945381521969"><ele>517.0</ele><time>2026-03-28T16:00:22Z</time></trkpt><trkpt lat="45.65578084121106" lon="9.890054611571033"><ele>517.0</ele><time>2026-03-28T16:00:24Z</time></trkpt><trkpt lat="45.65575330779262" lon="9.890168512816668"><ele>517.0</ele><time>2026-03-28T16:00:25Z</time></trkpt><trkpt lat="45.65571543778388" lon="9.890246640262047"><ele>517.0</ele><time>2026-03-28T16:00:26Z</time></trkpt><trkpt lat="45.65563130493052" lon="9.89039282691602"><ele>517.0</ele><time>2026-03-28T16:00:28Z</time></trkpt><trkpt lat="45.65559420693134" lon="9.89050453645164"><ele>513.6666666666667</ele><time>2026-03-28T16:00:29Z</time></trkpt><trkpt lat="45.65552274413158" lon="9.890586423971138"><ele>510.33333333333337</ele><time>2026-03-28T16:00:31Z</time></trkpt><trkpt lat="45.65556175669256" lon="9.890664075812575"><ele>507.0</ele><time>2026-03-28T16:00:33Z</time></trkpt><trkpt lat="45.65558408661617" lon="9.890776785836298"><ele>503.66666666666663</ele><time>2026-03-28T16:00:35Z</time></trkpt><trkpt lat="45.65557278976399" lon="9.890865571001955"><ele>500.3333333333333</ele><time>2026-03-28T16:00:36Z</time></trkpt><trkpt lat="45.65551404510409" lon="9.891002299752255"><ele>497.0</ele><time>2026-03-28T16:00:38Z</time></trkpt><trkpt lat="45.65545237336276" lon="9.89121409673582"><ele>495.16666666666663</ele><time>2026-03-28T16:00:40Z</time></trkpt><trkpt lat="45.655401960830346" lon="9.891285868834618"><ele>493.3333333333333</ele><time>2026-03-28T16:00:41Z</time></trkpt><trkpt lat="45.65535586035809" lon="9.891362144098713"><ele>491.5</ele><time>2026-03-28T16:00:42Z</time></trkpt><trkpt lat="45.65531021844164" lon="9.891441547621465"><ele>489.66666666666663</ele><time>2026-03-28T16:00:43Z</time></trkpt><trkpt lat="45.655242061165666" lon="9.891549278308217"><ele>487.8333333333333</ele><time>2026-03-28T16:00:45Z</time></trkpt><trkpt lat="45.65519497584574" lon="9.891632571441267"><ele>486.0</ele><time>2026-03-28T16:00:47Z</time></trkpt><trkpt lat="45.655083375744574" lon="9.891738408287003"><ele>487.0</ele><time>2026-03-28T16:00:49Z</time></trkpt><trkpt lat="45.65502993462085" lon="9.891786341446872"><ele>488.0</ele><time>2026-03-28T16:00:50Z</time></trkpt><trkpt lat="45.654963946074815" lon="9.891869702814558"><ele>489.0</ele><time>2026-03-28T16:00:52Z</time></trkpt><trkpt lat="45.654936309874195" lon="9.892027834196886"><ele>490.0</ele><time>2026-03-28T16:00:55Z</time></trkpt><trkpt lat="45.65490002676905" lon="9.892175239883905"><ele>491.0</ele><time>2026-03-28T16:00:57Z</time></trkpt><trkpt lat="45.6548836373654" lon="9.892398722560289"><ele>490.99999999999994</ele><time>2026-03-28T16:00:59Z</time></trkpt><trkpt lat="45.6548785635545" lon="9.892533609178171"><ele>491.0</ele><time>2026-03-28T16:01:01Z</time></trkpt><trkpt lat="45.65481380667923" lon="9.892653054345367"><ele>491.0</ele><time>2026-03-28T16:01:03Z</time></trkpt><trkpt lat="45.65474094195901" lon="9.892688095890376"><ele>491.0</ele><time>2026-03-28T16:01:08Z</time></trkpt><trkpt lat="45.654733259655124" lon="9.892789187304432"><ele>490.99999999999994</ele><time>2026-03-28T16:01:11Z</time></trkpt><trkpt lat="45.65470056944041" lon="9.89290578432867"><ele>491.0</ele><time>2026-03-28T16:01:13Z</time></trkpt><trkpt lat="45.6546324734642" lon="9.89303181464147"><ele>490.4285714285714</ele><time>2026-03-28T16:01:15Z</time></trkpt><trkpt lat="45.65459652443453" lon="9.893122257989996"><ele>489.8571428571428</ele><time>2026-03-28T16:01:16Z</time></trkpt><trkpt lat="45.654537575538974" lon="9.893181041338662"><ele>489.2857142857143</ele><time>2026-03-28T16:01:17Z</time></trkpt><trkpt lat="45.65449124085463" lon="9.893255207369968"><ele>488.71428571428567</ele><time>2026-03-28T16:01:18Z</time></trkpt><trkpt lat="45.65445708776713" lon="9.893376056776988"><ele>488.1428571428571</ele><time>2026-03-28T16:01:20Z</time></trkpt><trkpt lat="45.6544020146318" lon="9.893421912222736"><ele>487.57142857142856</ele><time>2026-03-28T16:01:56Z</time></trkpt><trkpt lat="45.65435325384451" lon="9.893510015838174"><ele>487.0</ele><time>2026-03-28T16:02:04Z</time></trkpt><trkpt lat="45.65430478946547" lon="9.89361152584792"><ele>483.40000000000003</ele><time>2026-03-28T16:02:06Z</time></trkpt><trkpt lat="45.6542882172727" lon="9.893737462959402"><ele>479.80000000000007</ele><time>2026-03-28T16:02:11Z</time></trkpt><trkpt lat="45.654228411691165" lon="9.893836938123238"><ele>476.2</ele><time>2026-03-28T16:02:13Z</time></trkpt><trkpt lat="45.6541252454845" lon="9.893941077022967"><ele>472.6</ele><time>2026-03-28T16:02:15Z</time></trkpt><trkpt lat="45.65406916948614" lon="9.893987943938342"><ele>469.0</ele><time>2026-03-28T16:02:16Z</time></trkpt><trkpt lat="45.654001908767675" lon="9.89406862048236"><ele>469.0</ele><time>2026-03-28T16:02:17Z</time></trkpt><trkpt lat="45.65388830625582" lon="9.894115784927584"><ele>469.0</ele><time>2026-03-28T16:02:18Z</time></trkpt><trkpt lat="45.65381174940922" lon="9.894205112616495"><ele>469.0</ele><time>2026-03-28T16:02:19Z</time></trkpt><trkpt lat="45.65370308304781" lon="9.894282525825293"><ele>469.0</ele><time>2026-03-28T16:02:21Z</time></trkpt><trkpt lat="45.653619605440625" lon="9.894309467631512"><ele>469.0</ele><time>2026-03-28T16:02:23Z</time></trkpt><trkpt lat="45.65365023910808" lon="9.89448569097037"><ele>468.4</ele><time>2026-03-28T16:02:24Z</time></trkpt><trkpt lat="45.65366375363954" lon="9.894581688952073"><ele>467.79999999999995</ele><time>2026-03-28T16:02:25Z</time></trkpt><trkpt lat="45.65365083915223" lon="9.894752155121436"><ele>467.20000000000005</ele><time>2026-03-28T16:02:27Z</time></trkpt><trkpt lat="45.653638629693795" lon="9.894921230742165"><ele>466.6</ele><time>2026-03-28T16:02:29Z</time></trkpt><trkpt lat="45.65361765132791" lon="9.89500896314009"><ele>466.0</ele><time>2026-03-28T16:02:30Z</time></trkpt><trkpt lat="45.65360824619176" lon="9.895161850471217"><ele>466.00000000000006</ele><time>2026-03-28T16:02:32Z</time></trkpt><trkpt lat="45.65362125742008" lon="9.895286650107204"><ele>466.0</ele><time>2026-03-28T16:02:34Z</time></trkpt><trkpt lat="45.65363285281077" lon="9.895375705646504"><ele>466.0</ele><time>2026-03-28T16:02:36Z</time></trkpt><trkpt lat="45.65360417626192" lon="9.895478491083942"><ele>466.0</ele><time>2026-03-28T16:02:39Z</time></trkpt><trkpt lat="45.6535618003586" lon="9.895575652634257"><ele>466.00000000000006</ele><time>2026-03-28T16:02:42Z</time></trkpt><trkpt lat="45.65359766682779" lon="9.895699891370755"><ele>466.0</ele><time>2026-03-28T16:02:44Z</time></trkpt><trkpt lat="45.65362309381256" lon="9.895841786324256"><ele>466.1666666666667</ele><time>2026-03-28T16:02:46Z</time></trkpt><trkpt lat="45.65363926103925" lon="9.895958650334721"><ele>466.33333333333337</ele><time>2026-03-28T16:02:47Z</time></trkpt><trkpt lat="45.653645197162085" lon="9.89607805475703"><ele>466.5</ele><time>2026-03-28T16:02:48Z</time></trkpt><trkpt lat="45.65359830173732" lon="9.896207703892697"><ele>466.66666666666663</ele><time>2026-03-28T16:02:49Z</time></trkpt><trkpt lat="45.653601812923156" lon="9.896324829056061"><ele>466.8333333333333</ele><time>2026-03-28T16:02:50Z</time></trkpt><trkpt lat="45.65363555795244" lon="9.896439836837958"><ele>467.0</ele><time>2026-03-28T16:02:51Z</time></trkpt><trkpt lat="45.653622087987664" lon="9.896585989054351"><ele>469.20000000000005</ele><time>2026-03-28T16:02:52Z</time></trkpt><trkpt lat="45.65361507113161" lon="9.896754555530558"><ele>471.40000000000003</ele><time>2026-03-28T16:02:53Z</time></trkpt><trkpt lat="45.653617363612184" lon="9.896918361213627"><ele>473.59999999999997</ele><time>2026-03-28T16:02:54Z</time></trkpt><trkpt lat="45.653594890155595" lon="9.897054525655157"><ele>475.79999999999995</ele><time>2026-03-28T16:02:55Z</time></trkpt><trkpt lat="45.653572835594034" lon="9.89717352064357"><ele>478.0</ele><time>2026-03-28T16:02:56Z</time></trkpt><trkpt lat="45.653535497674966" lon="9.897313104919483"><ele>478.0</ele><time>2026-03-28T16:02:57Z</time></trkpt><trkpt lat="45.65351370006095" lon="9.897477868950924"><ele>478.0</ele><time>2026-03-28T16:02:58Z</time></trkpt><trkpt lat="45.65350339142944" lon="9.897639165510821"><ele>478.0</ele><time>2026-03-28T16:02:59Z</time></trkpt><trkpt lat="45.65346598630217" lon="9.897812991704733"><ele>478.0</ele><time>2026-03-28T16:03:00Z</time></trkpt><trkpt lat="45.65342905049086" lon="9.897978332288456"><ele>480.0</ele><time>2026-03-28T16:03:01Z</time></trkpt><trkpt lat="45.65337146502694" lon="9.898129748451872"><ele>482.0</ele><time>2026-03-28T16:03:02Z</time></trkpt><trkpt lat="45.65328688280384" lon="9.898285118914282"><ele>484.0</ele><time>2026-03-28T16:03:03Z</time></trkpt><trkpt lat="45.653250045900144" lon="9.898425693727175"><ele>486.0</ele><time>2026-03-28T16:03:04Z</time></trkpt><trkpt lat="45.65321842568919" lon="9.898565508790158"><ele>486.0</ele><time>2026-03-28T16:03:05Z</time></trkpt><trkpt lat="45.65317995787067" lon="9.898726376282207"><ele>486.0</ele><time>2026-03-28T16:03:06Z</time></trkpt><trkpt lat="45.653138449588894" lon="9.898879061092979"><ele>486.0</ele><time>2026-03-28T16:03:07Z</time></trkpt><trkpt lat="45.6530768119624" lon="9.899020506296774"><ele>486.0</ele><time>2026-03-28T16:03:08Z</time></trkpt><trkpt lat="45.65301358088622" lon="9.89917881703891"><ele>485.5</ele><time>2026-03-28T16:03:09Z</time></trkpt><trkpt lat="45.65299189986072" lon="9.899328681209765"><ele>485.0</ele><time>2026-03-28T16:03:10Z</time></trkpt><trkpt lat="45.65295270820949" lon="9.899482203239282"><ele>484.5</ele><time>2026-03-28T16:03:11Z</time></trkpt><trkpt lat="45.652907476426684" lon="9.899639523550167"><ele>484.0</ele><time>2026-03-28T16:03:12Z</time></trkpt><trkpt lat="45.65286967506173" lon="9.899805627709059"><ele>484.0</ele><time>2026-03-28T16:03:13Z</time></trkpt><trkpt lat="45.652831878821395" lon="9.899939448829448"><ele>484.0</ele><time>2026-03-28T16:03:14Z</time></trkpt><trkpt lat="45.65278913548053" lon="9.900076959542279"><ele>484.0</ele><time>2026-03-28T16:03:15Z</time></trkpt><trkpt lat="45.652743540668276" lon="9.900237391712057"><ele>484.0</ele><time>2026-03-28T16:03:16Z</time></trkpt><trkpt lat="45.65270915849858" lon="9.900380787952692"><ele>484.0</ele><time>2026-03-28T16:03:17Z</time></trkpt><trkpt lat="45.65267457283979" lon="9.900548886132281"><ele>484.1666666666667</ele><time>2026-03-28T16:03:18Z</time></trkpt><trkpt lat="45.652636388717426" lon="9.900679507165458"><ele>484.33333333333337</ele><time>2026-03-28T16:03:19Z</time></trkpt><trkpt lat="45.65259153522082" lon="9.900786499920153"><ele>484.5</ele><time>2026-03-28T16:03:20Z</time></trkpt><trkpt lat="45.65253636243361" lon="9.900879925307718"><ele>484.66666666666663</ele><time>2026-03-28T16:03:21Z</time></trkpt><trkpt lat="45.6524962004531" lon="9.900980172132908"><ele>484.8333333333333</ele><time>2026-03-28T16:03:22Z</time></trkpt><trkpt lat="45.652461700347736" lon="9.901067040293151"><ele>485.0</ele><time>2026-03-28T16:03:23Z</time></trkpt><trkpt lat="45.65246016826555" lon="9.90119809446179"><ele>484.99999999999994</ele><time>2026-03-28T16:03:25Z</time></trkpt><trkpt lat="45.65240933640503" lon="9.901275585222965"><ele>485.0</ele><time>2026-03-28T16:03:26Z</time></trkpt><trkpt lat="45.6523355089606" lon="9.901331521666851"><ele>485.0</ele><time>2026-03-28T16:03:27Z</time></trkpt><trkpt lat="45.65226628471498" lon="9.90139268043342"><ele>485.0</ele><time>2026-03-28T16:03:28Z</time></trkpt><trkpt lat="45.652206283571864" lon="9.90144814303621"><ele>484.99999999999994</ele><time>2026-03-28T16:03:29Z</time></trkpt><trkpt lat="45.65214344593067" lon="9.901552606485907"><ele>485.0</ele><time>2026-03-28T16:03:30Z</time></trkpt><trkpt lat="45.652080352970195" lon="9.901656958908434"><ele>485.0</ele><time>2026-03-28T16:03:31Z</time></trkpt><trkpt lat="45.65201792047029" lon="9.901742411192155"><ele>485.0</ele><time>2026-03-28T16:03:32Z</time></trkpt><trkpt lat="45.65196093481266" lon="9.901825217041981"><ele>485.0</ele><time>2026-03-28T16:03:33Z</time></trkpt><trkpt lat="45.65190968617917" lon="9.901916530630212"><ele>485.0</ele><time>2026-03-28T16:03:34Z</time></trkpt><trkpt lat="45.65189935114826" lon="9.902060453660535"><ele>485.0</ele><time>2026-03-28T16:03:36Z</time></trkpt><trkpt lat="45.65198306720674" lon="9.902189296775598"><ele>483.3333333333333</ele><time>2026-03-28T16:03:42Z</time></trkpt><trkpt lat="45.652011768161564" lon="9.902334008133526"><ele>481.66666666666663</ele><time>2026-03-28T16:03:46Z</time></trkpt><trkpt lat="45.652047806685395" lon="9.902442911790445"><ele>480.0</ele><time>2026-03-28T16:03:49Z</time></trkpt><trkpt lat="45.6520293278809" lon="9.90253358361748"><ele>478.33333333333337</ele><time>2026-03-28T16:03:52Z</time></trkpt><trkpt lat="45.652060083120574" lon="9.902613917190825"><ele>476.6666666666667</ele><time>2026-03-28T16:03:53.999Z</time></trkpt><trkpt lat="45.65212882385753" lon="9.902614374134039"><ele>475.0</ele><time>2026-03-28T16:03:56.999Z</time></trkpt><trkpt lat="45.65217190383844" lon="9.90254176700002"><ele>473.83333333333337</ele><time>2026-03-28T16:04:01.999Z</time></trkpt><trkpt lat="45.65222894578325" lon="9.902598217892987"><ele>472.6666666666667</ele><time>2026-03-28T16:04:04Z</time></trkpt><trkpt lat="45.65229622096448" lon="9.902641271223363"><ele>471.5</ele><time>2026-03-28T16:04:07Z</time></trkpt><trkpt lat="45.65235426190574" lon="9.902722327791382"><ele>470.33333333333337</ele><time>2026-03-28T16:04:09Z</time></trkpt><trkpt lat="45.652348102050226" lon="9.902854542218046"><ele>469.1666666666667</ele><time>2026-03-28T16:04:11Z</time></trkpt><trkpt lat="45.65233951373533" lon="9.902981564291114"><ele>468.0</ele><time>2026-03-28T16:04:14Z</time></trkpt><trkpt lat="45.65232864661677" lon="9.903073804056781"><ele>468.0</ele><time>2026-03-28T16:04:16Z</time></trkpt><trkpt lat="45.65231055355796" lon="9.903165008845468"><ele>468.00000000000006</ele><time>2026-03-28T16:04:19Z</time></trkpt><trkpt lat="45.65233805901888" lon="9.903266768993682"><ele>468.0</ele><time>2026-03-28T16:04:22Z</time></trkpt><trkpt lat="45.65239492211646" lon="9.903326692071984"><ele>468.0</ele><time>2026-03-28T16:04:25Z</time></trkpt><trkpt lat="45.65244317973392" lon="9.903399888469309"><ele>468.00000000000006</ele><time>2026-03-28T16:04:32Z</time></trkpt><trkpt lat="45.652497889995104" lon="9.903472561965243"><ele>468.0</ele><time>2026-03-28T16:04:33Z</time></trkpt><trkpt lat="45.65254893452568" lon="9.903571396652364"><ele>468.0</ele><time>2026-03-28T16:04:35Z</time></trkpt><trkpt lat="45.652583111293936" lon="9.903688882083506"><ele>466.79999999999995</ele><time>2026-03-28T16:04:37Z</time></trkpt><trkpt lat="45.65266961723705" lon="9.903786892879424"><ele>465.59999999999997</ele><time>2026-03-28T16:04:39Z</time></trkpt><trkpt lat="45.65275444600623" lon="9.903849572028923"><ele>464.40000000000003</ele><time>2026-03-28T16:04:41Z</time></trkpt><trkpt lat="45.65281654417367" lon="9.903895461960307"><ele>463.20000000000005</ele><time>2026-03-28T16:04:42Z</time></trkpt><trkpt lat="45.65288792877764" lon="9.903956544262076"><ele>462.0</ele><time>2026-03-28T16:04:44Z</time></trkpt><trkpt lat="45.65297248619082" lon="9.903874198833176"><ele>459.7142857142857</ele><time>2026-03-28T16:04:46Z</time></trkpt><trkpt lat="45.652997923716136" lon="9.90377987633826"><ele>457.42857142857144</ele><time>2026-03-28T16:04:49Z</time></trkpt><trkpt lat="45.653035815869615" lon="9.903703161379728"><ele>455.1428571428571</ele><time>2026-03-28T16:04:54Z</time></trkpt><trkpt lat="45.653025806752396" lon="9.903614207226573"><ele>452.8571428571429</ele><time>2026-03-28T16:05:08Z</time></trkpt><trkpt lat="45.65295479182831" lon="9.90357906103761"><ele>450.57142857142856</ele><time>2026-03-28T16:05:32Z</time></trkpt><trkpt lat="45.65297346557379" lon="9.90346202188566"><ele>448.2857142857143</ele><time>2026-03-28T16:05:36Z</time></trkpt><trkpt lat="45.653034870391615" lon="9.903391685524173"><ele>446.0</ele><time>2026-03-28T16:05:38Z</time></trkpt><trkpt lat="45.65310233750942" lon="9.903323190948049"><ele>446.0</ele><time>2026-03-28T16:05:40Z</time></trkpt><trkpt lat="45.65319012007426" lon="9.903283667253039"><ele>446.0</ele><time>2026-03-28T16:05:41Z</time></trkpt><trkpt lat="45.65330100477059" lon="9.903307399485804"><ele>446.0</ele><time>2026-03-28T16:05:43Z</time></trkpt><trkpt lat="45.65337198234096" lon="9.903418142136507"><ele>446.0</ele><time>2026-03-28T16:05:44Z</time></trkpt><trkpt lat="45.65342920187293" lon="9.903472800152395"><ele>446.0</ele><time>2026-03-28T16:05:45Z</time></trkpt><trkpt lat="45.65350153525797" lon="9.90356798429302"><ele>446.0</ele><time>2026-03-28T16:05:47Z</time></trkpt><trkpt lat="45.65354079500638" lon="9.903647705959767"><ele>446.0</ele><time>2026-03-28T16:05:49Z</time></trkpt><trkpt lat="45.65358673719573" lon="9.903712899589733"><ele>446.0</ele><time>2026-03-28T16:05:51Z</time></trkpt><trkpt lat="45.65356651265009" lon="9.903624967386824"><ele>446.0</ele><time>2026-03-28T16:06:58Z</time></trkpt><trkpt lat="45.65355651863685" lon="9.903523220706653"><ele>446.0</ele><time>2026-03-28T16:07:01Z</time></trkpt><trkpt lat="45.653553448905704" lon="9.903398953347736"><ele>446.0</ele><time>2026-03-28T16:07:03Z</time></trkpt><trkpt lat="45.65355869600669" lon="9.903309028417517"><ele>446.0</ele><time>2026-03-28T16:07:05Z</time></trkpt><trkpt lat="45.65358050163214" lon="9.903436876238915"><ele>445.99999999999994</ele><time>2026-03-28T16:09:36Z</time></trkpt><trkpt lat="45.653603594311896" lon="9.903528212509906"><ele>446.0</ele><time>2026-03-28T16:09:38Z</time></trkpt><trkpt lat="45.65357887710348" lon="9.903617716429364"><ele>446.0</ele><time>2026-03-28T16:09:40Z</time></trkpt><trkpt lat="45.65355004055116" lon="9.903716211872158"><ele>446.0</ele><time>2026-03-28T16:09:44Z</time></trkpt><trkpt lat="45.65350347476238" lon="9.903601586071428"><ele>445.99999999999994</ele><time>2026-03-28T16:09:48Z</time></trkpt><trkpt lat="45.65343481662127" lon="9.903518786641584"><ele>446.0</ele><time>2026-03-28T16:09:49Z</time></trkpt><trkpt lat="45.65336906973183" lon="9.903494692392078"><ele>446.0</ele><time>2026-03-28T16:09:50Z</time></trkpt><trkpt lat="45.653314695121864" lon="9.903438743647621"><ele>446.0</ele><time>2026-03-28T16:12:10Z</time></trkpt><trkpt lat="45.65322079995558" lon="9.903439321211957"><ele>446.0</ele><time>2026-03-28T16:12:12.999Z</time></trkpt><trkpt lat="45.65315706641193" lon="9.903381033292849"><ele>446.0</ele><time>2026-03-28T16:12:15.999Z</time></trkpt><trkpt lat="45.65309999994327" lon="9.903319625089708"><ele>446.0</ele><time>2026-03-28T16:14:05Z</time></trkpt><trkpt lat="45.65305755975465" lon="9.903251880711185"><ele>446.0</ele><time>2026-03-28T16:14:08Z</time></trkpt><trkpt lat="45.653073882828" lon="9.903151205979881"><ele>446.0</ele><time>2026-03-28T16:14:10Z</time></trkpt><trkpt lat="45.65294311553145" lon="9.90306285197398"><ele>445.8</ele><time>2026-03-28T16:14:37Z</time></trkpt><trkpt lat="45.652835891701365" lon="9.903074031155"><ele>445.6</ele><time>2026-03-28T16:14:39Z</time></trkpt><trkpt lat="45.65273299469075" lon="9.90312274283022"><ele>445.4</ele><time>2026-03-28T16:14:41Z</time></trkpt><trkpt lat="45.65269853217456" lon="9.903045930379156"><ele>445.2</ele><time>2026-03-28T16:14:43Z</time></trkpt><trkpt lat="45.652686141104034" lon="9.902918898171015"><ele>445.0</ele><time>2026-03-28T16:15:50Z</time></trkpt><trkpt lat="45.652630441505096" lon="9.902800432754304"><ele>449.6</ele><time>2026-03-28T16:15:52Z</time></trkpt><trkpt lat="45.65255440431474" lon="9.902834034662865"><ele>454.2</ele><time>2026-03-28T16:15:54Z</time></trkpt><trkpt lat="45.65253081457529" lon="9.902973856033098"><ele>458.79999999999995</ele><time>2026-03-28T16:15:56Z</time></trkpt><trkpt lat="45.65247905742743" lon="9.903125196883142"><ele>463.4</ele><time>2026-03-28T16:15:58Z</time></trkpt><trkpt lat="45.65242106216982" lon="9.90325835954"><ele>468.0</ele><time>2026-03-28T16:16:00Z</time></trkpt><trkpt lat="45.65237009641866" lon="9.90332797506925"><ele>467.0</ele><time>2026-03-28T16:16:12Z</time></trkpt><trkpt lat="45.65241828939052" lon="9.903447578002924"><ele>466.0</ele><time>2026-03-28T16:16:23.999Z</time></trkpt><trkpt lat="45.65248316434906" lon="9.903542791705378"><ele>465.0</ele><time>2026-03-28T16:16:25.999Z</time></trkpt><trkpt lat="45.652546422315595" lon="9.903601746025023"><ele>464.0</ele><time>2026-03-28T16:16:27.999Z</time></trkpt><trkpt lat="45.652609572065735" lon="9.903673245802603"><ele>463.0</ele><time>2026-03-28T16:16:29.999Z</time></trkpt><trkpt lat="45.65266822104305" lon="9.903760660575497"><ele>462.0</ele><time>2026-03-28T16:16:31.999Z</time></trkpt><trkpt lat="45.65271762859745" lon="9.903835130756242"><ele>462.0</ele><time>2026-03-28T16:16:33.999Z</time></trkpt><trkpt lat="45.652770323609616" lon="9.903930585268132"><ele>462.0</ele><time>2026-03-28T16:16:36.999Z</time></trkpt><trkpt lat="45.65285474811025" lon="9.904061009656758"><ele>462.0</ele><time>2026-03-28T16:16:38.999Z</time></trkpt><trkpt lat="45.652889404749544" lon="9.90413799918387"><ele>462.0</ele><time>2026-03-28T16:16:40Z</time></trkpt><trkpt lat="45.65293453604457" lon="9.904212890027395"><ele>462.0</ele><time>2026-03-28T16:16:41Z</time></trkpt><trkpt lat="45.6529908539945" lon="9.904288386734118"><ele>462.0</ele><time>2026-03-28T16:16:44Z</time></trkpt><trkpt lat="45.65304938955141" lon="9.90432848752333"><ele>459.7142857142857</ele><time>2026-03-28T16:16:49Z</time></trkpt><trkpt lat="45.65311032326423" lon="9.904296919695888"><ele>457.42857142857144</ele><time>2026-03-28T16:17:05Z</time></trkpt><trkpt lat="45.65304091588503" lon="9.904206653581857"><ele>455.1428571428571</ele><time>2026-03-28T16:17:08Z</time></trkpt><trkpt lat="45.65297984191663" lon="9.90424874086847"><ele>452.8571428571429</ele><time>2026-03-28T16:17:56Z</time></trkpt><trkpt lat="45.652972337475475" lon="9.90435026454707"><ele>450.57142857142856</ele><time>2026-03-28T16:20:41.999Z</time></trkpt><trkpt lat="45.653021924776866" lon="9.904269007190093"><ele>448.2857142857143</ele><time>2026-03-28T16:25:22Z</time></trkpt><trkpt lat="45.65295010163715" lon="9.904241624237507"><ele>446.0</ele><time>2026-03-28T16:25:58Z</time></trkpt><trkpt lat="45.65297678205803" lon="9.904329214221422"><ele>446.0</ele><time>2026-03-28T16:26:00Z</time></trkpt><trkpt lat="45.65305227556506" lon="9.904409484856764"><ele>446.0</ele><time>2026-03-28T16:26:03Z</time></trkpt><trkpt lat="45.65312496159357" lon="9.904465867012163"><ele>446.0</ele><time>2026-03-28T16:26:06Z</time></trkpt><trkpt lat="45.65320428464936" lon="9.904392179154339"><ele>446.0</ele><time>2026-03-28T16:26:09Z</time></trkpt><trkpt lat="45.65323420950347" lon="9.90427649442369"><ele>446.0</ele><time>2026-03-28T16:26:12Z</time></trkpt><trkpt lat="45.65330936056499" lon="9.904192473837995"><ele>445.99999999999994</ele><time>2026-03-28T16:26:15Z</time></trkpt><trkpt lat="45.653353507073604" lon="9.904120647373178"><ele>446.0</ele><time>2026-03-28T16:26:19Z</time></trkpt><trkpt lat="45.6534342976931" lon="9.904083317549276"><ele>446.0</ele><time>2026-03-28T16:26:23Z</time></trkpt><trkpt lat="45.653517899965856" lon="9.904085031301205"><ele>446.0</ele><time>2026-03-28T16:26:29Z</time></trkpt><trkpt lat="45.65353275910332" lon="9.904203040633536"><ele>445.99999999999994</ele><time>2026-03-28T16:26:33Z</time></trkpt><trkpt lat="45.65353907517707" lon="9.904294932318072"><ele>446.0</ele><time>2026-03-28T16:26:35Z</time></trkpt><trkpt lat="45.653519382478656" lon="9.904397466433954"><ele>445.25</ele><time>2026-03-28T16:26:37Z</time></trkpt><trkpt lat="45.653504735104164" lon="9.904714575318378"><ele>444.5</ele><time>2026-03-28T16:26:40Z</time></trkpt><trkpt lat="45.65353044947376" lon="9.904840943160732"><ele>443.75</ele><time>2026-03-28T16:26:41Z</time></trkpt><trkpt lat="45.653531878769904" lon="9.904991369279124"><ele>443.0</ele><time>2026-03-28T16:26:43Z</time></trkpt><trkpt lat="45.653561883960734" lon="9.905118799686013"><ele>440.99999999999994</ele><time>2026-03-28T16:26:45Z</time></trkpt><trkpt lat="45.65354433516368" lon="9.90524608214432"><ele>439.0</ele><time>2026-03-28T16:26:48Z</time></trkpt><trkpt lat="45.65350513076323" lon="9.905358243035424"><ele>437.0</ele><time>2026-03-28T16:26:52Z</time></trkpt><trkpt lat="45.65347012625491" lon="9.905471477894435"><ele>435.0</ele><time>2026-03-28T16:26:59Z</time></trkpt><trkpt lat="45.65344969714395" lon="9.905557567210268"><ele>432.99999999999994</ele><time>2026-03-28T16:27:02Z</time></trkpt><trkpt lat="45.65341242665416" lon="9.905681148177564"><ele>431.0</ele><time>2026-03-28T16:27:07Z</time></trkpt><trkpt lat="45.65336558038477" lon="9.905781102734887"><ele>430.99999999999994</ele><time>2026-03-28T16:27:09Z</time></trkpt><trkpt lat="45.6532622064029" lon="9.905863371358036"><ele>431.0</ele><time>2026-03-28T16:27:11Z</time></trkpt><trkpt lat="45.653182263392836" lon="9.905924754576247"><ele>431.0</ele><time>2026-03-28T16:27:13Z</time></trkpt><trkpt lat="45.65313351042276" lon="9.905990855439162"><ele>431.0</ele><time>2026-03-28T16:27:15Z</time></trkpt><trkpt lat="45.65308851174544" lon="9.906060098715548"><ele>430.99999999999994</ele><time>2026-03-28T16:27:49Z</time></trkpt><trkpt lat="45.65301401499892" lon="9.906090392939202"><ele>431.0</ele><time>2026-03-28T16:28:41Z</time></trkpt><trkpt lat="45.65297702862492" lon="9.906167961589498"><ele>428.8333333333333</ele><time>2026-03-28T16:28:43Z</time></trkpt><trkpt lat="45.652925933920265" lon="9.906232188579933"><ele>426.66666666666663</ele><time>2026-03-28T16:28:48Z</time></trkpt><trkpt lat="45.65291219051818" lon="9.90632735577058"><ele>424.5</ele><time>2026-03-28T16:28:52Z</time></trkpt><trkpt lat="45.65298171730975" lon="9.906408278697473"><ele>422.33333333333337</ele><time>2026-03-28T16:28:55Z</time></trkpt><trkpt lat="45.653070665335136" lon="9.906462901908311"><ele>420.1666666666667</ele><time>2026-03-28T16:28:58Z</time></trkpt><trkpt lat="45.65314689061369" lon="9.90653496194164"><ele>418.0</ele><time>2026-03-28T16:29:00Z</time></trkpt><trkpt lat="45.65321534821445" lon="9.906571178836401"><ele>418.00000000000006</ele><time>2026-03-28T16:29:02Z</time></trkpt><trkpt lat="45.653283699897315" lon="9.90661222127007"><ele>418.0</ele><time>2026-03-28T16:29:04Z</time></trkpt><trkpt lat="45.65336058129147" lon="9.906643388487597"><ele>418.0</ele><time>2026-03-28T16:29:07Z</time></trkpt><trkpt lat="45.65342389887376" lon="9.90665209489872"><ele>418.0</ele><time>2026-03-28T16:29:10Z</time></trkpt><trkpt lat="45.653511832017195" lon="9.906701490674864"><ele>418.00000000000006</ele><time>2026-03-28T16:29:15Z</time></trkpt><trkpt lat="45.653625469650365" lon="9.906708388487466"><ele>418.0</ele><time>2026-03-28T16:29:21Z</time></trkpt><trkpt lat="45.65368983237441" lon="9.9067212225439"><ele>415.83333333333337</ele><time>2026-03-28T16:29:24Z</time></trkpt><trkpt lat="45.653765290255684" lon="9.906732978871073"><ele>413.6666666666667</ele><time>2026-03-28T16:29:27Z</time></trkpt><trkpt lat="45.65386207879241" lon="9.906692194433214"><ele>411.5</ele><time>2026-03-28T16:29:30Z</time></trkpt><trkpt lat="45.65392646213825" lon="9.906668097597915"><ele>409.33333333333337</ele><time>2026-03-28T16:29:33Z</time></trkpt><trkpt lat="45.65401894811744" lon="9.906735830342367"><ele>407.1666666666667</ele><time>2026-03-28T16:29:35Z</time></trkpt><trkpt lat="45.65406522457259" lon="9.906827325227932"><ele>405.0</ele><time>2026-03-28T16:29:37Z</time></trkpt><trkpt lat="45.65413057789964" lon="9.906905131855314"><ele>404.99999999999994</ele><time>2026-03-28T16:29:40Z</time></trkpt><trkpt lat="45.65418952465711" lon="9.906956008782037"><ele>405.0</ele><time>2026-03-28T16:29:43Z</time></trkpt><trkpt lat="45.654260429606985" lon="9.907002260171224"><ele>405.0</ele><time>2026-03-28T16:29:47Z</time></trkpt><trkpt lat="45.654327864284895" lon="9.90703452269915"><ele>405.0</ele><time>2026-03-28T16:29:51Z</time></trkpt><trkpt lat="45.65441063079948" lon="9.907053019040164"><ele>405.0</ele><time>2026-03-28T16:29:54Z</time></trkpt><trkpt lat="45.65446854072813" lon="9.907106034752292"><ele>404.99999999999994</ele><time>2026-03-28T16:29:57Z</time></trkpt><trkpt lat="45.65451129777696" lon="9.907183206710862"><ele>405.0</ele><time>2026-03-28T16:29:59Z</time></trkpt><trkpt lat="45.65455960180279" lon="9.907259367052632"><ele>401.5</ele><time>2026-03-28T16:30:01Z</time></trkpt><trkpt lat="45.654614249310534" lon="9.907310461596675"><ele>398.0</ele><time>2026-03-28T16:30:03Z</time></trkpt><trkpt lat="45.65470554600436" lon="9.907371806595368"><ele>394.5</ele><time>2026-03-28T16:30:06Z</time></trkpt><trkpt lat="45.65477175724584" lon="9.907449145171068"><ele>391.0</ele><time>2026-03-28T16:30:08Z</time></trkpt><trkpt lat="45.65482485152617" lon="9.9075464803769"><ele>387.5</ele><time>2026-03-28T16:30:10Z</time></trkpt><trkpt lat="45.65489413905745" lon="9.907622940022366"><ele>384.0</ele><time>2026-03-28T16:30:12Z</time></trkpt><trkpt lat="45.654971491035994" lon="9.907723394001502"><ele>384.0</ele><time>2026-03-28T16:30:14Z</time></trkpt><trkpt lat="45.65502826683874" lon="9.907772869283157"><ele>384.0</ele><time>2026-03-28T16:30:15Z</time></trkpt><trkpt lat="45.65505933961531" lon="9.907857926425859"><ele>384.0</ele><time>2026-03-28T16:30:16Z</time></trkpt><trkpt lat="45.655137394475155" lon="9.907969547534115"><ele>384.0</ele><time>2026-03-28T16:30:18Z</time></trkpt><trkpt lat="45.65521696158547" lon="9.908084709800113"><ele>384.0</ele><time>2026-03-28T16:30:20Z</time></trkpt><trkpt lat="45.65525812659936" lon="9.908165015573712"><ele>384.0</ele><time>2026-03-28T16:30:21Z</time></trkpt><trkpt lat="45.65529471200841" lon="9.908261184951849"><ele>378.2</ele><time>2026-03-28T16:30:22Z</time></trkpt><trkpt lat="45.6553623650529" lon="9.908403227628936"><ele>372.4</ele><time>2026-03-28T16:30:24Z</time></trkpt><trkpt lat="45.6554004170475" lon="9.908532812732103"><ele>366.6</ele><time>2026-03-28T16:30:26Z</time></trkpt><trkpt lat="45.655422625561215" lon="9.908618527904519"><ele>360.8</ele><time>2026-03-28T16:30:27Z</time></trkpt><trkpt lat="45.65544970769671" lon="9.908706666000008"><ele>355.0</ele><time>2026-03-28T16:30:28Z</time></trkpt><trkpt lat="45.65550768203893" lon="9.908848990573933"><ele>355.0</ele><time>2026-03-28T16:30:30Z</time></trkpt><trkpt lat="45.65553606309419" lon="9.908981611034042"><ele>355.0</ele><time>2026-03-28T16:30:32Z</time></trkpt><trkpt lat="45.655527479415504" lon="9.909118139219672"><ele>355.0</ele><time>2026-03-28T16:30:34Z</time></trkpt><trkpt lat="45.65551769218012" lon="9.90921002559899"><ele>355.0</ele><time>2026-03-28T16:30:36Z</time></trkpt><trkpt lat="45.655516976423314" lon="9.909388995363878"><ele>355.0</ele><time>2026-03-28T16:30:38Z</time></trkpt><trkpt lat="45.65555800556748" lon="9.909498216339573"><ele>354.6</ele><time>2026-03-28T16:30:39Z</time></trkpt><trkpt lat="45.65557308885989" lon="9.90961592604792"><ele>354.2</ele><time>2026-03-28T16:30:41Z</time></trkpt><trkpt lat="45.655593393196966" lon="9.90973640483487"><ele>353.79999999999995</ele><time>2026-03-28T16:30:42Z</time></trkpt><trkpt lat="45.65560069519114" lon="9.909884180834192"><ele>353.4</ele><time>2026-03-28T16:30:44Z</time></trkpt><trkpt lat="45.655603378890895" lon="9.91001284962708"><ele>353.0</ele><time>2026-03-28T16:30:46Z</time></trkpt><trkpt lat="45.65558319552598" lon="9.910167756302926"><ele>351.85714285714283</ele><time>2026-03-28T16:30:48Z</time></trkpt><trkpt lat="45.655612011621685" lon="9.910255769391405"><ele>350.7142857142857</ele><time>2026-03-28T16:30:50Z</time></trkpt><trkpt lat="45.655679319266504" lon="9.91025402599247"><ele>349.57142857142856</ele><time>2026-03-28T16:30:56Z</time></trkpt><trkpt lat="45.655749879720254" lon="9.910255604508004"><ele>348.42857142857144</ele><time>2026-03-28T16:31:01Z</time></trkpt><trkpt lat="45.655803981415886" lon="9.91032182318736"><ele>347.2857142857143</ele><time>2026-03-28T16:31:07Z</time></trkpt><trkpt lat="45.6558830266441" lon="9.91033120483752"><ele>346.14285714285717</ele><time>2026-03-28T16:31:17Z</time></trkpt><trkpt lat="45.65594830179219" lon="9.910387229502769"><ele>345.0</ele><time>2026-03-28T16:31:20Z</time></trkpt><trkpt lat="45.656036171250975" lon="9.91042484215992"><ele>345.0</ele><time>2026-03-28T16:31:22Z</time></trkpt><trkpt lat="45.65611145475513" lon="9.910433513799928"><ele>345.0</ele><time>2026-03-28T16:31:24Z</time></trkpt><trkpt lat="45.65615449741086" lon="9.910351907516105"><ele>345.0</ele><time>2026-03-28T16:31:27Z</time></trkpt><trkpt lat="45.656237226568756" lon="9.910304041673418"><ele>345.0</ele><time>2026-03-28T16:31:30Z</time></trkpt><trkpt lat="45.65632403910689" lon="9.910275938067429"><ele>345.0</ele><time>2026-03-28T16:31:33Z</time></trkpt><trkpt lat="45.65638741436609" lon="9.910222787662306"><ele>345.0</ele><time>2026-03-28T16:31:35Z</time></trkpt><trkpt lat="45.65641963256585" lon="9.91011021287022"><ele>340.8</ele><time>2026-03-28T16:31:38Z</time></trkpt><trkpt lat="45.656425639564254" lon="9.90999460088308"><ele>336.6</ele><time>2026-03-28T16:31:41Z</time></trkpt><trkpt lat="45.65645264453434" lon="9.90990311770293"><ele>332.4</ele><time>2026-03-28T16:31:52Z</time></trkpt><trkpt lat="45.65648187769261" lon="9.909815996434393"><ele>328.2</ele><time>2026-03-28T16:31:55Z</time></trkpt><trkpt lat="45.65661556642332" lon="9.90979210432464"><ele>324.0</ele><time>2026-03-28T16:31:59Z</time></trkpt><trkpt lat="45.65668407961811" lon="9.909907846993727"><ele>324.0</ele><time>2026-03-28T16:32:01Z</time></trkpt><trkpt lat="45.65675580533982" lon="9.90999066443467"><ele>324.0</ele><time>2026-03-28T16:32:03Z</time></trkpt><trkpt lat="45.656810841848646" lon="9.910047149238624"><ele>324.0</ele><time>2026-03-28T16:32:06Z</time></trkpt><trkpt lat="45.656863977216034" lon="9.910109635188338"><ele>324.0</ele><time>2026-03-28T16:32:08Z</time></trkpt><trkpt lat="45.656917320044045" lon="9.91016016162438"><ele>324.0</ele><time>2026-03-28T16:32:10Z</time></trkpt><trkpt lat="45.65697732156669" lon="9.910188973189044"><ele>324.0</ele><time>2026-03-28T16:32:12Z</time></trkpt><trkpt lat="45.657072991405975" lon="9.91027032245237"><ele>317.59999999999997</ele><time>2026-03-28T16:32:14Z</time></trkpt><trkpt lat="45.65716772741567" lon="9.910360069111215"><ele>311.2</ele><time>2026-03-28T16:32:16Z</time></trkpt><trkpt lat="45.657215013643146" lon="9.910432631019047"><ele>304.79999999999995</ele><time>2026-03-28T16:32:18Z</time></trkpt><trkpt lat="45.657301754069195" lon="9.91047882304505"><ele>298.4</ele><time>2026-03-28T16:32:20Z</time></trkpt><trkpt lat="45.65742885921759" lon="9.9104118394819"><ele>292.0</ele><time>2026-03-28T16:32:35Z</time></trkpt><trkpt lat="45.65743464849035" lon="9.91031992076392"><ele>292.0</ele><time>2026-03-28T16:32:38Z</time></trkpt><trkpt lat="45.65742451003529" lon="9.91022161481013"><ele>292.0</ele><time>2026-03-28T16:32:40Z</time></trkpt><trkpt lat="45.657427088642095" lon="9.910092397436193"><ele>292.0</ele><time>2026-03-28T16:32:42Z</time></trkpt><trkpt lat="45.65751865031024" lon="9.910075887225888"><ele>292.0</ele><time>2026-03-28T16:32:45Z</time></trkpt><trkpt lat="45.657662153283674" lon="9.910080744227885"><ele>292.0</ele><time>2026-03-28T16:32:49Z</time></trkpt><trkpt lat="45.65774106095955" lon="9.910112142313656"><ele>288.3333333333333</ele><time>2026-03-28T16:32:52Z</time></trkpt><trkpt lat="45.65781168667941" lon="9.910112533563746"><ele>284.66666666666663</ele><time>2026-03-28T16:32:56Z</time></trkpt><trkpt lat="45.65787633357747" lon="9.910121005317857"><ele>281.0</ele><time>2026-03-28T16:32:59Z</time></trkpt><trkpt lat="45.657943470800696" lon="9.910149375821415"><ele>277.3333333333333</ele><time>2026-03-28T16:34:24Z</time></trkpt><trkpt lat="45.65800697964775" lon="9.910173949155208"><ele>273.6666666666667</ele><time>2026-03-28T16:34:27Z</time></trkpt><trkpt lat="45.6581100822811" lon="9.910190986248736"><ele>270.0</ele><time>2026-03-28T16:34:31Z</time></trkpt><trkpt lat="45.658189575392626" lon="9.910162117207294"><ele>270.0</ele><time>2026-03-28T16:34:33Z</time></trkpt><trkpt lat="45.658259122906216" lon="9.910129333114629"><ele>270.0</ele><time>2026-03-28T16:34:34Z</time></trkpt><trkpt lat="45.658335758482096" lon="9.910036649696591"><ele>270.0</ele><time>2026-03-28T16:34:36Z</time></trkpt><trkpt lat="45.658402552308246" lon="9.909988148046065"><ele>270.0</ele><time>2026-03-28T16:34:37Z</time></trkpt><trkpt lat="45.6584853561711" lon="9.909903862907187"><ele>270.0</ele><time>2026-03-28T16:34:39Z</time></trkpt><trkpt lat="45.65853098465055" lon="9.909836190608276"><ele>270.0</ele><time>2026-03-28T16:34:41Z</time></trkpt><trkpt lat="45.658600936881136" lon="9.90974544239006"><ele>269.8</ele><time>2026-03-28T16:34:43Z</time></trkpt><trkpt lat="45.65866131601538" lon="9.90966062309863"><ele>269.6</ele><time>2026-03-28T16:34:45Z</time></trkpt><trkpt lat="45.65874378758541" lon="9.909637756578165"><ele>269.4</ele><time>2026-03-28T16:34:46Z</time></trkpt><trkpt lat="45.65886796451063" lon="9.90963330350249"><ele>269.2</ele><time>2026-03-28T16:34:50Z</time></trkpt><trkpt lat="45.658972896378366" lon="9.909630459443111"><ele>269.0</ele><time>2026-03-28T16:34:52Z</time></trkpt><trkpt lat="45.65905066903459" lon="9.909665044332588"><ele>269.0</ele><time>2026-03-28T16:34:54Z</time></trkpt><trkpt lat="45.65919147460235" lon="9.909676004687537"><ele>269.0</ele><time>2026-03-28T16:34:58Z</time></trkpt><trkpt lat="45.65926425772432" lon="9.909642604382945"><ele>269.0</ele><time>2026-03-28T16:35:00Z</time></trkpt><trkpt lat="45.659341424672036" lon="9.909588484859643"><ele>269.0</ele><time>2026-03-28T16:35:02Z</time></trkpt><trkpt lat="45.659398669695946" lon="9.909523471051761"><ele>269.0</ele><time>2026-03-28T16:35:06Z</time></trkpt><trkpt lat="45.65946326104383" lon="9.909486788164717"><ele>269.0</ele><time>2026-03-28T16:35:08Z</time></trkpt><trkpt lat="45.65954264847504" lon="9.909516382938302"><ele>266.0</ele><time>2026-03-28T16:35:10Z</time></trkpt><trkpt lat="45.659567883039244" lon="9.909602906476916"><ele>263.0</ele><time>2026-03-28T16:35:14Z</time></trkpt><trkpt lat="45.65958861445764" lon="9.909712522015294"><ele>260.0</ele><time>2026-03-28T16:35:17Z</time></trkpt><trkpt lat="45.659653960105224" lon="9.909745486539514"><ele>257.0</ele><time>2026-03-28T16:35:20Z</time></trkpt><trkpt lat="45.65972502227764" lon="9.90970899106322"><ele>254.00000000000003</ele><time>2026-03-28T16:35:23Z</time></trkpt><trkpt lat="45.65975547066141" lon="9.909578869949234"><ele>251.0</ele><time>2026-03-28T16:35:26Z</time></trkpt><trkpt lat="45.65980992798881" lon="9.909473622217627"><ele>251.00000000000003</ele><time>2026-03-28T16:35:28Z</time></trkpt><trkpt lat="45.65987566404213" lon="9.909530905786987"><ele>251.0</ele><time>2026-03-28T16:35:31Z</time></trkpt><trkpt lat="45.659920485291245" lon="9.909603766033925"><ele>251.0</ele><time>2026-03-28T16:35:34Z</time></trkpt><trkpt lat="45.66002165705609" lon="9.90958240661631"><ele>251.0</ele><time>2026-03-28T16:35:38Z</time></trkpt><trkpt lat="45.66004587212529" lon="9.909478372824841"><ele>251.00000000000003</ele><time>2026-03-28T16:35:40Z</time></trkpt><trkpt lat="45.660098089064604" lon="9.909411058465137"><ele>251.0</ele><time>2026-03-28T16:35:41Z</time></trkpt><trkpt lat="45.66015273214301" lon="9.909331021130654"><ele>251.0</ele><time>2026-03-28T16:35:44Z</time></trkpt><trkpt lat="45.66021042247747" lon="9.909253738128188"><ele>251.00000000000003</ele><time>2026-03-28T16:35:45Z</time></trkpt><trkpt lat="45.66027081214099" lon="9.909164949254512"><ele>251.00000000000003</ele><time>2026-03-28T16:35:46Z</time></trkpt><trkpt lat="45.66035483664365" lon="9.909099010373017"><ele>251.0</ele><time>2026-03-28T16:35:48Z</time></trkpt><trkpt lat="45.66041868203885" lon="9.909016464483294"><ele>251.0</ele><time>2026-03-28T16:35:50Z</time></trkpt><trkpt lat="45.66045683804358" lon="9.908863961311171"><ele>252.0</ele><time>2026-03-28T16:35:52Z</time></trkpt><trkpt lat="45.66046492976599" lon="9.908695092382017"><ele>253.00000000000003</ele><time>2026-03-28T16:35:54Z</time></trkpt><trkpt lat="45.6604562704861" lon="9.908571624820516"><ele>254.00000000000003</ele><time>2026-03-28T16:35:56Z</time></trkpt><trkpt lat="45.66040345622451" lon="9.908451367728828"><ele>255.0</ele><time>2026-03-28T16:35:58Z</time></trkpt><trkpt lat="45.66033320258816" lon="9.908385536099903"><ele>256.0</ele><time>2026-03-28T16:36:00Z</time></trkpt><trkpt lat="45.66025418277633" lon="9.908218546849422"><ele>255.99999999999997</ele><time>2026-03-28T16:36:02Z</time></trkpt><trkpt lat="45.66021598337381" lon="9.908084656487269"><ele>256.0</ele><time>2026-03-28T16:36:04Z</time></trkpt><trkpt lat="45.66013825454946" lon="9.907969115949976"><ele>256.0</ele><time>2026-03-28T16:36:06Z</time></trkpt><trkpt lat="45.66008238454418" lon="9.90791837112597"><ele>256.0</ele><time>2026-03-28T16:36:07Z</time></trkpt><trkpt lat="45.66001593873451" lon="9.907891425996928"><ele>255.99999999999997</ele><time>2026-03-28T16:36:08Z</time></trkpt><trkpt lat="45.6599443589894" lon="9.907846409486307"><ele>256.0</ele><time>2026-03-28T16:36:09Z</time></trkpt><trkpt lat="45.65987880197519" lon="9.907806334666214"><ele>256.0</ele><time>2026-03-28T16:36:10Z</time></trkpt><trkpt lat="45.65980552779438" lon="9.90777563387674"><ele>256.0</ele><time>2026-03-28T16:36:11Z</time></trkpt><trkpt lat="45.65966608465726" lon="9.907723713606224"><ele>256.0</ele><time>2026-03-28T16:36:13Z</time></trkpt><trkpt lat="45.65957546981862" lon="9.907679601447374"><ele>256.0</ele><time>2026-03-28T16:36:14Z</time></trkpt><trkpt lat="45.659491176406675" lon="9.9076423539704"><ele>256.0</ele><time>2026-03-28T16:36:15Z</time></trkpt><trkpt lat="45.65943852935268" lon="9.907584830497209"><ele>257.16666666666663</ele><time>2026-03-28T16:36:16Z</time></trkpt><trkpt lat="45.6594071463248" lon="9.907506577628048"><ele>258.3333333333333</ele><time>2026-03-28T16:36:17Z</time></trkpt><trkpt lat="45.659397183612704" lon="9.907407960685484"><ele>259.5</ele><time>2026-03-28T16:36:18Z</time></trkpt><trkpt lat="45.65940001691272" lon="9.907280697392952"><ele>260.6666666666667</ele><time>2026-03-28T16:36:19Z</time></trkpt><trkpt lat="45.65940260999385" lon="9.907178357636061"><ele>261.83333333333337</ele><time>2026-03-28T16:36:20Z</time></trkpt><trkpt lat="45.65936865034386" lon="9.907077636968445"><ele>263.0</ele><time>2026-03-28T16:36:21Z</time></trkpt><trkpt lat="45.65931435405089" lon="9.906956405561406"><ele>263.0</ele><time>2026-03-28T16:36:22Z</time></trkpt><trkpt lat="45.65927942048348" lon="9.906834272739086"><ele>263.0</ele><time>2026-03-28T16:36:23Z</time></trkpt><trkpt lat="45.659217166293104" lon="9.906693022886301"><ele>263.0</ele><time>2026-03-28T16:36:25Z</time></trkpt><trkpt lat="45.659314242566175" lon="9.90658740696916"><ele>263.0</ele><time>2026-03-28T16:36:27Z</time></trkpt><trkpt lat="45.65941431787462" lon="9.906560795047925"><ele>263.0</ele><time>2026-03-28T16:36:28Z</time></trkpt><trkpt lat="45.65952813265373" lon="9.90657477673453"><ele>262.6666666666667</ele><time>2026-03-28T16:36:29Z</time></trkpt><trkpt lat="45.65959698137012" lon="9.906591117845094"><ele>262.33333333333337</ele><time>2026-03-28T16:36:30Z</time></trkpt><trkpt lat="45.65965205264443" lon="9.906535551706561"><ele>262.0</ele><time>2026-03-28T16:36:32Z</time></trkpt><trkpt lat="45.65959238416915" lon="9.906467417166308"><ele>261.6666666666667</ele><time>2026-03-28T16:36:35Z</time></trkpt><trkpt lat="45.65950697220107" lon="9.906398025790057"><ele>261.3333333333333</ele><time>2026-03-28T16:36:38Z</time></trkpt><trkpt lat="45.659471295163726" lon="9.90631864140148"><ele>261.0</ele><time>2026-03-28T16:36:39Z</time></trkpt><trkpt lat="45.65943579618619" lon="9.906186942535884"><ele>261.0</ele><time>2026-03-28T16:36:41Z</time></trkpt><trkpt lat="45.65941413624975" lon="9.906071623216427"><ele>261.0</ele><time>2026-03-28T16:36:43Z</time></trkpt><trkpt lat="45.65940646993834" lon="9.905965507148736"><ele>261.0</ele><time>2026-03-28T16:36:45Z</time></trkpt><trkpt lat="45.65940293097917" lon="9.905869983480349"><ele>261.0</ele><time>2026-03-28T16:36:48Z</time></trkpt><trkpt lat="45.65933288041088" lon="9.905749817405791"><ele>261.0</ele><time>2026-03-28T16:36:57Z</time></trkpt><trkpt lat="45.659296573559715" lon="9.905648106415605"><ele>261.0</ele><time>2026-03-28T16:36:59Z</time></trkpt><trkpt lat="45.659242973639145" lon="9.905512427891527"><ele>262.6666666666667</ele><time>2026-03-28T16:37:01Z</time></trkpt><trkpt lat="45.659199012743414" lon="9.905446831082902"><ele>264.3333333333333</ele><time>2026-03-28T16:37:02Z</time></trkpt><trkpt lat="45.659175495796475" lon="9.905298975805975"><ele>266.0</ele><time>2026-03-28T16:37:04Z</time></trkpt><trkpt lat="45.65917216783408" lon="9.905187760301324"><ele>267.66666666666663</ele><time>2026-03-28T16:37:06Z</time></trkpt><trkpt lat="45.65918439160028" lon="9.905084948505502"><ele>269.3333333333333</ele><time>2026-03-28T16:37:09Z</time></trkpt><trkpt lat="45.659227509562434" lon="9.904976465116947"><ele>271.0</ele><time>2026-03-28T16:37:13Z</time></trkpt><trkpt lat="45.659256335290145" lon="9.904856546928585"><ele>274.6</ele><time>2026-03-28T16:37:15Z</time></trkpt><trkpt lat="45.65926697387409" lon="9.904739984244276"><ele>278.20000000000005</ele><time>2026-03-28T16:37:17Z</time></trkpt><trkpt lat="45.65924418762232" lon="9.904614188848377"><ele>281.79999999999995</ele><time>2026-03-28T16:37:19Z</time></trkpt><trkpt lat="45.659165242057874" lon="9.904561977656623"><ele>285.4</ele><time>2026-03-28T16:37:21Z</time></trkpt><trkpt lat="45.659051952682475" lon="9.90452364013029"><ele>289.0</ele><time>2026-03-28T16:37:23Z</time></trkpt><trkpt lat="45.65898210679285" lon="9.904464658098172"><ele>289.0</ele><time>2026-03-28T16:37:25Z</time></trkpt><trkpt lat="45.65895979790718" lon="9.904330383519723"><ele>289.0</ele><time>2026-03-28T16:37:27Z</time></trkpt><trkpt lat="45.65895994913816" lon="9.904186387489933"><ele>289.0</ele><time>2026-03-28T16:37:29Z</time></trkpt><trkpt lat="45.65891029908427" lon="9.904054567610668"><ele>289.0</ele><time>2026-03-28T16:37:31Z</time></trkpt><trkpt lat="45.65885858172094" lon="9.903934832159944"><ele>289.0</ele><time>2026-03-28T16:37:33Z</time></trkpt><trkpt lat="45.65876622310065" lon="9.90386336112333"><ele>292.0</ele><time>2026-03-28T16:37:35Z</time></trkpt><trkpt lat="45.65870937880077" lon="9.903777648994266"><ele>295.0</ele><time>2026-03-28T16:37:37Z</time></trkpt><trkpt lat="45.65865409122198" lon="9.903653912958445"><ele>298.0</ele><time>2026-03-28T16:37:39Z</time></trkpt><trkpt lat="45.658642924277906" lon="9.903534175698073"><ele>301.0</ele><time>2026-03-28T16:37:41Z</time></trkpt><trkpt lat="45.65867202234624" lon="9.903439984187052"><ele>304.0</ele><time>2026-03-28T16:37:44Z</time></trkpt><trkpt lat="45.65869518700461" lon="9.903351701790722"><ele>307.0</ele><time>2026-03-28T16:37:46Z</time></trkpt><trkpt lat="45.65870168432582" lon="9.903225113775227"><ele>308.0</ele><time>2026-03-28T16:37:49Z</time></trkpt><trkpt lat="45.658689237459086" lon="9.903117206269705"><ele>309.0</ele><time>2026-03-28T16:37:51Z</time></trkpt><trkpt lat="45.658631125732306" lon="9.903029153508038"><ele>310.0</ele><time>2026-03-28T16:37:54Z</time></trkpt><trkpt lat="45.65855662061727" lon="9.902973139668832"><ele>311.0</ele><time>2026-03-28T16:37:56Z</time></trkpt><trkpt lat="45.65849653695142" lon="9.902912635114719"><ele>312.0</ele><time>2026-03-28T16:37:58Z</time></trkpt><trkpt lat="45.658414909710785" lon="9.902837328732454"><ele>313.0</ele><time>2026-03-28T16:38:00Z</time></trkpt><trkpt lat="45.65835456791109" lon="9.90279272498778"><ele>315.66666666666663</ele><time>2026-03-28T16:38:02Z</time></trkpt><trkpt lat="45.658285639906" lon="9.90275852114375"><ele>318.3333333333333</ele><time>2026-03-28T16:38:04Z</time></trkpt><trkpt lat="45.658231622262896" lon="9.9026744095143"><ele>321.0</ele><time>2026-03-28T16:38:06Z</time></trkpt><trkpt lat="45.65822281560086" lon="9.902559917128444"><ele>323.6666666666667</ele><time>2026-03-28T16:38:10Z</time></trkpt><trkpt lat="45.6582095785833" lon="9.90246533245018"><ele>326.33333333333337</ele><time>2026-03-28T16:38:14Z</time></trkpt><trkpt lat="45.65827318569376" lon="9.902439030713733"><ele>329.0</ele><time>2026-03-28T16:38:17Z</time></trkpt><trkpt lat="45.6583570373719" lon="9.902383114842296"><ele>329.33333333333337</ele><time>2026-03-28T16:38:19Z</time></trkpt><trkpt lat="45.658443100827725" lon="9.902379185463857"><ele>329.6666666666667</ele><time>2026-03-28T16:38:20Z</time></trkpt><trkpt lat="45.65851392163776" lon="9.90238029079204"><ele>330.0</ele><time>2026-03-28T16:38:21Z</time></trkpt><trkpt lat="45.658623873849656" lon="9.902380527711252"><ele>330.3333333333333</ele><time>2026-03-28T16:38:23Z</time></trkpt><trkpt lat="45.65868662083454" lon="9.902342890172786"><ele>330.66666666666663</ele><time>2026-03-28T16:38:24Z</time></trkpt><trkpt lat="45.658789451303235" lon="9.90229826059834"><ele>331.0</ele><time>2026-03-28T16:38:26Z</time></trkpt><trkpt lat="45.65885960359485" lon="9.902176059601127"><ele>328.0</ele><time>2026-03-28T16:38:28Z</time></trkpt><trkpt lat="45.658952518617085" lon="9.902197712059275"><ele>325.0</ele><time>2026-03-28T16:38:30Z</time></trkpt><trkpt lat="45.65902735022702" lon="9.902210446020005"><ele>322.0</ele><time>2026-03-28T16:38:32Z</time></trkpt><trkpt lat="45.659102383858304" lon="9.902266638662597"><ele>319.0</ele><time>2026-03-28T16:38:36Z</time></trkpt><trkpt lat="45.65916265267163" lon="9.902312430981915"><ele>316.0</ele><time>2026-03-28T16:38:39Z</time></trkpt><trkpt lat="45.65922791735575" lon="9.902320329074943"><ele>313.0</ele><time>2026-03-28T16:38:42Z</time></trkpt><trkpt lat="45.65930042842603" lon="9.902348664657287"><ele>313.0</ele><time>2026-03-28T16:38:47Z</time></trkpt><trkpt lat="45.65938347195841" lon="9.902362931326298"><ele>313.0</ele><time>2026-03-28T16:38:51Z</time></trkpt><trkpt lat="45.659465386768616" lon="9.902387866825768"><ele>313.0</ele><time>2026-03-28T16:38:54Z</time></trkpt><trkpt lat="45.65952909492405" lon="9.902369418566039"><ele>313.0</ele><time>2026-03-28T16:38:56Z</time></trkpt><trkpt lat="45.6595939233668" lon="9.90237625766106"><ele>313.0</ele><time>2026-03-28T16:38:59Z</time></trkpt><trkpt lat="45.65967352614528" lon="9.902376748998469"><ele>313.0</ele><time>2026-03-28T16:39:02Z</time></trkpt><trkpt lat="45.6597531020694" lon="9.902353988293605"><ele>309.8</ele><time>2026-03-28T16:39:04Z</time></trkpt><trkpt lat="45.65983148370815" lon="9.902302430468218"><ele>306.6</ele><time>2026-03-28T16:39:07Z</time></trkpt><trkpt lat="45.65991119859936" lon="9.902281711207488"><ele>303.4</ele><time>2026-03-28T16:39:09Z</time></trkpt><trkpt lat="45.660016491029744" lon="9.902216962594679"><ele>300.2</ele><time>2026-03-28T16:39:12Z</time></trkpt><trkpt lat="45.660117650682196" lon="9.90215005838916"><ele>297.0</ele><time>2026-03-28T16:39:13Z</time></trkpt><trkpt lat="45.660202439069195" lon="9.902110024944312"><ele>297.0</ele><time>2026-03-28T16:39:14Z</time></trkpt><trkpt lat="45.66030387040212" lon="9.902063164106515"><ele>297.0</ele><time>2026-03-28T16:39:15Z</time></trkpt><trkpt lat="45.66036809845017" lon="9.902048191032112"><ele>297.0</ele><time>2026-03-28T16:39:16Z</time></trkpt><trkpt lat="45.66035930256217" lon="9.90192481552289"><ele>297.0</ele><time>2026-03-28T16:39:20Z</time></trkpt><trkpt lat="45.66025508336714" lon="9.901968036119337"><ele>297.0</ele><time>2026-03-28T16:39:32Z</time></trkpt><trkpt lat="45.660187466774445" lon="9.901943168817551"><ele>297.0</ele><time>2026-03-28T16:41:02Z</time></trkpt><trkpt lat="45.66015108744183" lon="9.901866365005176"><ele>297.0</ele><time>2026-03-28T16:41:06Z</time></trkpt><trkpt lat="45.660102734443626" lon="9.90180357730635"><ele>297.0</ele><time>2026-03-28T16:41:16Z</time></trkpt><trkpt lat="45.660138878406144" lon="9.901889024069499"><ele>297.0</ele><time>2026-03-28T16:42:24Z</time></trkpt><trkpt lat="45.66020264664975" lon="9.901930347133543"><ele>297.0</ele><time>2026-03-28T16:44:17Z</time></trkpt><trkpt lat="45.660272378624484" lon="9.901935500333725"><ele>297.0</ele><time>2026-03-28T16:44:26Z</time></trkpt><trkpt lat="45.66019362619872" lon="9.901943570907175"><ele>297.0</ele><time>2026-03-28T16:46:30Z</time></trkpt><trkpt lat="45.66014355913777" lon="9.901875746948958"><ele>297.0</ele><time>2026-03-28T16:46:36Z</time></trkpt><trkpt lat="45.66007894632845" lon="9.901870317597323"><ele>297.0</ele><time>2026-03-28T16:46:48Z</time></trkpt><trkpt lat="45.660024329939645" lon="9.90178106230037"><ele>297.0</ele><time>2026-03-28T16:46:52Z</time></trkpt><trkpt lat="45.65995029734064" lon="9.901732387342744"><ele>297.0</ele><time>2026-03-28T16:46:55Z</time></trkpt><trkpt lat="45.659881041783876" lon="9.901721287463104"><ele>297.0</ele><time>2026-03-28T16:46:57Z</time></trkpt><trkpt lat="45.659812620110394" lon="9.901673732685063"><ele>297.0</ele><time>2026-03-28T16:47:00Z</time></trkpt><trkpt lat="45.659745310305844" lon="9.90163751498344"><ele>297.0</ele><time>2026-03-28T16:47:03Z</time></trkpt><trkpt lat="45.659702846792236" lon="9.901557340605905"><ele>298.6666666666667</ele><time>2026-03-28T16:47:05Z</time></trkpt><trkpt lat="45.65963655358061" lon="9.901559812263963"><ele>300.3333333333333</ele><time>2026-03-28T16:50:11Z</time></trkpt><trkpt lat="45.65956198684988" lon="9.901506258407762"><ele>302.0</ele><time>2026-03-28T16:50:14Z</time></trkpt><trkpt lat="45.65948123342392" lon="9.901482873093133"><ele>303.66666666666663</ele><time>2026-03-28T16:50:17Z</time></trkpt><trkpt lat="45.65940248187821" lon="9.901432656408552"><ele>305.3333333333333</ele><time>2026-03-28T16:50:19Z</time></trkpt><trkpt lat="45.659338047878876" lon="9.90145710168405"><ele>307.0</ele><time>2026-03-28T16:50:21Z</time></trkpt><trkpt lat="45.65927022065005" lon="9.90143234483413"><ele>309.8333333333333</ele><time>2026-03-28T16:52:38Z</time></trkpt><trkpt lat="45.6592193066052" lon="9.901346256549777"><ele>312.66666666666663</ele><time>2026-03-28T16:52:43Z</time></trkpt><trkpt lat="45.65916148892788" lon="9.90128420836991"><ele>315.5</ele><time>2026-03-28T16:52:45Z</time></trkpt><trkpt lat="45.65910687744747" lon="9.901234651990958"><ele>318.3333333333333</ele><time>2026-03-28T16:52:46Z</time></trkpt><trkpt lat="45.65902224957131" lon="9.901215721707613"><ele>321.1666666666667</ele><time>2026-03-28T16:52:50Z</time></trkpt><trkpt lat="45.658910452358995" lon="9.901274104662445"><ele>324.0</ele><time>2026-03-28T16:52:53Z</time></trkpt><trkpt lat="45.658834070819914" lon="9.901321806627603"><ele>324.0</ele><time>2026-03-28T16:52:56Z</time></trkpt><trkpt lat="45.658739454188634" lon="9.901309001954791"><ele>324.0</ele><time>2026-03-28T16:53:00Z</time></trkpt><trkpt lat="45.65867592571851" lon="9.901307209403399"><ele>324.0</ele><time>2026-03-28T16:53:02Z</time></trkpt><trkpt lat="45.65861672542415" lon="9.901346022696355"><ele>324.0</ele><time>2026-03-28T16:53:07Z</time></trkpt><trkpt lat="45.658535811788305" lon="9.901339245352158"><ele>324.0</ele><time>2026-03-28T16:53:18Z</time></trkpt><trkpt lat="45.65849035985172" lon="9.901227203296752"><ele>324.0</ele><time>2026-03-28T16:53:20Z</time></trkpt><trkpt lat="45.658424243964326" lon="9.901130739075672"><ele>327.3333333333333</ele><time>2026-03-28T16:53:22Z</time></trkpt><trkpt lat="45.658380718806" lon="9.901034219529407"><ele>330.6666666666667</ele><time>2026-03-28T16:53:25Z</time></trkpt><trkpt lat="45.658316447051384" lon="9.900980446447557"><ele>334.0</ele><time>2026-03-28T16:53:29Z</time></trkpt><trkpt lat="45.65826576916145" lon="9.90092301420579"><ele>337.33333333333337</ele><time>2026-03-28T16:53:36Z</time></trkpt><trkpt lat="45.658238945294144" lon="9.900824772894675"><ele>340.6666666666667</ele><time>2026-03-28T16:53:38Z</time></trkpt><trkpt lat="45.658157925921486" lon="9.90076307134523"><ele>344.0</ele><time>2026-03-28T16:53:40Z</time></trkpt><trkpt lat="45.658077671802374" lon="9.900780386821662"><ele>344.0</ele><time>2026-03-28T16:53:43Z</time></trkpt><trkpt lat="45.65801583714776" lon="9.900880849676408"><ele>344.0</ele><time>2026-03-28T16:53:45Z</time></trkpt><trkpt lat="45.65802163766591" lon="9.901010246619984"><ele>344.0</ele><time>2026-03-28T16:53:47Z</time></trkpt><trkpt lat="45.6579848533312" lon="9.901124753799852"><ele>344.0</ele><time>2026-03-28T16:53:49Z</time></trkpt><trkpt lat="45.657977208960105" lon="9.90122199835141"><ele>344.0</ele><time>2026-03-28T16:53:51Z</time></trkpt><trkpt lat="45.65794052141749" lon="9.901332894920513"><ele>344.0</ele><time>2026-03-28T16:53:53Z</time></trkpt><trkpt lat="45.657875525304426" lon="9.901394040993512"><ele>344.0</ele><time>2026-03-28T16:53:55Z</time></trkpt><trkpt lat="45.65780882055896" lon="9.901365843386454"><ele>344.0</ele><time>2026-03-28T16:53:59Z</time></trkpt><trkpt lat="45.65770677924575" lon="9.901350231283665"><ele>344.0</ele><time>2026-03-28T16:54:02Z</time></trkpt><trkpt lat="45.657637232102125" lon="9.90133448988143"><ele>344.0</ele><time>2026-03-28T16:54:14Z</time></trkpt><trkpt lat="45.65756888605704" lon="9.901239361645812"><ele>344.0</ele><time>2026-03-28T16:54:17Z</time></trkpt><trkpt lat="45.657509016803644" lon="9.901209544668088"><ele>344.0</ele><time>2026-03-28T16:54:19Z</time></trkpt><trkpt lat="45.6574448226479" lon="9.901181021698749"><ele>347.6666666666667</ele><time>2026-03-28T16:54:21Z</time></trkpt><trkpt lat="45.65738871589981" lon="9.90111945232144"><ele>351.33333333333337</ele><time>2026-03-28T16:54:22Z</time></trkpt><trkpt lat="45.657325382793" lon="9.901018804625213"><ele>355.0</ele><time>2026-03-28T16:54:25Z</time></trkpt><trkpt lat="45.65725228922439" lon="9.900947121237895"><ele>358.6666666666667</ele><time>2026-03-28T16:54:27Z</time></trkpt><trkpt lat="45.65718194243789" lon="9.900898812452937"><ele>362.3333333333333</ele><time>2026-03-28T16:54:29Z</time></trkpt><trkpt lat="45.65712112712372" lon="9.900793337649215"><ele>366.0</ele><time>2026-03-28T16:54:31Z</time></trkpt><trkpt lat="45.657055188392484" lon="9.900692163885989"><ele>369.3333333333333</ele><time>2026-03-28T16:54:33Z</time></trkpt><trkpt lat="45.656993887597025" lon="9.900629955533402"><ele>372.66666666666663</ele><time>2026-03-28T16:54:35Z</time></trkpt><trkpt lat="45.65691407987382" lon="9.900553275003366"><ele>376.0</ele><time>2026-03-28T16:55:11Z</time></trkpt><trkpt lat="45.65684514105096" lon="9.900534691292348"><ele>379.3333333333333</ele><time>2026-03-28T16:55:12Z</time></trkpt><trkpt lat="45.65679818755807" lon="9.90060453124859"><ele>382.66666666666663</ele><time>2026-03-28T16:55:14Z</time></trkpt><trkpt lat="45.65674189619483" lon="9.900662978180003"><ele>386.0</ele><time>2026-03-28T16:55:19Z</time></trkpt><trkpt lat="45.65667319488269" lon="9.900595769900468"><ele>389.28571428571433</ele><time>2026-03-28T16:57:35Z</time></trkpt><trkpt lat="45.656671499418" lon="9.900485089035627"><ele>392.57142857142856</ele><time>2026-03-28T16:57:37Z</time></trkpt><trkpt lat="45.65663866919615" lon="9.90038132112758"><ele>395.8571428571429</ele><time>2026-03-28T16:57:39Z</time></trkpt><trkpt lat="45.65664270967982" lon="9.900281527060637"><ele>399.14285714285717</ele><time>2026-03-28T16:57:41Z</time></trkpt><trkpt lat="45.656609002298154" lon="9.900180429954785"><ele>402.42857142857144</ele><time>2026-03-28T16:57:43Z</time></trkpt><trkpt lat="45.65657471473783" lon="9.90010109202925"><ele>405.7142857142857</ele><time>2026-03-28T16:57:45Z</time></trkpt><trkpt lat="45.65651886363582" lon="9.900027125146897"><ele>409.0</ele><time>2026-03-28T16:57:47Z</time></trkpt><trkpt lat="45.656454845121154" lon="9.899950823870931"><ele>410.33333333333337</ele><time>2026-03-28T16:57:49Z</time></trkpt><trkpt lat="45.65640606476719" lon="9.899869316567719"><ele>411.6666666666667</ele><time>2026-03-28T16:57:51Z</time></trkpt><trkpt lat="45.656312160163665" lon="9.899742917589423"><ele>413.0</ele><time>2026-03-28T16:57:53Z</time></trkpt><trkpt lat="45.65625604010338" lon="9.899651574329614"><ele>414.33333333333337</ele><time>2026-03-28T16:57:54Z</time></trkpt><trkpt lat="45.65618920505555" lon="9.899571396398418"><ele>415.6666666666667</ele><time>2026-03-28T16:57:55Z</time></trkpt><trkpt lat="45.65613856361304" lon="9.899495464143731"><ele>417.0</ele><time>2026-03-28T16:57:56Z</time></trkpt><trkpt lat="45.65608660874599" lon="9.899382334909301"><ele>419.3333333333333</ele><time>2026-03-28T16:57:57Z</time></trkpt><trkpt lat="45.65604139802034" lon="9.899263157829282"><ele>421.66666666666663</ele><time>2026-03-28T16:57:58Z</time></trkpt><trkpt lat="45.655993997678756" lon="9.899202541912091"><ele>424.0</ele><time>2026-03-28T16:57:59Z</time></trkpt><trkpt lat="45.655943324290334" lon="9.899281923134025"><ele>426.3333333333333</ele><time>2026-03-28T16:58:01Z</time></trkpt><trkpt lat="45.65591119161005" lon="9.899415580749892"><ele>428.66666666666663</ele><time>2026-03-28T16:58:03Z</time></trkpt><trkpt lat="45.655853351236935" lon="9.899540007915999"><ele>431.0</ele><time>2026-03-28T16:58:05Z</time></trkpt><trkpt lat="45.65580028950271" lon="9.899640766790093"><ele>430.99999999999994</ele><time>2026-03-28T16:58:07Z</time></trkpt><trkpt lat="45.65574651330368" lon="9.89976255705237"><ele>431.0</ele><time>2026-03-28T16:59:28Z</time></trkpt><trkpt lat="45.65578643698802" lon="9.899683612895785"><ele>431.0</ele><time>2026-03-28T17:00:57Z</time></trkpt><trkpt lat="45.65573216469325" lon="9.89977971682325"><ele>431.0</ele><time>2026-03-28T17:02:36Z</time></trkpt><trkpt lat="45.65569437285567" lon="9.89986170833277"><ele>430.99999999999994</ele><time>2026-03-28T17:02:38Z</time></trkpt><trkpt lat="45.65562577585569" lon="9.899978370284503"><ele>431.0</ele><time>2026-03-28T17:02:40Z</time></trkpt><trkpt lat="45.65555571650194" lon="9.900083393450581"><ele>430.99999999999994</ele><time>2026-03-28T17:02:42Z</time></trkpt><trkpt lat="45.65545219291189" lon="9.900098819448193"><ele>431.0</ele><time>2026-03-28T17:02:44Z</time></trkpt><trkpt lat="45.65539886531494" lon="9.89998710713886"><ele>431.0</ele><time>2026-03-28T17:02:47Z</time></trkpt><trkpt lat="45.655430962373" lon="9.899894213851564"><ele>431.0</ele><time>2026-03-28T17:02:48Z</time></trkpt><trkpt lat="45.655450463712754" lon="9.899800473196398"><ele>430.99999999999994</ele><time>2026-03-28T17:02:48.999Z</time></trkpt><trkpt lat="45.655472131608555" lon="9.899695643447744"><ele>431.0</ele><time>2026-03-28T17:02:49.999Z</time></trkpt><trkpt lat="45.655490215733046" lon="9.899595185846014"><ele>430.99999999999994</ele><time>2026-03-28T17:02:50.999Z</time></trkpt><trkpt lat="45.65544931725431" lon="9.899472116361483"><ele>431.0</ele><time>2026-03-28T17:02:53Z</time></trkpt><trkpt lat="45.65540608058986" lon="9.899403023274969"><ele>431.0</ele><time>2026-03-28T17:02:54Z</time></trkpt><trkpt lat="45.65533430852153" lon="9.899422472803606"><ele>431.0</ele><time>2026-03-28T17:02:57Z</time></trkpt><trkpt lat="45.65533668799589" lon="9.899520575849468"><ele>430.99999999999994</ele><time>2026-03-28T17:02:59Z</time></trkpt><trkpt lat="45.655311413133006" lon="9.899659664330304"><ele>431.0</ele><time>2026-03-28T17:03:00Z</time></trkpt><trkpt lat="45.655289255598284" lon="9.899781464948886"><ele>434.0</ele><time>2026-03-28T17:03:02Z</time></trkpt><trkpt lat="45.65520051292576" lon="9.899850852947683"><ele>437.0</ele><time>2026-03-28T17:03:04Z</time></trkpt><trkpt lat="45.65510427073452" lon="9.899794887835593"><ele>440.0</ele><time>2026-03-28T17:03:06Z</time></trkpt><trkpt lat="45.65508510192261" lon="9.89962258873068"><ele>443.0</ele><time>2026-03-28T17:03:08Z</time></trkpt><trkpt lat="45.655082206243364" lon="9.89952206941082"><ele>446.0</ele><time>2026-03-28T17:03:09Z</time></trkpt><trkpt lat="45.65506876384821" lon="9.89942525890706"><ele>445.99999999999994</ele><time>2026-03-28T17:03:10Z</time></trkpt><trkpt lat="45.6550284912171" lon="9.899351743226815"><ele>446.0</ele><time>2026-03-28T17:03:11Z</time></trkpt><trkpt lat="45.654936589828836" lon="9.899254383028723"><ele>446.0</ele><time>2026-03-28T17:03:13Z</time></trkpt><trkpt lat="45.65481820876838" lon="9.899201256905807"><ele>446.0</ele><time>2026-03-28T17:03:15Z</time></trkpt><trkpt lat="45.65475010546529" lon="9.899188115676726"><ele>445.99999999999994</ele><time>2026-03-28T17:03:16Z</time></trkpt><trkpt lat="45.654677146633055" lon="9.899181826530326"><ele>446.0</ele><time>2026-03-28T17:03:17Z</time></trkpt><trkpt lat="45.65459856513386" lon="9.899200898597703"><ele>446.0</ele><time>2026-03-28T17:03:18Z</time></trkpt><trkpt lat="45.65448070664272" lon="9.89929036166119"><ele>446.0</ele><time>2026-03-28T17:03:19Z</time></trkpt><trkpt lat="45.65441523381163" lon="9.899291704487952"><ele>446.0</ele><time>2026-03-28T17:03:20Z</time></trkpt><trkpt lat="45.654331196216106" lon="9.899145982868545"><ele>446.0</ele><time>2026-03-28T17:03:22Z</time></trkpt><trkpt lat="45.65432454901054" lon="9.898972146309006"><ele>448.49999999999994</ele><time>2026-03-28T17:03:23Z</time></trkpt><trkpt lat="45.65427660771232" lon="9.898911805837226"><ele>451.0</ele><time>2026-03-28T17:03:25Z</time></trkpt><trkpt lat="45.654230718034015" lon="9.899011044111726"><ele>453.5</ele><time>2026-03-28T17:03:27Z</time></trkpt><trkpt lat="45.654237601305084" lon="9.899116470404442"><ele>456.0</ele><time>2026-03-28T17:03:28Z</time></trkpt><trkpt lat="45.654237712298105" lon="9.89923043564512"><ele>458.49999999999994</ele><time>2026-03-28T17:03:30Z</time></trkpt><trkpt lat="45.65413198922846" lon="9.899224948119961"><ele>461.0</ele><time>2026-03-28T17:03:31Z</time></trkpt><trkpt lat="45.65416108328926" lon="9.899313910388255"><ele>460.99999999999994</ele><time>2026-03-28T17:03:32Z</time></trkpt><trkpt lat="45.654178539051514" lon="9.899405033296839"><ele>461.0</ele><time>2026-03-28T17:03:33Z</time></trkpt><trkpt lat="45.654180241082805" lon="9.899557823843761"><ele>461.0</ele><time>2026-03-28T17:03:35Z</time></trkpt><trkpt lat="45.654170883405044" lon="9.899657560794367"><ele>461.0</ele><time>2026-03-28T17:03:36Z</time></trkpt><trkpt lat="45.654160082800104" lon="9.899761619951747"><ele>460.99999999999994</ele><time>2026-03-28T17:03:37Z</time></trkpt><trkpt lat="45.654149736025815" lon="9.8998554768332"><ele>461.0</ele><time>2026-03-28T17:03:38Z</time></trkpt><trkpt lat="45.654109131266765" lon="9.899990031243153"><ele>461.16666666666663</ele><time>2026-03-28T17:03:40Z</time></trkpt><trkpt lat="45.65401849916771" lon="9.900098001061199"><ele>461.3333333333333</ele><time>2026-03-28T17:03:42Z</time></trkpt><trkpt lat="45.65395138392603" lon="9.900146418767418"><ele>461.5</ele><time>2026-03-28T17:03:43Z</time></trkpt><trkpt lat="45.653873982168044" lon="9.900183823656942"><ele>461.66666666666663</ele><time>2026-03-28T17:03:44Z</time></trkpt><trkpt lat="45.65379503770365" lon="9.900223642765477"><ele>461.8333333333333</ele><time>2026-03-28T17:03:45Z</time></trkpt><trkpt lat="45.65373259980674" lon="9.900277816419347"><ele>462.0</ele><time>2026-03-28T17:03:46Z</time></trkpt><trkpt lat="45.653682207582015" lon="9.900362946846302"><ele>462.0</ele><time>2026-03-28T17:03:47Z</time></trkpt><trkpt lat="45.65371949828716" lon="9.900585161411387"><ele>462.00000000000006</ele><time>2026-03-28T17:03:48Z</time></trkpt><trkpt lat="45.653776307086474" lon="9.900702467824646"><ele>462.00000000000006</ele><time>2026-03-28T17:03:50Z</time></trkpt><trkpt lat="45.65383610090639" lon="9.900754537984456"><ele>462.0</ele><time>2026-03-28T17:03:51Z</time></trkpt><trkpt lat="45.65390519268703" lon="9.900778435044982"><ele>462.0</ele><time>2026-03-28T17:03:52Z</time></trkpt><trkpt lat="45.653986960525756" lon="9.900832527674455"><ele>462.0</ele><time>2026-03-28T17:03:53Z</time></trkpt><trkpt lat="45.65408191537965" lon="9.900891980223054"><ele>462.00000000000006</ele><time>2026-03-28T17:03:54Z</time></trkpt><trkpt lat="45.654135712843676" lon="9.900943496311594"><ele>462.00000000000006</ele><time>2026-03-28T17:03:55Z</time></trkpt><trkpt lat="45.65420007134381" lon="9.900992532130324"><ele>462.0</ele><time>2026-03-28T17:03:56Z</time></trkpt><trkpt lat="45.65429002410111" lon="9.90111760768811"><ele>462.0</ele><time>2026-03-28T17:03:58Z</time></trkpt><trkpt lat="45.6543864542543" lon="9.90123217746268"><ele>461.6666666666667</ele><time>2026-03-28T17:04:00Z</time></trkpt><trkpt lat="45.65442476643446" lon="9.90134190095788"><ele>461.33333333333337</ele><time>2026-03-28T17:04:01Z</time></trkpt><trkpt lat="45.654465512187954" lon="9.901430095093694"><ele>461.0</ele><time>2026-03-28T17:04:02Z</time></trkpt><trkpt lat="45.654482898276704" lon="9.90152121395795"><ele>460.6666666666667</ele><time>2026-03-28T17:04:03Z</time></trkpt><trkpt lat="45.65448174112411" lon="9.901615162616443"><ele>460.33333333333337</ele><time>2026-03-28T17:04:04Z</time></trkpt><trkpt lat="45.65447803055903" lon="9.901739149201207"><ele>460.0</ele><time>2026-03-28T17:04:05Z</time></trkpt><trkpt lat="45.65448278076587" lon="9.901863769159329"><ele>457.1666666666667</ele><time>2026-03-28T17:04:06Z</time></trkpt><trkpt lat="45.65447607340689" lon="9.901967386942061"><ele>454.33333333333337</ele><time>2026-03-28T17:04:07Z</time></trkpt><trkpt lat="45.65441409816941" lon="9.90204801554084"><ele>451.5</ele><time>2026-03-28T17:04:09Z</time></trkpt><trkpt lat="45.65429556703482" lon="9.902031694346872"><ele>448.66666666666663</ele><time>2026-03-28T17:04:11Z</time></trkpt><trkpt lat="45.6542022904363" lon="9.901993308491758"><ele>445.8333333333333</ele><time>2026-03-28T17:04:13Z</time></trkpt><trkpt lat="45.6541347221839" lon="9.901941675215456"><ele>443.0</ele><time>2026-03-28T17:04:14Z</time></trkpt><trkpt lat="45.65407460442883" lon="9.901911133712291"><ele>443.0</ele><time>2026-03-28T17:04:15Z</time></trkpt><trkpt lat="45.65398056045407" lon="9.901826085712472"><ele>442.99999999999994</ele><time>2026-03-28T17:04:17Z</time></trkpt><trkpt lat="45.65391461908978" lon="9.901780668113352"><ele>442.99999999999994</ele><time>2026-03-28T17:04:21Z</time></trkpt><trkpt lat="45.6538241716384" lon="9.9017643577858"><ele>443.0</ele><time>2026-03-28T17:04:23Z</time></trkpt><trkpt lat="45.6537401192818" lon="9.901750656646856"><ele>443.0</ele><time>2026-03-28T17:04:25Z</time></trkpt><trkpt lat="45.65362212833147" lon="9.901672548894481"><ele>447.2857142857143</ele><time>2026-03-28T17:04:27Z</time></trkpt><trkpt lat="45.65356252715987" lon="9.901611822808968"><ele>451.57142857142856</ele><time>2026-03-28T17:04:28Z</time></trkpt><trkpt lat="45.65351468582996" lon="9.901540170869763"><ele>455.8571428571429</ele><time>2026-03-28T17:04:30Z</time></trkpt><trkpt lat="45.65348534305684" lon="9.901444421229025"><ele>460.1428571428571</ele><time>2026-03-28T17:04:32Z</time></trkpt><trkpt lat="45.65342441375129" lon="9.901379248209167"><ele>464.4285714285714</ele><time>2026-03-28T17:04:34Z</time></trkpt><trkpt lat="45.653361039486775" lon="9.901314673060263"><ele>468.7142857142857</ele><time>2026-03-28T17:04:37Z</time></trkpt><trkpt lat="45.65329796792809" lon="9.901282956738337"><ele>473.0</ele><time>2026-03-28T17:04:40Z</time></trkpt><trkpt lat="45.65323474594489" lon="9.901245994359064"><ele>473.0</ele><time>2026-03-28T17:04:49Z</time></trkpt><trkpt lat="45.65317164430775" lon="9.901255920183614"><ele>472.99999999999994</ele><time>2026-03-28T17:04:56Z</time></trkpt><trkpt lat="45.65310815887103" lon="9.901233410637325"><ele>472.99999999999994</ele><time>2026-03-28T17:04:59Z</time></trkpt><trkpt lat="45.65296084944887" lon="9.901166225645987"><ele>473.0</ele><time>2026-03-28T17:05:02Z</time></trkpt><trkpt lat="45.652892180855275" lon="9.901104209285641"><ele>473.0</ele><time>2026-03-28T17:05:05Z</time></trkpt><trkpt lat="45.65281874370714" lon="9.901027604889926"><ele>474.99999999999994</ele><time>2026-03-28T17:05:07Z</time></trkpt><trkpt lat="45.65273901839828" lon="9.900919839462542"><ele>477.0</ele><time>2026-03-28T17:05:09Z</time></trkpt><trkpt lat="45.65265948295567" lon="9.900823100942368"><ele>479.0</ele><time>2026-03-28T17:05:10Z</time></trkpt><trkpt lat="45.65260193172108" lon="9.9007823307487"><ele>481.0</ele><time>2026-03-28T17:05:11Z</time></trkpt><trkpt lat="45.652598693207764" lon="9.90069136915541"><ele>482.99999999999994</ele><time>2026-03-28T17:05:28Z</time></trkpt><trkpt lat="45.65266067011052" lon="9.900614070232386"><ele>485.0</ele><time>2026-03-28T17:12:44Z</time></trkpt><trkpt lat="45.65266780444554" lon="9.900458273767546"><ele>484.75</ele><time>2026-03-28T17:12:49Z</time></trkpt><trkpt lat="45.652728358776976" lon="9.900273016357474"><ele>484.5</ele><time>2026-03-28T17:12:51Z</time></trkpt><trkpt lat="45.65277059052048" lon="9.900119289826234"><ele>484.25</ele><time>2026-03-28T17:12:52Z</time></trkpt><trkpt lat="45.65280689952232" lon="9.899937478387502"><ele>484.0</ele><time>2026-03-28T17:12:53Z</time></trkpt><trkpt lat="45.652899856894116" lon="9.899745614126193"><ele>484.0</ele><time>2026-03-28T17:12:54Z</time></trkpt><trkpt lat="45.652922428211546" lon="9.89957123542878"><ele>484.0</ele><time>2026-03-28T17:12:55Z</time></trkpt><trkpt lat="45.65295579994865" lon="9.899419037635237"><ele>484.0</ele><time>2026-03-28T17:12:56Z</time></trkpt><trkpt lat="45.65298879439932" lon="9.899268939410428"><ele>484.0</ele><time>2026-03-28T17:12:57Z</time></trkpt><trkpt lat="45.65302485202622" lon="9.899126586901376"><ele>484.4</ele><time>2026-03-28T17:12:58Z</time></trkpt><trkpt lat="45.65306162517846" lon="9.899000797897914"><ele>484.79999999999995</ele><time>2026-03-28T17:12:59Z</time></trkpt><trkpt lat="45.653119514202636" lon="9.898861844033261"><ele>485.20000000000005</ele><time>2026-03-28T17:13:00Z</time></trkpt><trkpt lat="45.65319101594085" lon="9.89871458110245"><ele>485.6</ele><time>2026-03-28T17:13:01Z</time></trkpt><trkpt lat="45.65324099904833" lon="9.898581682200389"><ele>486.0</ele><time>2026-03-28T17:13:02Z</time></trkpt><trkpt lat="45.65328447125737" lon="9.898432153058183"><ele>486.0</ele><time>2026-03-28T17:13:03Z</time></trkpt><trkpt lat="45.653329016037425" lon="9.898258205604638"><ele>486.0</ele><time>2026-03-28T17:13:04Z</time></trkpt><trkpt lat="45.65334470739792" lon="9.898138087959772"><ele>486.0</ele><time>2026-03-28T17:13:05Z</time></trkpt><trkpt lat="45.653369599462344" lon="9.898054171421403"><ele>486.0</ele><time>2026-03-28T17:13:06Z</time></trkpt><trkpt lat="45.65342076261971" lon="9.897952682507174"><ele>486.0</ele><time>2026-03-28T17:13:07Z</time></trkpt><trkpt lat="45.6534615511546" lon="9.89782478105301"><ele>486.0</ele><time>2026-03-28T17:13:08Z</time></trkpt><trkpt lat="45.65348705754736" lon="9.89769704851077"><ele>486.0</ele><time>2026-03-28T17:13:09Z</time></trkpt><trkpt lat="45.65351451018404" lon="9.897571799842343"><ele>486.0</ele><time>2026-03-28T17:13:10Z</time></trkpt><trkpt lat="45.65351404372553" lon="9.897473321086208"><ele>486.0</ele><time>2026-03-28T17:13:11Z</time></trkpt><trkpt lat="45.65351399374815" lon="9.897363645592941"><ele>486.0</ele><time>2026-03-28T17:13:11.999Z</time></trkpt><trkpt lat="45.65351468401127" lon="9.897242372712794"><ele>486.0</ele><time>2026-03-28T17:13:12.999Z</time></trkpt><trkpt lat="45.6535383033105" lon="9.897113451123172"><ele>484.4</ele><time>2026-03-28T17:13:13.999Z</time></trkpt><trkpt lat="45.653555967240806" lon="9.896994342851062"><ele>482.8</ele><time>2026-03-28T17:13:14.999Z</time></trkpt><trkpt lat="45.65357022407334" lon="9.896899020505542"><ele>481.19999999999993</ele><time>2026-03-28T17:13:15.999Z</time></trkpt><trkpt lat="45.653584090774295" lon="9.896808476772357"><ele>479.59999999999997</ele><time>2026-03-28T17:13:16.999Z</time></trkpt><trkpt lat="45.653621513916974" lon="9.89660860826407"><ele>478.0</ele><time>2026-03-28T17:13:18.999Z</time></trkpt><trkpt lat="45.65363433869447" lon="9.896456969086405"><ele>475.79999999999995</ele><time>2026-03-28T17:13:19.999Z</time></trkpt><trkpt lat="45.65363504611664" lon="9.896319030739171"><ele>473.59999999999997</ele><time>2026-03-28T17:13:20.999Z</time></trkpt><trkpt lat="45.65363089526406" lon="9.89618553843919"><ele>471.40000000000003</ele><time>2026-03-28T17:13:22Z</time></trkpt><trkpt lat="45.65362341067644" lon="9.89598725178659"><ele>469.20000000000005</ele><time>2026-03-28T17:13:24Z</time></trkpt><trkpt lat="45.65359822483412" lon="9.895881454249375"><ele>467.0</ele><time>2026-03-28T17:13:25Z</time></trkpt><trkpt lat="45.65359189506543" lon="9.895769667337957"><ele>466.8333333333333</ele><time>2026-03-28T17:13:26Z</time></trkpt><trkpt lat="45.653564189326076" lon="9.89567266262454"><ele>466.66666666666663</ele><time>2026-03-28T17:13:28Z</time></trkpt><trkpt lat="45.653509730831864" lon="9.8955974504573"><ele>466.5</ele><time>2026-03-28T17:13:31Z</time></trkpt><trkpt lat="45.653551942941164" lon="9.895511117513525"><ele>466.33333333333337</ele><time>2026-03-28T17:14:13Z</time></trkpt><trkpt lat="45.65358102513632" lon="9.895392810737691"><ele>466.1666666666667</ele><time>2026-03-28T17:14:16Z</time></trkpt><trkpt lat="45.653578411672314" lon="9.895267251944452"><ele>466.0</ele><time>2026-03-28T17:14:18Z</time></trkpt><trkpt lat="45.65356951721504" lon="9.895136269925583"><ele>465.6</ele><time>2026-03-28T17:14:20Z</time></trkpt><trkpt lat="45.65358499032398" lon="9.895011286472574"><ele>465.20000000000005</ele><time>2026-03-28T17:14:22Z</time></trkpt><trkpt lat="45.65360552168405" lon="9.894858852439885"><ele>464.79999999999995</ele><time>2026-03-28T17:14:24Z</time></trkpt><trkpt lat="45.65361392725585" lon="9.894698773337549"><ele>464.4</ele><time>2026-03-28T17:14:26Z</time></trkpt><trkpt lat="45.65361858481991" lon="9.894585373719837"><ele>464.0</ele><time>2026-03-28T17:14:28Z</time></trkpt><trkpt lat="45.65366178716791" lon="9.894509024206672"><ele>463.99999999999994</ele><time>2026-03-28T17:14:30Z</time></trkpt><trkpt lat="45.6536794110019" lon="9.89441571441194"><ele>464.0</ele><time>2026-03-28T17:14:32Z</time></trkpt><trkpt lat="45.6536488781992" lon="9.894328581635797"><ele>464.0</ele><time>2026-03-28T17:14:35Z</time></trkpt><trkpt lat="45.65353617393702" lon="9.894228224816002"><ele>464.0</ele><time>2026-03-28T17:14:37Z</time></trkpt><trkpt lat="45.653457971210784" lon="9.894178068864875"><ele>463.99999999999994</ele><time>2026-03-28T17:14:38Z</time></trkpt><trkpt lat="45.653388757869536" lon="9.894100492653768"><ele>464.0</ele><time>2026-03-28T17:14:39Z</time></trkpt><trkpt lat="45.653333358076225" lon="9.893982526864768"><ele>464.6</ele><time>2026-03-28T17:14:40Z</time></trkpt><trkpt lat="45.65327120377572" lon="9.893865933800448"><ele>465.2</ele><time>2026-03-28T17:14:41Z</time></trkpt><trkpt lat="45.65321853757039" lon="9.89374076524809"><ele>465.80000000000007</ele><time>2026-03-28T17:14:42Z</time></trkpt><trkpt lat="45.65317201613977" lon="9.893602261829741"><ele>466.40000000000003</ele><time>2026-03-28T17:14:43Z</time></trkpt><trkpt lat="45.65311612002834" lon="9.893473416985344"><ele>467.0</ele><time>2026-03-28T17:14:44Z</time></trkpt><trkpt lat="45.653064767042316" lon="9.893320670515951"><ele>469.75</ele><time>2026-03-28T17:14:45Z</time></trkpt><trkpt lat="45.653010454613494" lon="9.893163703752613"><ele>472.5</ele><time>2026-03-28T17:14:46Z</time></trkpt><trkpt lat="45.65297417201656" lon="9.893003346657155"><ele>475.25</ele><time>2026-03-28T17:14:47Z</time></trkpt><trkpt lat="45.65292586816375" lon="9.892855982007331"><ele>478.0</ele><time>2026-03-28T17:14:48Z</time></trkpt><trkpt lat="45.65286350218477" lon="9.89271299707728"><ele>479.5</ele><time>2026-03-28T17:14:49Z</time></trkpt><trkpt lat="45.652821726829394" lon="9.892538477377805"><ele>481.0</ele><time>2026-03-28T17:14:50Z</time></trkpt><trkpt lat="45.65275404707562" lon="9.892382466788629"><ele>482.5</ele><time>2026-03-28T17:14:51Z</time></trkpt><trkpt lat="45.65269726074565" lon="9.892215890424527"><ele>484.0</ele><time>2026-03-28T17:14:52Z</time></trkpt><trkpt lat="45.65264125021048" lon="9.892039049328575"><ele>478.0</ele><time>2026-03-28T17:14:53Z</time></trkpt><trkpt lat="45.65258734595927" lon="9.891865225417234"><ele>472.0</ele><time>2026-03-28T17:14:54Z</time></trkpt><trkpt lat="45.65253813868528" lon="9.891691522180318"><ele>466.0</ele><time>2026-03-28T17:14:55Z</time></trkpt><trkpt lat="45.65248380536413" lon="9.891529894379927"><ele>460.0</ele><time>2026-03-28T17:14:56Z</time></trkpt><trkpt lat="45.65243230795631" lon="9.891370684338618"><ele>460.0</ele><time>2026-03-28T17:14:57Z</time></trkpt><trkpt lat="45.65237666613021" lon="9.891218598554214"><ele>460.0</ele><time>2026-03-28T17:14:58Z</time></trkpt><trkpt lat="45.65231646829565" lon="9.891065864280788"><ele>460.0</ele><time>2026-03-28T17:14:59Z</time></trkpt><trkpt lat="45.652244042739916" lon="9.890914541723522"><ele>460.0</ele><time>2026-03-28T17:15:00Z</time></trkpt><trkpt lat="45.65216418615644" lon="9.890771221711766"><ele>460.75</ele><time>2026-03-28T17:15:01Z</time></trkpt><trkpt lat="45.65207092911535" lon="9.890627824566026"><ele>461.5</ele><time>2026-03-28T17:15:02Z</time></trkpt><trkpt lat="45.651980276720856" lon="9.890492618983403"><ele>462.25</ele><time>2026-03-28T17:15:03Z</time></trkpt><trkpt lat="45.65190759354628" lon="9.890338810000433"><ele>463.0</ele><time>2026-03-28T17:15:04Z</time></trkpt><trkpt lat="45.65182706024673" lon="9.890237556965365"><ele>460.25</ele><time>2026-03-28T17:15:05Z</time></trkpt><trkpt lat="45.6517613254591" lon="9.89009435855689"><ele>457.5</ele><time>2026-03-28T17:15:06Z</time></trkpt><trkpt lat="45.651679476795074" lon="9.889962342389092"><ele>454.75</ele><time>2026-03-28T17:15:06.999Z</time></trkpt><trkpt lat="45.65158820159051" lon="9.889846213509353"><ele>452.0</ele><time>2026-03-28T17:15:07.999Z</time></trkpt><trkpt lat="45.651489643703506" lon="9.889714158347243"><ele>452.0</ele><time>2026-03-28T17:15:08.999Z</time></trkpt><trkpt lat="45.65138712489213" lon="9.889576108007338"><ele>452.0</ele><time>2026-03-28T17:15:09.999Z</time></trkpt><trkpt lat="45.6512852363485" lon="9.889442333426285"><ele>452.0</ele><time>2026-03-28T17:15:10.999Z</time></trkpt><trkpt lat="45.65119847020544" lon="9.889303506899285"><ele>452.0</ele><time>2026-03-28T17:15:11.999Z</time></trkpt><trkpt lat="45.65110971338854" lon="9.889181975164188"><ele>447.40000000000003</ele><time>2026-03-28T17:15:12.999Z</time></trkpt><trkpt lat="45.65102012248782" lon="9.889097663507899"><ele>442.80000000000007</ele><time>2026-03-28T17:15:13.999Z</time></trkpt><trkpt lat="45.65093519483408" lon="9.888996186267693"><ele>438.2</ele><time>2026-03-28T17:15:14.999Z</time></trkpt><trkpt lat="45.65084102689737" lon="9.88892295048699"><ele>433.6</ele><time>2026-03-28T17:15:15.999Z</time></trkpt><trkpt lat="45.65075634762932" lon="9.888869782742788"><ele>429.0</ele><time>2026-03-28T17:15:16.999Z</time></trkpt><trkpt lat="45.65070365214652" lon="9.88879578365527"><ele>429.0</ele><time>2026-03-28T17:15:17.999Z</time></trkpt><trkpt lat="45.650694786236485" lon="9.888690213751248"><ele>429.0</ele><time>2026-03-28T17:15:18.999Z</time></trkpt><trkpt lat="45.65073017915276" lon="9.888579734538897"><ele>429.0</ele><time>2026-03-28T17:15:19.999Z</time></trkpt><trkpt lat="45.65081214599752" lon="9.888504962492773"><ele>429.0</ele><time>2026-03-28T17:15:20.999Z</time></trkpt><trkpt lat="45.65092456015126" lon="9.888517708766773"><ele>429.0</ele><time>2026-03-28T17:15:21.999Z</time></trkpt><trkpt lat="45.651036994251655" lon="9.888469377037458"><ele>429.0</ele><time>2026-03-28T17:15:22.999Z</time></trkpt><trkpt lat="45.65116036930465" lon="9.888452970800651"><ele>429.0</ele><time>2026-03-28T17:15:23.999Z</time></trkpt><trkpt lat="45.651299096164756" lon="9.888436741594056"><ele>429.0</ele><time>2026-03-28T17:15:24.999Z</time></trkpt><trkpt lat="45.65143977670758" lon="9.888404471218317"><ele>429.0</ele><time>2026-03-28T17:15:25.999Z</time></trkpt><trkpt lat="45.65158488838481" lon="9.888409916940903"><ele>429.0</ele><time>2026-03-28T17:15:26.999Z</time></trkpt><trkpt lat="45.651698859229064" lon="9.888343112425606"><ele>429.0</ele><time>2026-03-28T17:15:28Z</time></trkpt><trkpt lat="45.65180885124997" lon="9.888280919299591"><ele>429.0</ele><time>2026-03-28T17:15:29Z</time></trkpt><trkpt lat="45.65191270652228" lon="9.888190201013272"><ele>429.0</ele><time>2026-03-28T17:15:30Z</time></trkpt><trkpt lat="45.65202215610497" lon="9.88809217769095"><ele>434.0</ele><time>2026-03-28T17:15:31Z</time></trkpt><trkpt lat="45.65212588578758" lon="9.887992092201431"><ele>439.0</ele><time>2026-03-28T17:15:32Z</time></trkpt><trkpt lat="45.652223794670086" lon="9.88792672251386"><ele>444.0</ele><time>2026-03-28T17:15:33Z</time></trkpt><trkpt lat="45.65231708609751" lon="9.887823493515967"><ele>449.0</ele><time>2026-03-28T17:15:34Z</time></trkpt><trkpt lat="45.6523741467439" lon="9.887670770703282"><ele>443.3333333333333</ele><time>2026-03-28T17:15:35Z</time></trkpt><trkpt lat="45.65237822363843" lon="9.88745546707589"><ele>437.66666666666663</ele><time>2026-03-28T17:15:36Z</time></trkpt><trkpt lat="45.652355172002366" lon="9.887215019722369"><ele>432.0</ele><time>2026-03-28T17:15:37Z</time></trkpt><trkpt lat="45.65236076230461" lon="9.886986973007643"><ele>432.0</ele><time>2026-03-28T17:15:38Z</time></trkpt><trkpt lat="45.6523627832196" lon="9.886774493325852"><ele>432.0</ele><time>2026-03-28T17:15:39Z</time></trkpt><trkpt lat="45.652398758905534" lon="9.886591028169025"><ele>432.0</ele><time>2026-03-28T17:15:40Z</time></trkpt><trkpt lat="45.65240869164596" lon="9.886390420177035"><ele>432.0</ele><time>2026-03-28T17:15:41Z</time></trkpt><trkpt lat="45.65241381978789" lon="9.886215585413954"><ele>428.5</ele><time>2026-03-28T17:15:42Z</time></trkpt><trkpt lat="45.652395702555836" lon="9.886029998777207"><ele>425.0</ele><time>2026-03-28T17:15:43Z</time></trkpt><trkpt lat="45.652337353857966" lon="9.885884539935304"><ele>421.5</ele><time>2026-03-28T17:15:44Z</time></trkpt><trkpt lat="45.65222679997437" lon="9.885747668050218"><ele>418.0</ele><time>2026-03-28T17:15:45Z</time></trkpt><trkpt lat="45.65214444060091" lon="9.88562520323108"><ele>416.75</ele><time>2026-03-28T17:15:46Z</time></trkpt><trkpt lat="45.65212753255567" lon="9.885460218429575"><ele>415.5</ele><time>2026-03-28T17:15:47Z</time></trkpt><trkpt lat="45.6521176847053" lon="9.885298272689713"><ele>414.25</ele><time>2026-03-28T17:15:48Z</time></trkpt><trkpt lat="45.65214934755779" lon="9.885104595544954"><ele>413.0</ele><time>2026-03-28T17:15:49Z</time></trkpt><trkpt lat="45.652185352310404" lon="9.884850712244958"><ele>412.0</ele><time>2026-03-28T17:15:50Z</time></trkpt><trkpt lat="45.652215970637414" lon="9.884638960473719"><ele>411.0</ele><time>2026-03-28T17:15:51Z</time></trkpt><trkpt lat="45.65224149592407" lon="9.884463524237932"><ele>410.0</ele><time>2026-03-28T17:15:52Z</time></trkpt><trkpt lat="45.65225246203986" lon="9.884290424220744"><ele>409.0</ele><time>2026-03-28T17:15:53Z</time></trkpt><trkpt lat="45.652275601317314" lon="9.884108838645917"><ele>406.25</ele><time>2026-03-28T17:15:54Z</time></trkpt><trkpt lat="45.652302963554035" lon="9.883937159198135"><ele>403.5</ele><time>2026-03-28T17:15:55Z</time></trkpt><trkpt lat="45.65233727903634" lon="9.883762586030322"><ele>400.75</ele><time>2026-03-28T17:15:56Z</time></trkpt><trkpt lat="45.65235285423932" lon="9.88356637260603"><ele>398.0</ele><time>2026-03-28T17:15:57Z</time></trkpt><trkpt lat="45.65235479362513" lon="9.883372038641562"><ele>396.5</ele><time>2026-03-28T17:15:58Z</time></trkpt><trkpt lat="45.65233959978564" lon="9.883165676596834"><ele>395.0</ele><time>2026-03-28T17:15:59Z</time></trkpt><trkpt lat="45.652307669140846" lon="9.882954575928055"><ele>393.5</ele><time>2026-03-28T17:16:00Z</time></trkpt><trkpt lat="45.65228634877122" lon="9.88275348726791"><ele>392.0</ele><time>2026-03-28T17:16:01Z</time></trkpt><trkpt lat="45.6523039176062" lon="9.882568496099543"><ele>390.5</ele><time>2026-03-28T17:16:02Z</time></trkpt><trkpt lat="45.65231765669199" lon="9.882408740590858"><ele>389.0</ele><time>2026-03-28T17:16:03Z</time></trkpt><trkpt lat="45.65236447777714" lon="9.882270602447495"><ele>387.5</ele><time>2026-03-28T17:16:04Z</time></trkpt><trkpt lat="45.65243945268477" lon="9.882147216529207"><ele>386.0</ele><time>2026-03-28T17:16:05Z</time></trkpt><trkpt lat="45.65250487802896" lon="9.881978193197462"><ele>386.0</ele><time>2026-03-28T17:16:06Z</time></trkpt><trkpt lat="45.6525010567642" lon="9.881827315952542"><ele>386.0</ele><time>2026-03-28T17:16:07Z</time></trkpt><trkpt lat="45.65247790698637" lon="9.881673194311817"><ele>386.0</ele><time>2026-03-28T17:16:08Z</time></trkpt><trkpt lat="45.65237927304049" lon="9.881514944125838"><ele>386.0</ele><time>2026-03-28T17:16:09Z</time></trkpt><trkpt lat="45.652266704573144" lon="9.881380945235863"><ele>384.0</ele><time>2026-03-28T17:16:10Z</time></trkpt><trkpt lat="45.6522005681943" lon="9.881221931217759"><ele>382.0</ele><time>2026-03-28T17:16:11Z</time></trkpt><trkpt lat="45.65215917430344" lon="9.881042342407593"><ele>380.0</ele><time>2026-03-28T17:16:12Z</time></trkpt><trkpt lat="45.65211705872494" lon="9.880851492995848"><ele>378.0</ele><time>2026-03-28T17:16:13Z</time></trkpt><trkpt lat="45.652086014759064" lon="9.880662471205964"><ele>377.75</ele><time>2026-03-28T17:16:14Z</time></trkpt><trkpt lat="45.65207683711609" lon="9.88048801462059"><ele>377.5</ele><time>2026-03-28T17:16:15Z</time></trkpt><trkpt lat="45.65209151239477" lon="9.88029108411273"><ele>377.25</ele><time>2026-03-28T17:16:16Z</time></trkpt><trkpt lat="45.65211309327614" lon="9.880091349383987"><ele>377.0</ele><time>2026-03-28T17:16:17Z</time></trkpt><trkpt lat="45.652128822869464" lon="9.879894393715578"><ele>376.25</ele><time>2026-03-28T17:16:18Z</time></trkpt><trkpt lat="45.65212262171295" lon="9.8796967550742"><ele>375.5</ele><time>2026-03-28T17:16:19Z</time></trkpt><trkpt lat="45.6521049792099" lon="9.879500862505132"><ele>374.75</ele><time>2026-03-28T17:16:20Z</time></trkpt><trkpt lat="45.65204352387489" lon="9.879308879791203"><ele>374.0</ele><time>2026-03-28T17:16:21Z</time></trkpt><trkpt lat="45.65194870773879" lon="9.879119097723859"><ele>369.0</ele><time>2026-03-28T17:16:22Z</time></trkpt><trkpt lat="45.651860578473915" lon="9.87894077205704"><ele>364.0</ele><time>2026-03-28T17:16:23Z</time></trkpt><trkpt lat="45.65180702285602" lon="9.878766071857081"><ele>359.0</ele><time>2026-03-28T17:16:24Z</time></trkpt><trkpt lat="45.65172915848938" lon="9.87857699261044"><ele>354.0</ele><time>2026-03-28T17:16:25Z</time></trkpt><trkpt lat="45.651650836037035" lon="9.878386801446695"><ele>354.0</ele><time>2026-03-28T17:16:26Z</time></trkpt><trkpt lat="45.651576514928244" lon="9.878204324286727"><ele>354.0</ele><time>2026-03-28T17:16:27Z</time></trkpt><trkpt lat="45.651503991782214" lon="9.878022714399377"><ele>354.0</ele><time>2026-03-28T17:16:28Z</time></trkpt><trkpt lat="45.651425436044896" lon="9.877828817658253"><ele>354.0</ele><time>2026-03-28T17:16:29Z</time></trkpt><trkpt lat="45.6513679660918" lon="9.877634514999945"><ele>354.0</ele><time>2026-03-28T17:16:30Z</time></trkpt><trkpt lat="45.65135921527943" lon="9.877450803383788"><ele>354.0</ele><time>2026-03-28T17:16:31Z</time></trkpt><trkpt lat="45.651384860030866" lon="9.877236991677888"><ele>354.0</ele><time>2026-03-28T17:16:32Z</time></trkpt><trkpt lat="45.651414103456595" lon="9.877012098861798"><ele>355.3333333333333</ele><time>2026-03-28T17:16:33Z</time></trkpt><trkpt lat="45.651427991739105" lon="9.876782643868587"><ele>356.66666666666663</ele><time>2026-03-28T17:16:34Z</time></trkpt><trkpt lat="45.65147415204594" lon="9.87656293356972"><ele>358.0</ele><time>2026-03-28T17:16:35Z</time></trkpt><trkpt lat="45.651504770739756" lon="9.87633482000957"><ele>358.0</ele><time>2026-03-28T17:16:36Z</time></trkpt><trkpt lat="45.65153157796247" lon="9.876132106098858"><ele>358.0</ele><time>2026-03-28T17:16:37Z</time></trkpt><trkpt lat="45.651554159477634" lon="9.875943236467625"><ele>358.0</ele><time>2026-03-28T17:16:38Z</time></trkpt><trkpt lat="45.651564751923274" lon="9.875762373743553"><ele>358.0</ele><time>2026-03-28T17:16:39Z</time></trkpt><trkpt lat="45.65154442867212" lon="9.875577631642464"><ele>356.0</ele><time>2026-03-28T17:16:40Z</time></trkpt><trkpt lat="45.651490908781085" lon="9.875391722070198"><ele>354.0</ele><time>2026-03-28T17:16:41Z</time></trkpt><trkpt lat="45.65139398487984" lon="9.875223784162113"><ele>352.0</ele><time>2026-03-28T17:16:42Z</time></trkpt><trkpt lat="45.65129173964721" lon="9.875052483185547"><ele>351.5</ele><time>2026-03-28T17:16:43Z</time></trkpt><trkpt lat="45.6512187392008" lon="9.874882109196175"><ele>351.0</ele><time>2026-03-28T17:16:44Z</time></trkpt><trkpt lat="45.65118898253231" lon="9.874705635865451"><ele>350.5</ele><time>2026-03-28T17:16:45Z</time></trkpt><trkpt lat="45.65115933558139" lon="9.874526917144504"><ele>350.0</ele><time>2026-03-28T17:16:46Z</time></trkpt><trkpt lat="45.651150728058816" lon="9.874334134800272"><ele>349.0</ele><time>2026-03-28T17:16:47Z</time></trkpt><trkpt lat="45.65112820015233" lon="9.87413916132825"><ele>348.0</ele><time>2026-03-28T17:16:48Z</time></trkpt><trkpt lat="45.651115002197415" lon="9.873958284415641"><ele>347.0</ele><time>2026-03-28T17:16:49Z</time></trkpt><trkpt lat="45.65108181841967" lon="9.873728529145218"><ele>346.0</ele><time>2026-03-28T17:16:50Z</time></trkpt><trkpt lat="45.65103293682617" lon="9.873593941681026"><ele>341.6</ele><time>2026-03-28T17:16:51Z</time></trkpt><trkpt lat="45.650996113462476" lon="9.873440460285824"><ele>337.20000000000005</ele><time>2026-03-28T17:16:52Z</time></trkpt><trkpt lat="45.65091945755083" lon="9.873331741307815"><ele>332.79999999999995</ele><time>2026-03-28T17:16:53Z</time></trkpt><trkpt lat="45.65085746108998" lon="9.873218591083127"><ele>328.4</ele><time>2026-03-28T17:16:54Z</time></trkpt><trkpt lat="45.65078919116936" lon="9.873122648373853"><ele>324.0</ele><time>2026-03-28T17:16:55Z</time></trkpt><trkpt lat="45.65072914881644" lon="9.873008976587748"><ele>323.6666666666667</ele><time>2026-03-28T17:16:56Z</time></trkpt><trkpt lat="45.65066605126239" lon="9.872914329584031"><ele>323.3333333333333</ele><time>2026-03-28T17:16:57Z</time></trkpt><trkpt lat="45.65060805227389" lon="9.872830357401186"><ele>323.0</ele><time>2026-03-28T17:16:58Z</time></trkpt><trkpt lat="45.65056082740238" lon="9.872761280923825"><ele>322.66666666666663</ele><time>2026-03-28T17:16:59Z</time></trkpt><trkpt lat="45.65050343133775" lon="9.8726894782532"><ele>322.3333333333333</ele><time>2026-03-28T17:17:01Z</time></trkpt><trkpt lat="45.65044372632623" lon="9.872637244169352"><ele>322.0</ele><time>2026-03-28T17:17:04.999Z</time></trkpt><trkpt lat="45.65038249065686" lon="9.872514490178496"><ele>320.8333333333333</ele><time>2026-03-28T17:17:07.999Z</time></trkpt><trkpt lat="45.6502956227927" lon="9.872473892510632"><ele>319.66666666666663</ele><time>2026-03-28T17:17:09.999Z</time></trkpt><trkpt lat="45.65027331888681" lon="9.872365816865917"><ele>318.5</ele><time>2026-03-28T17:17:10.999Z</time></trkpt><trkpt lat="45.650218978731246" lon="9.87229181511379"><ele>317.3333333333333</ele><time>2026-03-28T17:17:11.999Z</time></trkpt><trkpt lat="45.650160425856676" lon="9.872211486621067"><ele>316.1666666666667</ele><time>2026-03-28T17:17:12.999Z</time></trkpt><trkpt lat="45.65010929794635" lon="9.872141246463544"><ele>315.0</ele><time>2026-03-28T17:17:13.999Z</time></trkpt><trkpt lat="45.65005071380611" lon="9.872060762838812"><ele>314.4</ele><time>2026-03-28T17:17:14.999Z</time></trkpt><trkpt lat="45.64999077291867" lon="9.87197841537087"><ele>313.8</ele><time>2026-03-28T17:17:15.999Z</time></trkpt><trkpt lat="45.64993595014672" lon="9.871903099168307"><ele>313.2</ele><time>2026-03-28T17:17:16.999Z</time></trkpt><trkpt lat="45.64988879658865" lon="9.871834163092165"><ele>312.6</ele><time>2026-03-28T17:17:17.999Z</time></trkpt><trkpt lat="45.649822952597134" lon="9.871710871070084"><ele>312.0</ele><time>2026-03-28T17:17:19.999Z</time></trkpt><trkpt lat="45.64974046588626" lon="9.871573454903423"><ele>312.0</ele><time>2026-03-28T17:17:21.999Z</time></trkpt><trkpt lat="45.649643523949386" lon="9.87145108964642"><ele>312.0</ele><time>2026-03-28T17:17:23.999Z</time></trkpt><trkpt lat="45.649575891023304" lon="9.871397431602634"><ele>312.0</ele><time>2026-03-28T17:17:24.999Z</time></trkpt><trkpt lat="45.64950105675197" lon="9.871347410402219"><ele>312.0</ele><time>2026-03-28T17:17:25.999Z</time></trkpt><trkpt lat="45.649419034396004" lon="9.871291087346664"><ele>312.0</ele><time>2026-03-28T17:17:26.999Z</time></trkpt><trkpt lat="45.64932707037019" lon="9.87122771697968"><ele>312.0</ele><time>2026-03-28T17:17:27.999Z</time></trkpt><trkpt lat="45.64924907333594" lon="9.871145699576738"><ele>312.0</ele><time>2026-03-28T17:17:28.999Z</time></trkpt><trkpt lat="45.649159032014154" lon="9.871079255864958"><ele>312.0</ele><time>2026-03-28T17:17:29.999Z</time></trkpt><trkpt lat="45.64907926272287" lon="9.871014530002649"><ele>312.0</ele><time>2026-03-28T17:17:30.999Z</time></trkpt><trkpt lat="45.649005740121844" lon="9.87095137326465"><ele>312.0</ele><time>2026-03-28T17:17:31.999Z</time></trkpt><trkpt lat="45.64893526427216" lon="9.870889873740907"><ele>312.5</ele><time>2026-03-28T17:17:32.999Z</time></trkpt><trkpt lat="45.648859689682034" lon="9.870819127150744"><ele>313.0</ele><time>2026-03-28T17:17:34Z</time></trkpt><trkpt lat="45.648779373950305" lon="9.870742052237693"><ele>313.5</ele><time>2026-03-28T17:17:35Z</time></trkpt><trkpt lat="45.64870228267142" lon="9.870665369205923"><ele>314.0</ele><time>2026-03-28T17:17:36Z</time></trkpt><trkpt lat="45.64864067364095" lon="9.870603899687351"><ele>314.5</ele><time>2026-03-28T17:17:37Z</time></trkpt><trkpt lat="45.648708923217804" lon="9.87053467370215"><ele>315.0</ele><time>2026-03-28T17:17:41Z</time></trkpt><trkpt lat="45.648763432338384" lon="9.870460021870372"><ele>315.0</ele><time>2026-03-28T17:17:43Z</time></trkpt></trkseg></trk></gpx>